[[{"header":{"parameterUnit":"m.s-1","parameterCategory":1,"la1":30.6,"la2":28.766,"lo1":-90.7593,"lo2":-88.6598,"dy":0.0162,"dx":0.0183,"nx":116,"ny":114,"refTime":"2024-05-20T12:00:00:Z","depth":0,"parameterNumber":2,"parameterNumberName":"U-component_of_WINDS"},"data":[0.0,0.0,0.0,0.0,0.0,0.0,0.0,0.0,0.0,0.0,0.0,0.0,0.0,0.0,0.0,0.0,0.0,0.0,0.0,0.0,0.0,0.0,0.0,0.0,0.0,0.0,0.0,0.0,0.0,0.0,0.0,0.0,0.0,0.0,0.0,0.0,0.0,0.0,0.0,0.0,0.0,0.0,0.0,0.0,0.0,0.0,0.0,0.0,0.0,0.0,0.0,0.0,0.0,0.0,0.0,0.0,0.0,0.0,0.0,0.0,0.0,0.0,0.0,0.0,0.0,0.0,0.0,0.0,0.0,0.0,0.0,0.0,0.0,0.0,0.0,0.0,0.0,0.0,0.0,0.0,0.0,0.0,0.0,0.0,0.0,0.0,0.0,0.0,0.0,0.0,0.0,0.0,0.0,0.0,0.0,0.0,0.0,0.0,0.0,0.0,0.0,0.0,0.0,0.0,0.0,0.0,0.0,0.0,0.0,0.0,0.0,0.0,0.0,0.0,0.0,0.0,0.0,0.0,0.0,0.0,0.0,0.0,0.0,0.0,0.0,0.0,0.0,0.0,0.0,0.0,0.0,0.0,0.0,0.0,0.0,0.0,0.0,0.0,0.0,0.0,0.0,0.0,0.0,0.0,0.0,0.0,0.0,0.0,0.0,0.0,0.0,0.0,0.0,0.0,0.0,0.0,0.0,0.0,0.0,0.0,0.0,0.0,0.0,0.0,0.0,0.0,0.0,0.0,0.0,0.0,0.0,0.0,0.0,0.0,0.0,0.0,0.0,0.0,0.0,0.0,0.0,0.0,0.0,0.0,0.0,0.0,0.0,0.0,0.0,0.0,0.0,0.0,0.0,0.0,0.0,0.0,0.0,0.0,0.0,0.0,0.0,0.0,0.0,0.0,0.0,0.0,0.0,0.0,0.0,0.0,0.0,0.0,0.0,0.0,0.0,0.0,0.0,0.0,0.0,0.0,0.0,0.0,0.0,0.0,0.0,0.0,0.0,0.0,0.0,0.0,0.0,0.0,0.0,0.0,0.0,0.0,0.0,0.0,0.0,0.0,0.0,0.0,0.0,0.0,0.0,0.0,0.0,0.0,0.0,0.0,0.0,0.0,0.0,0.0,0.0,0.0,0.0,0.0,0.0,0.0,0.0,0.0,0.0,0.0,0.0,0.0,0.0,0.0,0.0,0.0,0.0,0.0,0.0,0.0,0.0,0.0,0.0,0.0,0.0,0.0,0.0,0.0,0.0,0.0,0.0,0.0,0.0,0.0,0.0,0.0,0.0,0.0,0.0,0.0,0.0,0.0,0.0,0.0,0.0,0.0,0.0,0.0,0.0,0.0,0.0,0.0,0.0,0.0,0.0,0.0,0.0,0.0,0.0,0.0,0.0,0.0,0.0,0.0,0.0,0.0,0.0,0.0,0.0,0.0,0.0,0.0,0.0,0.0,0.0,0.0,0.0,0.0,0.0,0.0,0.0,0.0,0.0,0.0,0.0,0.0,0.0,0.0,0.0,0.0,0.0,0.0,0.0,0.0,0.0,0.0,0.0,0.0,0.0,0.0,0.0,0.0,0.0,0.0,0.0,0.0,0.0,0.0,0.0,0.0,0.0,0.0,0.0,0.0,0.0,0.0,0.0,0.0,0.0,0.0,0.0,0.0,0.0,0.0,0.0,0.0,0.0,0.0,0.0,0.0,0.0,0.0,0.0,0.0,0.0,0.0,0.0,0.0,0.0,0.0,0.0,0.0,0.0,0.0,0.0,0.0,0.0,0.0,0.0,0.0,0.0,0.0,0.0,0.0,0.0,0.0,0.0,0.0,0.0,0.0,0.0,0.0,0.0,0.0,0.0,0.0,0.0,0.0,0.0,0.0,0.0,0.0,0.0,0.0,0.0,0.0,0.0,0.0,0.0,0.0,0.0,0.0,0.0,0.0,0.0,0.0,0.0,0.0,0.0,0.0,0.0,0.0,0.0,0.0,0.0,0.0,0.0,0.0,0.0,0.0,0.0,0.0,0.0,0.0,0.0,0.0,0.0,0.0,0.0,0.0,0.0,0.0,0.0,0.0,0.0,0.0,0.0,0.0,0.0,0.0,0.0,0.0,0.0,0.0,0.0,0.0,0.0,0.0,0.0,0.0,0.0,0.0,0.0,0.0,0.0,0.0,0.0,0.0,0.0,0.0,0.0,0.0,0.0,0.0,0.0,0.0,0.0,0.0,0.0,0.0,0.0,0.0,0.0,0.0,0.0,0.0,0.0,0.0,0.0,0.0,0.0,0.0,0.0,0.0,0.0,0.0,0.0,0.0,0.0,0.0,0.0,0.0,0.0,0.0,0.0,0.0,0.0,0.0,0.0,0.0,0.0,0.0,0.0,0.0,0.0,0.0,0.0,0.0,0.0,0.0,0.0,0.0,0.0,0.0,0.0,0.0,0.0,0.0,0.0,0.0,0.0,0.0,0.0,0.0,0.0,0.0,0.0,0.0,0.0,0.0,0.0,0.0,0.0,0.0,0.0,0.0,0.0,0.0,0.0,0.0,0.0,0.0,0.0,0.0,0.0,0.0,0.0,0.0,0.0,0.0,0.0,0.0,0.0,0.0,0.0,0.0,0.0,0.0,0.0,0.0,0.0,0.0,0.0,0.0,0.0,0.0,0.0,0.0,0.0,0.0,0.0,0.0,0.0,0.0,0.0,0.0,0.0,0.0,0.0,0.0,0.0,0.0,0.0,0.0,0.0,0.0,0.0,0.0,0.0,0.0,0.0,0.0,0.0,0.0,0.0,0.0,0.0,0.0,0.0,0.0,0.0,0.0,0.0,0.0,0.0,0.0,0.0,0.0,0.0,0.0,0.0,0.0,0.0,0.0,0.0,0.0,0.0,0.0,0.0,0.0,0.0,0.0,0.0,0.0,0.0,0.0,0.0,0.0,0.0,0.0,0.0,0.0,0.0,0.0,0.0,0.0,0.0,0.0,0.0,0.0,0.0,0.0,0.0,0.0,0.0,0.0,0.0,0.0,0.0,0.0,0.0,0.0,0.0,0.0,0.0,0.0,0.0,0.0,0.0,0.0,0.0,0.0,0.0,0.0,0.0,0.0,0.0,0.0,0.0,0.0,0.0,0.0,0.0,0.0,0.0,0.0,0.0,0.0,0.0,0.0,0.0,0.0,0.0,0.0,0.0,0.0,0.0,0.0,0.0,0.0,0.0,0.0,0.0,0.0,0.0,0.0,0.0,0.0,0.0,0.0,0.0,0.0,0.0,0.0,0.0,0.0,0.0,0.0,0.0,0.0,0.0,0.0,0.0,0.0,0.0,0.0,0.0,0.0,0.0,0.0,0.0,0.0,0.0,0.0,0.0,0.0,0.0,0.0,0.0,0.0,0.0,0.0,0.0,0.0,0.0,0.0,0.0,0.0,0.0,0.0,0.0,0.0,0.0,0.0,0.0,0.0,0.0,0.0,0.0,0.0,0.0,0.0,0.0,0.0,0.0,0.0,0.0,0.0,0.0,0.0,0.0,0.0,0.0,0.0,0.0,0.0,0.0,0.0,0.0,0.0,0.0,0.0,0.0,0.0,0.0,0.0,0.0,0.0,0.0,0.0,0.0,0.0,0.0,0.0,0.0,0.0,0.0,0.0,0.0,0.0,0.0,0.0,0.0,0.0,0.0,0.0,0.0,0.0,0.0,0.0,0.0,0.0,0.0,0.0,0.0,0.0,0.0,0.0,0.0,0.0,0.0,0.0,0.0,0.0,0.0,0.0,0.0,0.0,0.0,0.0,0.0,0.0,0.0,0.0,0.0,0.0,0.0,0.0,0.0,0.0,0.0,0.0,0.0,0.0,0.0,0.0,0.0,0.0,0.0,0.0,0.0,0.0,0.0,0.0,0.0,0.0,0.0,0.0,0.0,0.0,0.0,0.0,0.0,0.0,0.0,0.0,0.0,0.0,0.0,0.0,0.0,0.0,0.0,0.0,0.0,0.0,0.0,0.0,0.0,0.0,0.0,0.0,0.0,0.0,0.0,0.0,0.0,0.0,0.0,0.0,0.0,0.0,0.0,0.0,0.0,0.0,0.0,0.0,0.0,0.0,0.0,0.0,0.0,0.0,0.0,0.0,0.0,0.0,0.0,0.0,0.0,0.0,0.0,0.0,0.0,0.0,0.0,0.0,0.0,0.0,0.0,0.0,0.0,0.0,0.0,0.0,0.0,0.0,0.0,0.0,0.0,0.0,0.0,0.0,0.0,0.0,0.0,0.0,0.0,0.0,0.0,0.0,0.0,0.0,0.0,0.0,0.0,0.0,0.0,0.0,0.0,0.0,0.0,0.0,0.0,0.0,0.0,0.0,0.0,0.0,0.0,0.0,0.0,0.0,0.0,0.0,0.0,0.0,0.0,0.0,0.0,0.0,0.0,0.0,0.0,0.0,0.0,0.0,0.0,0.0,0.0,0.0,0.0,0.0,0.0,0.0,0.0,0.0,0.0,0.0,0.0,0.0,0.0,0.0,0.0,0.0,0.0,0.0,0.0,0.0,0.0,0.0,0.0,0.0,0.0,0.0,0.0,0.0,0.0,0.0,0.0,0.0,0.0,0.0,0.0,0.0,0.0,0.0,0.0,0.0,0.0,0.0,0.0,0.0,0.0,0.0,0.0,0.0,0.0,0.0,0.0,0.0,0.0,0.0,0.0,0.0,0.0,0.0,0.0,0.0,0.0,0.0,0.0,0.0,0.0,0.0,0.0,0.0,0.0,0.0,0.0,0.0,0.0,0.0,0.0,0.0,0.0,0.0,0.0,0.0,0.0,0.0,0.0,0.0,0.0,0.0,0.0,0.0,0.0,0.0,0.0,0.0,0.0,0.0,0.0,0.0,0.0,0.0,0.0,0.0,0.0,0.0,0.0,0.0,0.0,0.0,0.0,0.0,0.0,0.0,0.0,0.0,0.0,0.0,0.0,0.0,0.0,0.0,0.0,0.0,0.0,0.0,0.0,0.0,0.0,0.0,0.0,0.0,0.0,0.0,0.0,0.0,0.0,0.0,0.0,0.0,0.0,0.0,0.0,0.0,0.0,0.0,0.0,0.0,0.0,0.0,0.0,0.0,0.0,0.0,0.0,0.0,0.0,0.0,0.0,0.0,0.0,0.0,0.0,0.0,0.0,0.0,0.0,0.0,0.0,0.0,0.0,0.0,0.0,0.0,0.0,0.0,0.0,0.0,0.0,0.0,0.0,0.0,0.0,0.0,0.0,0.0,0.0,0.0,0.0,0.0,0.0,0.0,0.0,0.0,0.0,0.0,0.0,0.0,0.0,0.0,0.0,0.0,0.0,0.0,0.0,0.0,0.0,0.0,0.0,0.0,0.0,0.0,0.0,0.0,0.0,0.0,0.0,0.0,0.0,0.0,0.0,0.0,0.0,0.0,0.0,0.0,0.0,0.0,0.0,0.0,0.0,0.0,0.0,0.0,0.0,0.0,0.0,0.0,0.0,0.0,0.0,0.0,0.0,0.0,0.0,0.0,0.0,0.0,0.0,0.0,0.0,0.0,0.0,0.0,0.0,0.0,0.0,0.0,0.0,0.0,0.0,0.0,0.0,0.0,0.0,0.0,0.0,0.0,0.0,0.0,0.0,0.0,0.0,0.0,0.0,0.0,0.0,0.0,0.0,0.0,0.0,0.0,0.0,0.0,0.0,0.0,0.0,0.0,0.0,0.0,0.0,0.0,0.0,0.0,0.0,0.0,0.0,0.0,0.0,0.0,0.0,0.0,0.0,0.0,0.0,0.0,0.0,0.0,0.0,0.0,0.0,0.0,0.0,0.0,0.0,0.0,0.0,0.0,0.0,0.0,0.0,0.0,0.0,0.0,0.0,0.0,0.0,0.0,0.0,0.0,0.0,0.0,0.0,0.0,0.0,0.0,0.0,0.0,0.0,0.0,0.0,0.0,0.0,0.0,0.0,0.0,0.0,0.0,0.0,0.0,0.0,0.0,0.0,0.0,0.0,0.0,0.0,0.0,0.0,0.0,0.0,0.0,0.0,0.0,0.0,0.0,0.0,0.0,0.0,0.0,0.0,0.0,0.0,0.0,0.0,0.0,0.0,0.0,0.0,0.0,-1.5044,-1.1291,0.0,0.0,0.0,0.0,0.0,0.0,0.0,0.0,0.0,0.0,0.0,0.0,0.0,0.0,0.0,0.0,0.0,0.0,0.0,0.0,0.0,0.0,0.0,-0.2534,-0.2966,-0.2922,-0.1757,-0.1042,-0.1042,0.0,0.0,0.0,0.0,0.0,-0.3029,-0.3109,-0.3468,-0.4128,-0.5011,-0.6218,-0.7683,-0.7026,-0.569,-0.3872,0.0,0.0,0.0,0.0,0.0,0.0,0.0,0.0,0.0,0.0,0.0,0.0,0.0,0.0,0.0,0.0,0.0,0.0,0.0,0.0,0.0,0.0,0.0,0.0,0.0,0.0,0.0,0.0,0.0,0.0,0.0,0.0,0.0,0.0,0.0,0.0,0.0,0.0,0.0,0.0,0.0,0.0,0.0,0.0,0.0,0.0,0.0,0.0,0.0,0.0,0.0,0.0,0.0,0.0,0.0,0.0,0.0,0.0,0.0,0.0,0.0,0.0,0.0,0.0,0.0,0.0,0.0,0.0,0.0,0.0,-1.8647,-1.654,0.0,0.0,0.0,0.0,0.0,0.0,0.0,0.0,0.0,0.0,0.0,0.0,0.0,0.0,0.0,0.0,0.0,0.0,0.0,0.0,0.0,-0.3652,-0.3876,-0.2832,-0.2681,-0.4129,-0.1863,-0.0253,-0.0015,0.0,0.0,0.0,0.0,-0.3961,-0.4111,-0.4269,-0.5124,-0.6703,-0.8818,-1.0702,-1.2314,-1.2209,-1.0523,-0.7602,-0.7132,0.0,0.0,0.0,0.0,0.0,0.0,0.0,0.0,0.0,0.0,0.0,0.0,0.0,0.0,0.0,0.0,0.0,0.0,0.0,0.0,0.0,0.0,0.0,0.0,0.0,0.0,0.0,0.0,0.0,0.0,0.0,0.0,0.0,0.0,0.0,0.0,0.0,0.0,0.0,0.0,0.0,0.0,0.0,0.0,0.0,0.0,0.0,0.0,0.0,0.0,0.0,0.0,0.0,0.0,0.0,0.0,0.0,0.0,0.0,0.0,0.0,0.0,0.0,-2.4928,-2.7486,-3.1404,-2.8423,-2.7154,-2.7096,-2.3731,-2.3615,-2.5365,-2.0323,0.0,0.0,0.0,0.0,0.0,0.0,0.0,0.0,0.0,0.0,0.0,0.0,0.0,0.0,0.0,0.0,0.0,0.0,0.0,-0.2666,-0.3771,-0.3071,-0.3369,-0.5456,-0.3247,-0.1235,-0.0074,0.0,0.0,-0.1934,-0.322,-0.4231,-0.493,-0.4974,-0.6203,-0.8718,-1.1192,-1.3103,-1.4391,-1.381,-1.387,-1.4391,-1.2059,-0.9246,-0.6131,0.0,0.0,0.0,0.0,0.0,0.0,0.0,0.0,0.0,0.0,0.0,0.0,0.0,0.0,0.0,0.0,0.0,0.0,0.0,0.0,0.0,0.0,0.0,0.0,0.0,0.0,0.0,0.0,0.0,0.0,0.0,0.0,0.0,0.0,0.0,0.0,0.0,0.0,0.0,0.0,0.0,-1.2982,-1.5216,0.0,0.0,0.0,0.0,0.0,0.0,0.0,0.0,0.0,0.0,0.0,0.0,0.0,-1.8407,-2.1104,-2.3577,-2.6346,-2.9442,-3.3404,-3.55,-3.5827,-3.4673,-3.4538,-3.5,-3.166,0.0,-2.7428,-2.5844,0.0,0.0,0.0,0.0,0.0,0.0,0.0,0.0,0.0,0.0,0.0,0.0,0.0,0.0,0.0,0.0,0.0,0.0,0.0,0.0,0.0,-0.5351,-0.6568,-0.8999,-0.7713,-0.5471,-0.2387,-0.1519,-0.1742,-0.3122,-0.4248,-0.4754,-0.4552,-0.531,-0.7698,-1.1731,-1.4714,-1.7208,-1.9228,-1.8944,-1.9124,-1.9618,-1.845,-1.523,-1.0593,-0.9806,0.0,0.0,0.0,0.0,0.0,0.0,0.0,0.0,0.0,0.0,0.0,0.0,0.0,0.0,0.0,0.0,0.0,0.0,0.0,0.0,0.0,0.0,0.0,0.0,0.0,0.0,0.0,0.0,0.0,0.0,0.0,0.0,0.0,0.0,0.0,0.0,0.0,0.0,0.0,-1.3087,-1.6181,-1.6385,-1.7247,-1.6617,0.0,0.0,0.0,0.0,0.0,0.0,0.0,0.0,0.0,-2.5135,-2.4135,-2.6505,-3.2686,-3.3468,-3.5084,-3.7565,-3.9058,-3.9962,-4.0277,-3.9931,-3.9969,-4.0219,-3.8738,-3.7199,-3.5315,-3.0098,-2.7316,-2.5986,0.0,0.0,0.0,0.0,-1.7946,-1.9754,0.0,0.0,0.0,0.0,0.0,0.0,0.0,0.0,0.0,0.0,0.0,0.0,-0.6309,-0.7776,-0.9599,-1.1865,-1.1306,-0.9441,-0.6138,-0.3991,-0.3418,-0.4686,-0.5453,-0.5531,-0.4836,-0.7175,-1.0752,-1.5561,-1.8506,-2.1141,-2.3452,-2.3452,-2.3452,-2.3452,-2.3452,-2.0318,-1.5023,-1.4694,-1.16,-0.6739,0.0,0.0,0.0,0.0,0.0,0.0,0.0,0.0,0.0,0.0,0.0,0.0,0.0,0.0,0.0,0.0,0.0,0.0,0.0,0.0,0.0,0.0,0.0,0.0,0.0,0.0,0.0,0.0,0.0,0.0,0.0,0.0,0.0,0.0,0.0,0.0,0.0,-1.5795,-1.8977,-1.8192,-2.0365,-2.0496,0.0,0.0,0.0,0.0,0.0,0.0,-2.6222,-2.6549,-2.8626,-3.2852,-3.2442,-3.5257,-4.1747,-4.1516,-4.217,-4.372,-4.2643,-4.2585,-4.3393,-4.3181,-4.3104,-4.3104,-4.3104,-4.2739,-4.1585,-3.4584,-3.1454,-3.0814,-2.8486,-2.6274,-2.4356,-2.3932,-2.4606,-2.5741,0.0,0.0,0.0,0.0,0.0,0.0,0.0,0.0,0.0,0.0,0.0,-0.7872,-0.7812,-0.9624,-1.135,-1.2634,-1.213,-1.164,-1.1416,-0.7465,-0.5531,-0.6427,-0.6529,-0.6607,-0.6754,-1.1766,-1.6338,-2.0344,-2.2368,-2.4073,-2.545,-2.545,-2.545,-2.545,-2.545,-2.2847,-1.8373,-1.71,-1.6024,-1.4614,-0.7884,0.0,0.0,0.0,0.0,0.0,0.0,0.0,0.0,0.0,0.0,0.0,0.0,0.0,0.0,0.0,0.0,0.0,0.0,0.0,0.0,0.0,0.0,0.0,0.0,0.0,0.0,0.0,0.0,0.0,0.0,0.0,0.0,0.0,0.0,0.0,0.0,0.0,0.0,-2.2297,-2.6827,0.0,0.0,0.0,0.0,-2.3898,-2.5351,-2.814,-3.2237,-3.3244,-3.5629,-3.9861,-4.0997,-4.2747,-4.5325,-4.4267,-4.4325,-4.546,-4.3816,-4.3451,-4.4201,-4.3451,-4.3104,-4.3104,-4.3104,-4.3085,-4.2816,-3.995,-3.7815,-3.5904,-3.1808,-2.9621,-2.8588,-2.7005,-2.7962,-3.0192,0.0,0.0,0.0,0.0,0.0,-0.0566,-0.2251,-0.2609,-0.2966,-0.3786,-0.6281,-0.8114,-0.8498,-1.2213,-1.502,-1.5875,-1.6922,-1.6787,-1.5069,-1.1925,-0.9797,-0.9078,-0.8099,-0.8812,-1.1475,-1.5751,-1.9079,-2.1335,-2.3729,-2.536,-2.6243,-2.6243,-2.6243,-2.6243,-2.6243,-2.5091,-2.3056,-2.1705,-1.9298,-1.6159,-1.3737,-1.0579,0.0,0.0,0.0,0.0,0.0,0.0,0.0,0.0,0.0,0.0,0.0,0.0,0.0,0.0,0.0,0.0,0.0,0.0,0.0,0.0,0.0,0.0,0.0,0.0,0.0,0.0,0.0,0.0,0.0,0.0,0.0,0.0,0.0,0.0,0.0,0.0,0.0,-2.5818,-2.864,0.0,-2.7511,-2.914,-3.0179,-2.98,-3.2872,-3.5892,-3.8488,-3.8931,-4.0277,-4.2854,-4.317,-4.4036,-4.5575,-4.521,-4.521,-4.5594,-4.4998,-4.4863,-4.5133,-4.4844,-4.471,-4.471,-4.471,-4.471,-4.4586,-4.3124,-4.1527,-3.9769,-3.7719,-3.6706,-3.6302,-3.5187,-3.5353,-3.6084,0.0,0.0,0.0,0.0,0.0,-0.088,-0.3503,-0.319,-0.3287,-0.5077,-0.743,-0.9543,-1.1116,-1.5168,-1.8125,-1.8967,-2.006,-1.9388,-1.6264,-1.4266,-1.2119,-0.9663,-0.9635,-1.1867,-1.6538,-1.929,-2.1652,-2.3648,-2.5387,-2.6473,-2.6941,-2.6941,-2.6941,-2.6941,-2.6941,-2.6581,-2.5884,-2.4986,-2.2437,-1.8969,-1.817,-1.5072,-1.088,0.0,0.0,0.0,0.0,0.0,0.0,0.0,0.0,0.0,0.0,0.0,0.0,0.0,0.0,0.0,0.0,0.0,0.0,0.0,0.0,0.0,0.0,0.0,0.0,0.0,0.0,0.0,0.0,0.0,0.0,0.0,0.0,0.0,0.0,0.0,-2.7299,-2.8986,-3.1929,-3.3353,-3.2199,-3.393,-3.5334,-3.5853,-3.8815,-4.1181,-4.2566,-4.2643,-4.3297,-4.4682,-4.4575,-4.4844,-4.5594,-4.5594,-4.5594,-4.5594,-4.5594,-4.5594,-4.5594,-4.5594,-4.4979,-4.394,-4.5094,-4.496,-4.3921,-4.4498,-4.4085,-4.297,-4.1816,-4.1381,-4.1304,-4.0777,-4.0585,-4.045,0.0,0.0,0.0,0.0,0.0,-0.0865,-0.3443,-0.3876,-0.4885,-0.7641,-0.9773,-1.2272,-1.5547,-1.8302,-2.0405,-2.1565,-2.1062,-1.9061,-1.5155,-1.4336,-1.2225,-0.8229,-1.1237,-1.5715,-2.1516,-2.2358,-2.4293,-2.7511,-2.7511,-2.7539,-2.76,-2.7615,-2.7615,-2.76,-2.7615,-2.727,-2.6641,-2.6641,-2.548,-2.3475,-2.0876,-1.7915,-1.4866,0.0,0.0,0.0,0.0,0.0,0.0,0.0,0.0,0.0,0.0,0.0,0.0,0.0,0.0,0.0,0.0,0.0,0.0,0.0,0.0,0.0,0.0,0.0,0.0,0.0,0.0,0.0,0.0,0.0,0.0,0.0,0.0,0.0,-2.0646,-2.7101,-3.1872,-3.2006,-3.7084,-3.9938,-3.8315,-4.0412,-4.1885,-4.1885,-4.2701,-4.3528,-4.4297,-4.4239,-4.4566,-4.5421,-4.5441,-4.5441,-4.5441,-4.5556,-4.5594,-4.5594,-4.5594,-4.5594,-4.5594,-4.5594,-4.3786,-4.0843,-4.4171,-4.3728,-4.092,-4.4229,-4.5594,-4.5441,-4.3816,-4.3181,-4.3162,-4.3143,-4.3124,-4.297,0.0,0.0,0.0,0.0,0.0,-0.0566,-0.2264,-0.3309,-0.4355,-0.5611,-0.9169,-1.212,-1.3528,-1.7741,-2.0614,-2.0957,-2.0808,-1.9612,-1.7071,-1.5137,-1.3348,-1.1739,-1.5339,-1.8961,-2.2319,-2.4433,-2.6181,-2.7573,-2.7573,-2.7579,-2.76,-2.8109,-2.8079,-2.7615,-2.8124,-2.7934,-2.733,-2.733,-2.6731,-2.5585,-2.34,-2.0861,-1.8292,0.0,0.0,0.0,0.0,0.0,0.0,0.0,0.0,0.0,0.0,0.0,0.0,0.0,0.0,0.0,0.0,0.0,0.0,0.0,0.0,0.0,0.0,0.0,0.0,0.0,0.0,0.0,0.0,0.0,0.0,0.0,0.0,-2.8527,-2.8558,-3.1962,-3.5596,-3.8654,-4.1008,-4.22,-4.1739,-4.2854,-4.3605,-4.3605,-4.4412,-4.5017,-4.5229,-4.2901,-4.1651,-4.1881,-4.1901,-4.1901,-4.1901,-4.4363,-4.5594,-4.5594,-4.5594,-4.5594,-4.5594,-4.5594,-4.5094,-4.4248,-4.519,-4.5075,-4.4267,-4.521,-4.5594,-4.5556,-4.5094,-4.4921,-4.4844,-4.4201,-4.3605,-4.2797,0.0,0.0,0.0,0.0,0.0,-0.0446,-0.18,-0.3086,-0.4434,-0.5924,-0.9427,-1.2464,-1.4193,-1.8174,-2.0808,-2.1077,-2.0853,-1.9492,-1.6667,-1.4378,-1.4101,-1.6269,-1.882,-2.1595,-2.4646,-2.6473,-2.7725,-2.8394,-2.8686,-2.869,-2.8438,-2.9126,-2.907,-2.8453,-2.8858,-2.8637,-2.8034,-2.8034,-2.7645,-2.6896,-2.5435,-2.3302,-2.0963,-2.1037,-1.9122,-1.647,-1.6873,-1.6557,-1.5624,-1.3648,0.0,0.0,0.0,0.0,0.0,0.0,0.0,0.0,0.0,0.0,0.0,0.0,0.0,0.0,0.0,0.0,0.0,0.0,0.0,0.0,0.0,0.0,0.0,0.0,-2.8406,-3.4045,-3.618,-3.7757,-3.9719,-4.2527,-4.3624,-4.4143,-4.4143,-4.4566,-4.4836,-4.4836,-4.5306,-4.5594,-4.5594,-4.3728,-4.1978,-4.0554,-4.2239,-4.2489,-4.1066,-4.4432,-4.6144,-4.6144,-4.5768,-4.5594,-4.5594,-4.5594,-4.4825,-4.3536,-4.4979,-4.4786,-4.3574,-4.5017,-4.5594,-4.5594,0.0,0.0,0.0,0.0,-4.4316,-4.3393,0.0,0.0,0.0,0.0,0.0,-0.0446,-0.18,-0.3086,-0.4846,-0.7491,-1.0146,-1.301,-1.6188,-1.8947,-2.0842,-2.1425,-2.0718,-1.8702,-1.5063,-1.3071,-1.4683,-2.0652,-2.1553,-2.3652,-2.7326,-2.8209,-2.8929,-2.9509,-3.0267,-3.035,-2.9845,-3.0438,-3.036,-2.9699,-2.9693,-2.9325,-2.8712,-2.8637,-2.8248,-2.766,-2.706,-2.5325,-2.3227,-2.3912,-2.2665,-2.0559,-2.0805,-2.0385,-1.9386,-1.7208,0.0,0.0,0.0,0.0,0.0,0.0,0.0,0.0,0.0,0.0,0.0,0.0,0.0,0.0,0.0,0.0,0.0,0.0,0.0,0.0,0.0,0.0,0.0,0.0,-3.2462,-3.7962,-4.2585,-4.3316,-4.3643,-4.4355,-4.5133,-4.5594,-4.5594,-4.5594,-4.5594,-4.5594,-4.5594,-4.5633,-4.5748,0.0,0.0,0.0,0.0,-4.5,-4.1981,-4.5327,-4.7038,-4.7019,-4.624,-4.5825,-4.5748,-4.5748,-4.4036,-4.1247,-4.4286,-4.3882,-4.1304,-4.4344,-4.5594,-4.5594,-4.5594,-4.5594,-4.5575,-4.5287,-4.4855,-4.4412,0.0,0.0,0.0,0.0,0.0,-0.0446,-0.18,-0.3086,-0.4891,-0.7676,-1.0247,-1.2898,-1.5802,-1.8379,-1.9962,-2.0082,-1.8491,-1.6758,-1.5057,-1.4003,-1.5646,-2.0682,-2.241,-2.4335,-2.6705,-2.8488,-2.9437,-2.9577,-3.0791,-3.1334,-3.1227,-3.1357,-3.1042,-3.0402,-3.0347,-2.9983,-2.9355,-2.8831,-2.8532,-2.8389,-2.8207,-2.722,-2.5858,-2.5953,-2.5347,-2.452,-2.5432,-2.531,-2.4414,-2.2531,-2.1498,-2.0856,-1.9972,0.0,0.0,0.0,0.0,0.0,0.0,0.0,0.0,0.0,0.0,0.0,0.0,0.0,0.0,0.0,0.0,0.0,0.0,0.0,0.0,-3.2571,-3.7738,-4.22,-4.3835,-4.4662,-4.5171,-4.5325,-4.5498,-4.5594,-4.5594,-4.5594,-4.5594,-4.5594,-4.5594,-4.5913,-4.6605,-4.4028,-4.2547,-4.2604,-4.3393,-4.3528,-4.2854,-4.6201,-4.7875,-4.7875,0.0,0.0,-4.6644,-4.6644,-4.5893,-4.4652,-4.5306,-4.5229,-4.4671,-4.5325,-4.5594,-4.5594,-4.5594,-4.5594,-4.5344,-4.3297,-4.372,-4.5056,0.0,0.0,0.0,0.0,-0.1088,-0.1968,-0.1994,-0.3086,-0.461,-0.6589,-0.8593,-1.0964,-1.3936,-1.5447,-1.6653,-1.7656,-1.6219,-1.5709,-1.6789,-1.6788,-1.8691,-2.3062,-2.4432,-2.5719,-2.7076,-2.8404,-2.9429,-3.0099,-3.1102,-3.1933,-3.2592,-3.2606,-3.2243,-3.159,-3.1585,-3.0988,-2.9998,-2.937,-2.8906,-2.8558,-2.8207,-2.7844,-2.7614,-2.8193,-2.7966,-2.7465,-2.8288,-2.7888,-2.6753,-2.5476,-2.456,-2.3818,-2.3086,-2.1693,-1.9929,0.0,0.0,0.0,0.0,0.0,0.0,0.0,0.0,0.0,0.0,0.0,0.0,0.0,0.0,-2.6484,0.0,0.0,-3.347,-3.575,-3.8969,-4.2085,-4.4613,-4.5325,-4.5594,-4.5594,-4.5594,-4.5594,-4.5594,-4.5594,-4.5787,-4.622,-4.624,-4.6624,-4.7471,-4.5893,-4.4374,-4.3143,-4.5143,-4.5432,-4.372,-4.7067,-4.8759,-4.8759,-4.8317,-4.7894,-4.7509,-4.7509,-4.7048,-4.624,-4.624,-4.599,-4.5594,-4.5594,-4.5594,-4.5594,-4.5594,-4.5594,-4.546,-4.4162,-4.4509,-4.5421,0.0,0.0,0.0,0.0,-0.2103,-0.3465,-0.252,-0.3214,-0.4344,-0.571,-0.7182,-0.9191,-1.21,-1.2636,-1.331,-1.4554,-1.4124,-1.5023,-1.7954,-1.9226,-2.1605,-2.5435,-2.6363,-2.7095,-2.7745,-2.8585,-2.9633,-3.0973,-3.1659,-3.2619,-3.3786,-3.3547,-3.3119,-3.2586,-3.2465,-3.1744,-3.0657,-3.0028,-2.9385,-2.8753,-2.8314,-2.8369,-2.8803,-3.0016,-3.0034,-2.9464,-2.9933,-2.9108,-2.7705,-2.7114,-2.6336,-2.5524,-2.5083,-2.5012,-2.4367,-2.0558,-2.0696,0.0,0.0,0.0,0.0,0.0,0.0,0.0,0.0,0.0,-2.5467,-2.5598,-2.8389,-3.0753,-3.0484,-3.2371,-3.5149,-3.8654,-3.995,-4.1708,-4.5114,-4.5594,-4.5594,-4.5594,-4.5594,-4.5594,-4.5594,-4.5594,-4.5951,-4.6827,-4.6904,-4.7336,-4.8298,-4.8355,-4.7182,-4.4662,-4.7875,-4.8336,-4.5566,-4.8279,-4.9644,-4.9644,-4.8933,-4.8529,-4.8355,-4.8355,-4.7913,-4.7115,-4.6962,-4.6509,-4.5845,-4.5671,-4.5594,-4.5594,-4.5594,-4.5594,-4.5594,-4.5594,-4.5594,-4.5594,0.0,0.0,0.0,0.0,-0.187,-0.3445,-0.3663,-0.3708,-0.4496,-0.6643,-0.8011,-0.9625,-1.1824,-1.2502,-1.2201,-1.0692,-1.2553,-1.4453,-1.6009,-1.8927,-2.2078,-2.5442,-2.6821,-2.7769,-2.8391,-2.9691,-3.0993,-3.2276,-3.3029,-3.3756,-3.4455,-3.3261,-3.2668,-3.2559,-3.1938,-3.1552,-3.1346,-3.0687,-3.0043,-2.9507,-2.992,-2.9782,-2.9429,-3.0638,-3.071,-3.0158,-3.0118,-2.9108,-2.779,-2.7705,-2.6742,-2.571,-2.6268,-2.603,-2.5273,-2.3929,0.0,-2.0272,-1.7416,-1.5325,-1.4639,-1.7417,-2.0437,-2.3446,0.0,0.0,-3.3989,-3.3591,-3.69,-3.9929,-4.0183,-4.1673,-4.3038,-4.3528,-4.4325,-4.5056,-4.5537,-4.5594,-4.5594,-4.5594,-4.5594,-4.5594,-4.5594,-4.5594,-4.5951,-4.6827,-4.6904,-4.7586,-4.9163,-4.924,-4.9433,-4.9846,-5.0308,-5.0366,-5.0,-5.0366,-5.0558,-5.0558,-5.0462,-4.999,-4.924,-4.924,-4.8779,-4.7932,-4.7212,-4.6827,-4.6701,-4.5913,-4.5594,-4.5594,-4.5594,-4.5594,-4.5594,-4.5594,-4.5594,-4.5594,0.0,0.0,-0.0404,-0.1691,-0.2171,-0.2692,-0.3632,-0.3769,-0.4252,-0.5633,-0.5921,-0.6916,-0.9351,-1.016,-0.9893,-0.8289,-1.0538,-1.3121,-1.5649,-1.8882,-2.2168,-2.5465,-2.6896,-2.771,-2.7968,-2.9283,-3.0399,-3.1342,-3.1997,-3.2684,-3.3357,-3.2845,-3.2179,-3.1446,-3.1532,-3.1107,-3.0357,-2.9684,-2.9433,-2.9516,-2.9354,-2.9564,-2.9929,-2.9996,-2.9838,-2.9348,-2.7972,-2.6522,0.0,-2.5253,-2.4527,-2.4036,-2.6065,-2.5368,-2.3847,-2.4108,-2.2694,0.0,-2.1114,-2.1437,-2.2069,0.0,-2.7273,-3.0962,-3.1794,-3.4932,-3.7785,-3.8241,-4.0739,-4.2899,-4.3197,-4.2624,-4.2747,0.0,-4.369,-4.3324,-4.5325,-4.5594,-4.5594,-4.5594,-4.3844,-4.2632,-4.2632,-4.4893,-4.5893,-4.4778,-4.6971,-4.8875,-5.0087,-5.0173,-5.0327,-5.0693,-5.0712,-5.0712,-5.0712,-5.0712,-5.0712,-5.0712,-5.0712,-5.0519,-5.0173,-5.0173,-4.9683,-4.8817,-4.7971,-4.7336,-4.6865,-4.6509,-4.6067,-4.5594,-4.5594,-4.5594,-4.5594,-4.5594,-4.5594,-4.5594,0.0,-0.0909,-0.1413,-0.3016,-0.265,-0.2483,-0.3485,-0.37,-0.3956,-0.4528,-0.4349,-0.4918,-0.6865,-0.7846,-0.7884,-0.6727,-0.9185,-1.2138,-1.5319,-1.8597,-2.1814,-2.4911,-2.6497,-2.739,-2.7573,-2.8681,-2.9666,-3.05,-3.0777,-3.1258,-3.1969,-3.1836,-3.1236,-3.0366,-3.0821,-3.0498,-2.9577,-2.9071,-2.9117,-2.9463,-2.9145,-2.9409,-2.9935,-2.935,-2.8559,-2.7537,-2.5879,-2.4371,-2.3107,-2.2683,-2.2395,-2.248,-2.4164,-2.3588,-2.2449,-2.3156,-2.21,-2.1097,-2.3015,-2.4979,0.0,-2.8393,-3.2577,-3.6303,-3.6343,-3.8278,-4.0337,-4.1343,-4.2902,-4.4202,-4.4591,-4.3151,-4.2728,-4.521,-4.3517,-4.2766,-4.5248,-4.5594,-4.5344,-4.4643,-4.2374,-4.0123,-3.8245,-4.2354,-4.4951,-4.4509,-4.7317,-4.9529,-5.0635,-5.0712,-5.0712,-5.0712,-5.0712,-5.0712,-5.0712,-5.0712,-5.0712,-5.0712,-5.0712,-5.0712,-5.0712,-5.0712,-5.0366,-4.9702,-4.8836,-4.8125,-4.7548,-4.7077,-4.6528,-4.5932,-4.5691,-4.5594,-4.5594,-4.5594,-4.5594,-4.5594,0.0,0.0,-0.3218,-0.3294,-0.3268,-0.3306,-0.3475,-0.3565,-0.3662,-0.3815,-0.4445,-0.4897,-0.4987,-0.6164,-0.6682,-0.5993,-0.8908,-1.1944,-1.4648,-1.7911,-2.0921,-2.355,-2.5555,-2.6901,-2.7488,-2.8243,-2.9235,-3.05,-2.994,-3.0004,-3.0637,-3.0008,-2.9678,-2.9633,-2.9648,-2.9621,-2.9606,-2.9592,-2.9542,-2.9543,-3.0101,-2.9889,-2.9217,-2.9057,-2.7182,-2.4626,-2.4558,-2.3709,-2.239,-2.0906,-2.1068,-2.1639,-2.0105,-2.0639,0.0,-2.1404,-2.0372,-1.973,-2.1408,0.0,-2.4455,-2.9928,-3.3807,-3.6909,-3.9221,-4.1018,-4.2398,-4.3087,-4.3945,-4.4768,-4.5447,-4.5498,-4.5479,-4.5575,-4.5518,-4.5479,-4.5594,-4.5594,-4.4682,-4.222,-4.1808,-3.9173,0.0,-3.7257,-4.2701,-4.7586,-4.8067,-4.8894,-5.0616,-5.0712,-5.0712,-5.0712,-5.0712,-5.0712,-5.0712,-5.0712,-5.0712,-5.0712,-5.0712,-5.0712,-5.0712,-5.0712,-5.0693,-5.0616,-4.974,-4.9356,-4.9202,-4.7567,-4.6885,-4.6778,-4.5932,-4.5594,-4.5594,-4.5594,-4.5594,-4.5594,0.0,0.0,0.0,-0.3306,-0.3306,-0.3311,-0.3357,-0.3457,-0.3592,-0.3771,-0.4061,0.0,0.0,0.0,0.0,0.0,-0.799,-0.9994,-1.2643,-1.5515,-1.848,-2.1545,-2.3999,-2.5573,-2.6228,-2.7306,-2.8084,-2.8519,-2.9194,-2.9433,-2.9208,-2.9489,-2.9142,-2.8289,-2.8727,-2.8682,-2.8274,-2.8274,-2.8505,-2.8845,-2.8953,-2.9092,-2.8969,-2.6841,-2.5083,-2.3391,0.0,-1.8825,-1.8086,-1.7552,-1.7706,-1.8364,-1.9765,0.0,0.0,-1.6233,-1.8718,-2.1987,-2.3088,0.0,-3.0889,-3.3899,-3.7496,-4.0487,-4.1313,-4.2498,-4.3336,-4.302,-4.1682,-4.0482,-4.0281,-3.8952,-3.8681,-4.1038,-4.0008,-4.0469,-4.4979,-4.172,-4.0258,-4.3893,-4.0354,0.0,0.0,0.0,0.0,-4.145,-4.6105,-4.9471,-5.0635,-5.0712,-5.0712,-5.0712,-5.0712,-5.0712,-5.0712,-5.0712,-5.0712,-5.0712,-5.0712,-5.0712,-5.0712,-5.0712,-5.0712,-5.0673,-5.0385,-4.9933,-4.9356,-4.8798,-4.8221,-4.7605,-4.6797,-4.6471,-4.6394,-4.5806,-4.5594,-4.5594,0.0,0.0,0.0,0.0,0.0,0.0,0.0,0.0,0.0,0.0,0.0,0.0,0.0,0.0,0.0,0.0,0.0,0.0,-1.1296,-1.3493,-1.5889,-1.8493,-2.0868,-2.2269,-2.251,-2.4332,-2.5339,-2.5493,-2.718,-2.7819,-2.7461,-2.7956,-2.7694,-2.6886,-2.7335,-2.729,-2.6896,-2.6896,-2.735,-2.7964,-2.6788,-2.6821,-2.7141,-2.3794,-2.1884,0.0,-1.7433,-1.5822,-1.5183,-1.5183,-1.5742,-1.6628,-1.7666,-1.6756,-1.55,-1.6483,-1.9932,-2.4043,-2.6869,-3.1091,-3.5293,-3.7826,-4.0598,-4.2727,-4.2727,-4.3072,-4.3197,-4.2507,-4.0735,-3.8856,-3.7347,-3.5919,-3.5928,-3.8827,-3.793,-3.9008,-4.5201,-4.2047,-4.0508,-4.4259,-4.0873,-3.945,0.0,0.0,0.0,-4.0008,-4.4643,-4.7952,-4.8826,-4.8884,-4.9442,-5.0654,-5.0712,-5.0712,-5.0712,-5.0712,-5.0712,-5.0712,-5.0712,-5.0712,-5.0712,-5.0712,-5.0212,-4.9394,-5.0308,-4.9875,-4.8548,-4.9144,-4.9067,-4.8452,-4.7336,-4.6904,-4.6797,-4.5913,-4.5594,-4.5594,0.0,0.0,0.0,0.0,0.0,0.0,0.0,0.0,0.0,0.0,0.0,0.0,0.0,0.0,0.0,0.0,0.0,0.0,-1.0529,-1.1939,-1.3298,-1.4646,-1.6518,-1.7374,-1.7,-1.9668,-2.1246,-2.1637,-2.3825,-2.5018,-2.5211,-2.5211,-2.5211,-2.5211,-2.5234,-2.5219,-2.5219,-2.5219,-2.5865,-2.663,-2.3785,-2.3274,-2.3885,-2.0196,-1.7924,-1.6597,-1.5774,-1.4805,-1.3906,-1.3906,0.0,0.0,0.0,0.0,0.0,-2.1593,-2.3749,-2.5952,-3.2027,-3.511,-3.7533,-4.1405,-4.2928,-4.3496,-4.346,-4.2818,-4.2051,-4.1337,-4.0639,-3.9199,0.0,0.0,-3.6558,-3.8527,-3.8842,-4.0662,-4.5913,-4.5778,-4.4652,0.0,0.0,0.0,0.0,0.0,0.0,-4.3239,0.0,-4.4932,-4.5806,-4.5864,-4.7345,-5.0596,-5.0712,-5.0712,-5.0712,-5.0712,-5.0712,-5.0712,-5.0712,-5.0712,-5.0712,-5.0712,-4.9375,-4.724,-4.9644,-4.9336,-4.7221,-4.8817,-4.9471,-4.9298,-4.7682,-4.7,-4.6855,-4.599,-4.5633,-4.5594,0.0,0.0,0.0,0.0,0.0,0.0,0.0,0.0,0.0,0.0,0.0,0.0,0.0,0.0,0.0,0.0,0.0,0.0,-0.8611,-1.0324,-1.191,-1.3253,-1.4737,-1.5934,-1.6758,-1.7496,-1.7918,-1.8033,-1.9125,-1.9662,-1.9717,-1.9863,-1.9935,-1.9935,-2.0045,-2.01,-2.01,-2.01,-2.0601,-2.1321,-2.04,-2.0576,-2.1066,-1.8296,-1.7037,-1.6462,-1.4623,-1.3933,0.0,0.0,0.0,0.0,0.0,-2.1216,-2.2042,0.0,0.0,-3.0693,-3.1733,-3.6303,-4.1167,-4.2782,-4.3349,-4.3332,-4.2745,-4.1992,-4.037,-3.6693,-3.3442,-2.9988,0.0,0.0,0.0,-3.1853,-3.2673,0.0,-4.2115,-4.0719,0.0,-4.2777,0.0,-4.3739,-4.5374,-4.7086,0.0,0.0,-4.6547,-4.8471,-4.9346,-4.9404,-4.9808,-5.0673,-5.0712,-5.0712,-5.0712,-5.0712,-5.0712,-5.0712,-5.0712,-5.0712,-5.0712,-5.0712,-5.0346,-4.976,-5.0423,-5.0327,-4.976,-5.0192,-5.0366,-5.0269,-4.9183,-4.8375,-4.7702,-4.6874,-4.6163,-4.5594,0.0,0.0,0.0,0.0,0.0,0.0,0.0,0.0,0.0,0.0,0.0,0.0,0.0,0.0,0.0,0.0,0.0,0.0,0.0,-0.9195,-1.0168,-1.0627,-1.1647,-1.2434,-1.2927,-1.3913,-1.4493,-1.4681,-1.6113,-1.6969,-1.7264,-1.7469,-1.7667,-1.7876,-1.7941,-1.8052,-1.8161,-1.8161,-1.8625,0.0,0.0,-1.7824,-1.8439,-1.5782,-1.4962,-1.509,-1.3853,0.0,0.0,0.0,0.0,-2.0519,-2.44,-2.5941,-2.6631,-2.822,0.0,-3.4963,-3.5917,-3.9423,-4.2928,-4.3404,-4.3222,-4.2396,-4.0175,-3.879,-3.6513,-3.1334,-2.8319,0.0,-2.1312,-2.1031,0.0,0.0,0.0,0.0,-4.1354,-4.0385,-4.0104,0.0,-4.3624,0.0,-4.8336,-4.9452,-4.9163,0.0,-4.749,-4.7961,-4.8442,-4.8461,-4.9154,-5.0654,-5.1029,-5.1414,-5.1779,-5.1798,-5.1606,-5.1221,-5.1221,-5.1029,-5.0712,-5.0712,-5.0096,-4.9086,-5.0212,-5.0077,-4.9125,-5.025,-5.0712,-5.0616,-4.974,-4.9106,-4.8529,-4.7336,-4.6586,-4.6124,0.0,0.0,0.0,0.0,0.0,0.0,0.0,0.0,0.0,0.0,0.0,0.0,0.0,0.0,0.0,0.0,0.0,0.0,0.0,0.0,-0.8537,-0.8049,-0.8507,-0.8591,-0.8237,-1.0064,-1.1205,-1.157,-1.365,-1.4972,-1.556,-1.5743,-1.606,-1.6518,-1.6518,-1.6635,-1.6895,-1.6987,-1.7474,-1.7993,-1.5483,-1.5191,-1.5987,0.0,-1.2846,0.0,0.0,0.0,0.0,0.0,-2.2091,-2.218,-2.8106,-3.0124,-3.1225,-3.595,-3.7731,-3.8686,-4.1148,-4.2635,-4.3515,-4.3515,-4.2892,-4.1295,-3.7496,-3.5151,-3.2213,-2.652,0.0,-2.3278,-2.0175,-2.0733,-2.3755,-3.016,0.0,-3.4968,-4.0912,-4.1873,-4.2431,-4.3643,-4.4201,-4.5817,-4.924,-4.9846,-5.0212,-5.0673,-4.7961,-4.6287,-4.6287,-4.6287,-4.7634,-5.0616,-5.1491,-5.225,-5.3029,-5.3145,-5.275,-5.1904,-5.1904,-5.1491,-5.0712,-5.0712,-4.949,-4.7528,-4.974,-4.9452,-4.7586,-4.9779,-5.0712,-5.0616,-4.9875,-4.949,-4.9202,-4.7644,-4.6981,-4.6778,0.0,0.0,0.0,0.0,0.0,0.0,0.0,0.0,0.0,0.0,-0.5339,-0.5967,0.0,0.0,0.0,0.0,0.0,0.0,0.0,0.0,0.0,-0.871,-0.8312,-0.8341,-0.8903,-0.8659,0.0,0.0,0.0,-0.937,-0.9602,-0.9635,-0.9859,-1.0263,-1.0263,-1.0354,-1.0542,-1.1152,-1.1842,-1.2539,-1.269,-1.3227,-1.3921,-1.3396,0.0,0.0,0.0,0.0,0.0,0.0,-2.3675,-2.5778,-3.2816,-3.5954,-3.6945,-3.6597,-3.8854,-4.1148,-3.9717,-4.1368,-4.3515,-4.3515,-4.2892,-4.1589,-3.8909,-3.5454,0.0,0.0,-2.2502,-2.0091,-1.8393,-2.0542,-2.3894,-2.7909,0.0,0.0,0.0,0.0,-4.245,0.0,0.0,0.0,0.0,0.0,0.0,0.0,-5.0154,-4.9827,-4.9827,-4.9827,-5.0096,-5.0673,-5.1491,-5.1962,-5.2115,-5.2837,-5.275,-5.1904,-5.1904,-5.1491,-5.0712,-5.0712,-5.0462,-5.0077,-5.0519,-5.0462,-5.0077,-5.0519,-5.0712,-5.0693,-5.0539,-5.0029,-4.9279,-4.8259,-4.7471,-4.6778,0.0,0.0,0.0,0.0,0.0,0.0,0.0,-0.4237,-0.4643,-0.5502,-0.6173,-0.6625,-0.6737,-0.6834,-0.7167,0.0,0.0,0.0,0.0,0.0,0.0,0.0,0.0,-0.8086,0.0,0.0,0.0,0.0,0.0,0.0,0.0,0.0,0.0,0.0,0.0,0.0,0.0,-1.0278,-1.0915,0.0,0.0,0.0,0.0,0.0,0.0,0.0,0.0,0.0,0.0,0.0,-2.1174,-2.3869,-3.3311,-3.7679,-3.8927,-3.689,-3.9148,-4.1772,-3.9368,-4.1038,-4.3515,-4.3515,-4.2268,-3.9643,-3.4247,0.0,0.0,0.0,-1.7255,-1.6337,-1.5681,0.0,0.0,0.0,0.0,0.0,0.0,0.0,0.0,0.0,0.0,0.0,0.0,0.0,-4.6287,-4.7922,-4.8057,-4.8826,-5.0596,-5.0712,-5.0894,-5.1318,-5.2145,-5.2799,-5.326,-5.3664,-5.3433,-5.2558,-5.2115,-5.1491,-5.0712,-5.0712,-5.0712,-5.0712,-5.0712,-4.9952,-4.8836,-5.0154,-4.9913,-4.8856,-5.0192,-5.0442,-4.9913,-4.8586,-4.7855,-4.7336,0.0,0.0,0.0,0.0,0.0,0.0,0.0,-0.4728,-0.5324,-0.6105,-0.6649,-0.685,-0.6519,-0.6827,-0.721,0.0,0.0,0.0,0.0,0.0,0.0,0.0,0.0,0.0,0.0,0.0,0.0,0.0,0.0,0.0,0.0,0.0,0.0,0.0,0.0,0.0,0.0,0.0,0.0,0.0,0.0,0.0,0.0,0.0,0.0,0.0,0.0,0.0,0.0,0.0,-1.8213,-2.0926,-3.0454,-3.533,-3.7349,-3.6321,-3.8505,-4.1001,-3.9808,-4.1442,-4.3515,-4.3515,-4.1697,-3.7955,-3.0522,-2.7093,0.0,0.0,-1.3672,-1.4019,-1.4566,0.0,-1.8517,0.0,0.0,0.0,0.0,0.0,0.0,0.0,0.0,0.0,0.0,0.0,0.0,-4.6633,-4.6691,-4.7865,-5.0558,-5.0712,-5.0991,-5.1625,-5.2664,-5.353,-5.4203,-5.4414,-5.4068,-5.3203,-5.2308,-5.1491,-5.0712,-5.0712,-5.0712,-5.0712,-5.0712,-4.924,-4.7105,-4.9644,-4.9202,-4.7163,-4.9702,-5.0712,-5.05,-4.874,-4.8105,-4.7855,0.0,0.0,0.0,0.0,0.0,0.0,0.0,-0.4518,-0.477,-0.6344,-0.6352,-0.6181,-0.6142,-0.6976,-0.7344,0.0,0.0,0.0,0.0,0.0,0.0,0.0,0.0,0.0,0.0,0.0,0.0,0.0,0.0,0.0,0.0,0.0,0.0,0.0,0.0,0.0,0.0,0.0,0.0,0.0,0.0,0.0,0.0,0.0,0.0,0.0,0.0,0.0,0.0,0.0,0.0,-1.9724,-2.3134,-2.6877,-3.0675,-3.4105,0.0,0.0,-4.124,-4.2708,-4.3515,-4.3515,-4.1697,-3.8542,-3.3335,0.0,0.0,-1.8808,-1.607,-1.5324,-1.7695,-1.8945,-2.1144,0.0,0.0,-2.7745,0.0,0.0,0.0,0.0,0.0,0.0,0.0,0.0,0.0,-5.0,-5.0231,-5.0366,-5.0673,-5.0712,-5.0731,-5.0808,-5.2356,-5.3241,-5.3318,-5.4107,-5.4068,-5.3203,-5.2308,-5.1491,-5.0712,-5.0712,-5.0712,-5.0712,-5.0712,-4.924,-4.7105,-4.9644,-4.9202,-4.7163,-4.9702,-5.0712,-5.05,-4.874,-4.8105,-4.7855,0.0,0.0,0.0,0.0,0.0,0.0,-0.4343,-0.4256,-0.4589,-0.5951,-0.6002,-0.5922,-0.5922,-0.6379,-0.6554,-0.619,0.0,0.0,0.0,0.0,0.0,0.0,0.0,0.0,0.0,0.0,0.0,0.0,0.0,0.0,0.0,0.0,0.0,0.0,0.0,0.0,0.0,0.0,0.0,0.0,0.0,0.0,0.0,0.0,0.0,0.0,0.0,0.0,0.0,0.0,0.0,0.0,-1.6688,-1.8592,0.0,0.0,-3.1684,-3.6064,-3.6395,-3.99,-4.3386,-4.2892,-4.0965,-3.7386,-3.0546,0.0,-2.2895,-1.6589,-1.4909,-1.4899,-1.5945,-1.6532,-1.8083,-2.1877,-2.2315,-2.4797,-3.2365,0.0,0.0,0.0,0.0,0.0,0.0,0.0,-4.6172,-4.7538,-4.7634,-4.8538,-5.0596,-5.0712,-5.0712,-5.0712,-5.1818,-5.2423,-5.2423,-5.275,-5.276,-5.2404,-5.1568,-5.101,-5.0712,-5.0712,-5.0712,-5.0712,-5.0712,-4.8375,-4.4932,-4.9009,-4.8298,-4.5028,-4.9106,-5.0712,-5.05,-4.874,-4.8105,-4.7855,0.0,0.0,0.0,0.0,0.0,-0.3474,-0.4012,-0.41,-0.4457,-0.5438,-0.5563,-0.5563,-0.5563,-0.5572,-0.5511,-0.5366,-0.6103,0.0,0.0,0.0,0.0,0.0,0.0,0.0,0.0,0.0,0.0,0.0,0.0,0.0,0.0,0.0,0.0,0.0,0.0,0.0,0.0,0.0,0.0,0.0,0.0,0.0,0.0,0.0,0.0,0.0,0.0,0.0,0.0,0.0,0.0,0.0,0.0,0.0,0.0,0.0,-2.7684,-3.2931,-3.3243,-3.7973,-4.2653,-4.2084,-3.9588,-3.5385,0.0,-2.4795,-2.1235,-1.4658,-1.393,-1.4493,-1.4493,-1.4603,-1.5913,-1.9624,-2.0495,-2.3446,-3.1276,-3.3837,0.0,0.0,0.0,0.0,0.0,-4.6806,-4.7114,-4.7114,-4.7114,-4.8153,-5.0577,-5.0712,-5.0712,-5.0712,-5.1491,-5.1904,-5.1904,-5.1904,-5.1904,-5.1885,-5.1087,-5.0308,-4.9606,-5.0366,-5.0289,-4.9625,-5.0366,-4.824,-4.4566,-4.8913,-4.8144,-4.4662,-4.899,-5.0712,-5.05,-4.874,-4.8105,-4.7855,0.0,0.0,0.0,0.0,0.0,0.0,-0.4012,-0.41,-0.4319,-0.4934,-0.501,-0.501,-0.501,-0.4605,-0.4315,-0.4321,-0.5231,0.0,0.0,0.0,0.0,0.0,0.0,0.0,0.0,0.0,-0.8237,-0.8905,-0.8905,0.0,0.0,0.0,0.0,0.0,0.0,0.0,0.0,0.0,0.0,0.0,0.0,0.0,0.0,0.0,0.0,0.0,0.0,0.0,0.0,0.0,0.0,0.0,0.0,0.0,0.0,0.0,-2.5309,-2.8925,-3.3757,-3.8031,-4.1113,-4.1113,-3.7459,-3.2577,0.0,-2.3465,-1.9153,-1.4309,-1.393,-1.4493,-1.4493,-1.4603,-1.6087,-2.0289,-2.1662,-2.4268,-3.0268,-3.252,0.0,0.0,0.0,0.0,0.0,-4.9625,-5.0654,-5.0654,-5.0654,0.0,-5.0712,-5.0712,-5.0712,-5.0712,-5.1491,-5.1904,-5.1904,-5.1904,-5.1904,-5.1885,-5.1087,-4.9375,-4.7019,-4.9548,-4.9317,-4.7077,-4.9606,-4.924,-4.7067,-4.9644,-4.9183,-4.7124,-4.9683,-5.0712,-5.05,-4.874,-4.8105,-4.7855,0.0,0.0,0.0,0.0,0.0,0.0,0.0,-0.355,-0.3751,-0.4312,-0.4387,-0.4544,-0.4959,-0.4497,-0.4234,-0.4413,-0.485,0.0,0.0,0.0,0.0,0.0,0.0,0.0,0.0,0.0,-0.8004,-0.8222,-0.8222,-0.8591,-0.9303,0.0,0.0,0.0,0.0,0.0,0.0,0.0,0.0,0.0,0.0,0.0,0.0,0.0,0.0,0.0,0.0,0.0,0.0,0.0,0.0,0.0,0.0,0.0,0.0,-1.6346,0.0,0.0,-2.5419,-2.8943,-3.1751,-3.0632,-2.9212,-2.6935,-2.2602,-2.0611,-1.861,-1.4885,-1.431,-1.4493,-1.4493,-1.4603,-1.623,-2.0867,-2.1905,-2.4568,0.0,0.0,0.0,0.0,0.0,0.0,0.0,0.0,-4.8192,-5.0519,-4.8538,-4.823,-5.0577,-5.0712,-5.0712,-5.0712,-5.0952,-5.1087,-5.1087,-5.1087,-5.1087,-5.1087,-5.0827,-4.9375,-4.6981,-4.9529,-4.9298,-4.7038,-4.9586,-4.924,-4.7105,-4.9644,-4.9202,-4.7163,-4.9702,-5.0712,-5.05,-4.874,-4.8105,-4.7855,0.0,0.0,0.0,0.0,0.0,0.0,0.0,-0.3306,-0.3487,-0.4025,-0.393,-0.4103,-0.4909,-0.4331,-0.4017,-0.4389,-0.4416,0.0,0.0,0.0,0.0,0.0,0.0,0.0,-0.6267,-0.7346,-0.8019,-0.8282,-0.8282,-0.8583,-0.9158,-0.9196,-0.9484,0.0,0.0,0.0,0.0,0.0,0.0,0.0,0.0,0.0,0.0,0.0,0.0,0.0,0.0,0.0,0.0,0.0,0.0,0.0,0.0,0.0,0.0,0.0,-1.6053,-1.8225,0.0,-2.3593,-2.6201,-2.5209,-2.4016,-2.2345,-1.9499,-1.8133,-1.683,-1.4517,-1.4769,-1.5221,-1.4603,-1.5071,-1.6509,-1.9527,-2.1631,-2.4723,0.0,0.0,0.0,0.0,0.0,0.0,0.0,-4.8576,-4.8403,-5.0539,-4.873,-4.8461,-5.0596,-5.0712,-5.0712,-5.0712,-5.0712,-5.0712,-5.0712,-5.0712,-5.0712,-5.0712,-5.0712,-4.9375,-4.6981,-4.9529,-4.9298,-4.7038,-4.9586,-4.9798,0.0,-5.0058,-4.976,-4.849,-5.0077,-5.05,-5.0029,-4.8625,-4.7913,-4.7451,0.0,0.0,0.0,0.0,0.0,0.0,0.0,-0.3306,-0.3487,-0.4025,-0.3633,-0.3723,-0.4821,-0.4067,-0.3695,-0.4203,0.0,0.0,0.0,0.0,0.0,0.0,0.0,0.0,-0.6891,-0.7563,-0.8207,-0.883,-0.8875,-0.8905,-0.8913,-0.9079,-0.9071,-0.8913,-0.9026,0.0,0.0,0.0,0.0,0.0,0.0,0.0,0.0,0.0,0.0,0.0,0.0,0.0,0.0,0.0,0.0,0.0,0.0,0.0,0.0,0.0,0.0,0.0,0.0,-2.106,0.0,-2.3345,-2.1096,-1.8673,-1.7931,-1.6071,0.0,-1.3684,-1.5337,-1.6468,-1.5025,-1.6065,-1.7202,-1.7312,-2.1336,0.0,0.0,0.0,0.0,0.0,0.0,0.0,-4.8759,-5.0077,-5.0712,-5.0712,-5.0712,-5.0712,-5.0712,-5.0712,-5.0712,-5.0712,-5.0712,-5.0712,-5.0712,-5.0712,-5.0616,-5.0442,-5.0616,-4.926,-4.6712,-4.9452,-4.9298,-4.7038,-4.9586,-5.0712,-5.0712,-5.0712,-5.0712,-5.0712,-5.0712,-5.0173,-4.9298,-4.8413,-4.7586,-4.6778,0.0,0.0,0.0,0.0,0.0,0.0,0.0,0.0,0.0,0.0,-0.3633,-0.3554,-0.4236,-0.3737,-0.3438,0.0,0.0,0.0,0.0,0.0,0.0,0.0,0.0,0.0,-0.6891,-0.7563,-0.7974,-0.8132,-0.8649,-0.8905,-0.8905,-0.9447,-0.9417,-0.8905,-0.893,-0.8789,0.0,0.0,0.0,0.0,0.0,0.0,0.0,0.0,0.0,0.0,0.0,-1.048,0.0,0.0,0.0,0.0,0.0,0.0,0.0,0.0,-1.3445,-1.3372,-1.3697,0.0,-1.5717,-1.5111,-1.4835,-1.4658,0.0,-1.4462,-1.4805,-1.5851,0.0,-1.6963,-1.7209,-1.8566,-2.0063,-2.1355,-2.4593,-2.7732,0.0,0.0,0.0,0.0,0.0,-4.8288,-4.6653,-4.9038,-5.0712,-5.0712,-5.0712,-5.0712,-5.0712,-5.0712,-5.0712,-5.0712,-5.0712,-5.0712,-5.0712,-5.0712,-4.9721,-4.7817,-4.976,-4.8336,-4.4143,-4.8644,-4.9298,-4.7038,-4.9586,-5.0712,-5.0712,-5.0712,-5.0712,-5.0712,-5.0712,-5.0173,-4.9298,-4.8413,-4.7586,-4.6778,0.0,0.0,0.0,0.0,0.0,0.0,0.0,0.0,0.0,0.0,0.0,0.0,0.0,0.0,0.0,0.0,0.0,0.0,0.0,0.0,0.0,0.0,0.0,-0.6526,-0.6891,-0.7563,-0.8199,-0.8821,-0.9188,-0.9503,-0.9779,-0.9869,-0.9548,-0.889,-0.8582,-0.8274,0.0,0.0,0.0,0.0,0.0,0.0,0.0,0.0,0.0,0.0,-1.1502,-1.1164,0.0,-1.0102,-0.9921,-1.005,0.0,0.0,0.0,0.0,-1.3844,-1.377,-1.3325,-1.3256,-1.3464,-1.4126,-1.3807,-1.3684,-1.5166,0.0,0.0,0.0,0.0,0.0,0.0,0.0,0.0,0.0,-2.452,0.0,0.0,0.0,0.0,0.0,-4.2661,-4.5902,0.0,-4.8692,-5.0712,-5.0712,-5.0712,-5.0712,-5.0712,-5.0712,-5.0712,-5.0712,-5.0712,-5.0712,-5.0712,-5.0712,-4.9413,-4.6923,-4.9471,-4.8644,-4.4989,-4.8913,-4.9952,-4.8663,-4.8875,-4.9625,-5.0616,-4.9433,-4.9644,-5.0654,-5.0269,-4.9567,-4.8702,-4.7855,-4.7028,-4.624,0.0,0.0,0.0,0.0,0.0,0.0,0.0,0.0,0.0,0.0,0.0,0.0,0.0,0.0,0.0,0.0,0.0,0.0,0.0,0.0,0.0,0.0,-0.6299,-0.6951,-0.7047,-0.7608,-0.8446,-0.9599,-0.989,-1.0299,-1.0783,-1.0488,-0.9878,-0.9017,-0.8357,-0.8018,0.0,0.0,0.0,0.0,0.0,0.0,0.0,0.0,0.0,0.0,0.0,0.0,0.0,-1.0565,-0.9921,-0.9691,-1.1316,0.0,0.0,0.0,0.0,0.0,-1.4658,-1.4279,-1.434,-1.6395,-1.527,-1.4431,-1.7417,0.0,0.0,0.0,0.0,0.0,0.0,-1.9098,0.0,0.0,0.0,0.0,0.0,0.0,0.0,0.0,-4.0183,0.0,-4.5179,-4.8567,-5.0575,-5.0514,-5.0523,-5.0544,-5.0604,-5.0554,-5.0544,-5.0604,-5.0554,-5.0544,-5.0604,-5.0673,-4.9413,-4.6923,-4.9471,-4.9375,-4.6981,-4.9529,-5.0712,-5.0577,-4.8413,-4.8702,-5.0539,-4.8375,-4.8663,-5.0442,-4.9683,-4.876,-4.7742,-4.7069,-4.6244,-4.5448,0.0,0.0,0.0,0.0,0.0,0.0,0.0,0.0,0.0,0.0,0.0,0.0,0.0,0.0,0.0,0.0,0.0,0.0,0.0,0.0,0.0,-0.6562,-0.6786,-0.7167,-0.7734,-0.7854,-0.8004,-0.8214,-0.9851,-1.0708,-1.0812,-1.1876,-1.1411,-0.9719,-0.9047,-0.859,-0.8331,0.0,0.0,0.0,0.0,0.0,0.0,0.0,0.0,0.0,0.0,0.0,0.0,-1.1992,-1.1039,-1.0175,-1.1839,0.0,0.0,0.0,0.0,0.0,-1.5325,-1.5924,-1.6431,-1.6817,-1.6108,-1.5827,-1.7674,0.0,0.0,0.0,0.0,0.0,0.0,-2.6062,-2.8147,0.0,0.0,-3.2157,0.0,0.0,-4.0996,-3.8326,0.0,-4.7555,-4.484,-4.7983,-5.0056,-4.9719,-4.9673,-4.9827,-5.0171,-4.9872,-4.984,-5.0183,-4.9853,-4.9859,-5.0183,-5.0534,-4.9413,-4.6923,-4.9471,-4.9375,-4.6981,-4.9529,-5.0712,-5.0673,-5.0289,-5.0346,-5.0673,-5.0289,-4.9913,-4.9586,-4.9452,-4.823,-4.6566,-4.6432,-4.5704,-4.4745,0.0,0.0,0.0,0.0,0.0,0.0,0.0,0.0,0.0,0.0,0.0,0.0,0.0,0.0,0.0,0.0,0.0,0.0,0.0,0.0,-0.6009,-0.6341,-0.7062,-0.7578,-0.7899,-0.8252,-0.8784,-0.9471,-1.035,-1.1166,-1.1865,-1.1441,-1.0606,-0.9434,-0.8766,-0.8435,-0.8415,-0.8517,0.0,0.0,0.0,0.0,0.0,0.0,0.0,0.0,0.0,0.0,0.0,0.0,-1.1314,-1.04,-1.1996,0.0,0.0,0.0,0.0,0.0,-1.4916,-1.5319,-1.6236,-1.8886,-1.8262,-1.8225,-2.2914,-2.0034,0.0,0.0,0.0,0.0,0.0,0.0,-2.7915,-2.9182,0.0,-3.7985,-3.8379,-4.0537,-4.17,0.0,0.0,-4.6327,-4.4568,-4.767,-4.9706,-4.9504,-4.9489,-4.9678,-5.008,-4.9719,-4.9673,-5.008,-4.9719,-4.9575,-4.9773,-4.9962,-4.8987,-4.6923,-4.9471,-4.9375,-4.6981,-4.9529,-5.0712,-5.0606,-4.9015,-4.9094,-5.0224,-4.8182,-4.7922,-4.8715,-4.7812,-4.6861,-4.5987,-4.5551,-4.5054,-4.4567,0.0,0.0,0.0,0.0,0.0,0.0,0.0,0.0,0.0,0.0,0.0,0.0,0.0,0.0,0.0,0.0,0.0,0.0,0.0,0.0,-0.5978,-0.6127,-0.7271,-0.7974,-0.8132,-0.8634,-0.9458,-1.0598,-1.0897,-1.164,-1.2771,-1.1167,-1.0024,-0.9304,-0.8691,-0.8438,-0.8486,-0.8645,-0.8723,0.0,0.0,0.0,0.0,0.0,0.0,0.0,0.0,0.0,0.0,0.0,0.0,0.0,0.0,0.0,0.0,-1.3151,-1.3724,-1.4028,-1.4368,-1.4604,-1.5857,-2.0372,0.0,-1.9373,-2.7446,-2.3153,0.0,0.0,0.0,0.0,0.0,-2.6172,0.0,-3.4247,-3.8891,-4.1846,-4.2178,-4.2357,-4.2815,-4.3814,-4.4819,-4.5415,-4.5312,-4.7781,-4.9311,-4.9218,-4.9218,-4.9431,-4.9936,-4.9489,-4.9445,-4.9949,-4.9475,-4.9265,-4.9356,-4.9356,-4.874,-4.7526,-4.949,-4.9395,-4.7583,-4.9529,-5.0421,-5.0276,-4.7831,-4.7876,-4.9436,-4.6371,-4.6132,-4.7588,-4.6304,-4.5615,-4.5288,-4.4604,-4.4337,-4.4294,0.0,0.0,0.0,0.0,0.0,0.0,0.0,0.0,0.0,0.0,0.0,0.0,0.0,0.0,0.0,0.0,0.0,0.0,0.0,0.0,-0.6177,-0.6801,-0.7518,-0.8192,-0.8815,-0.8875,-0.9257,-0.9965,-1.1147,-1.21,-1.2786,-1.2204,-1.1254,-1.0013,-0.953,-0.9078,-0.8681,-0.8693,-0.8765,-0.888,0.0,0.0,0.0,0.0,0.0,0.0,0.0,0.0,0.0,0.0,0.0,0.0,0.0,0.0,-1.1435,-1.1559,-1.2347,-1.3357,-1.4108,-1.4958,-1.6426,-1.9759,-1.7649,-1.7465,-2.7769,-2.441,0.0,-3.1329,0.0,0.0,0.0,-3.1995,-3.3642,-3.8652,-3.9808,-4.135,-4.5039,0.0,-4.6158,-4.7701,-4.8303,-4.8426,-4.8071,-4.8579,-4.8796,-4.8402,-4.8383,-4.8728,-4.9504,-4.8796,-4.8745,-4.9518,-4.8779,-4.8586,-4.8947,-4.8947,-4.9062,-4.933,-4.95,-4.9481,-4.933,-4.95,-4.9594,-4.9519,-4.8574,-4.8253,-4.8347,-4.7332,-4.6544,-4.597,-4.5838,-4.5125,-4.4091,-4.3714,-4.3582,-4.3582,0.0,0.0,0.0,0.0,0.0,0.0,0.0,0.0,0.0,0.0,0.0,0.0,0.0,0.0,0.0,0.0,0.0,0.0,0.0,-0.5287,-0.6007,-0.6267,-0.7316,-0.8222,-0.889,-0.9317,-0.9839,-1.0464,-1.1786,-1.2429,-1.2412,-1.1356,-1.0738,-1.0487,-0.944,-0.8905,-0.8829,-0.8829,-0.8863,-0.8897,-0.8897,0.0,0.0,0.0,0.0,0.0,0.0,0.0,0.0,0.0,-1.2355,-1.1678,-1.2322,-1.1618,-1.0751,-1.1873,-1.2455,-1.2861,-1.3508,-1.4587,-1.6695,-2.1576,-1.9748,0.0,0.0,-2.688,-2.5705,-3.4945,-3.2504,0.0,0.0,0.0,-3.7165,-3.9515,-4.1164,-4.2837,-4.4874,-4.5571,-4.6305,-4.7406,-4.8145,-4.8477,-4.8325,-4.8439,-4.8458,-4.8306,-4.8532,-4.8813,-4.9108,-4.8847,-4.8813,-4.9108,-4.8586,-4.8383,-4.8532,-4.8532,-4.8345,-4.802,-4.902,-4.9239,-4.8744,-4.8744,-4.8494,-4.7971,-4.7425,-4.717,-4.7095,-4.6031,-4.54,-4.5069,-4.4565,-4.4098,-4.366,-4.3548,-4.3515,-4.3515,0.0,0.0,0.0,0.0,0.0,0.0,0.0,0.0,0.0,0.0,0.0,0.0,0.0,0.0,0.0,0.0,0.0,0.0,-0.3862,-0.495,-0.5685,-0.5888,-0.6987,-0.7899,-0.8567,-0.945,-1.0099,-1.0523,-1.1625,-1.2054,-1.1829,-1.0958,-1.0629,-1.0753,-0.9623,-0.9164,-0.9224,-0.8993,-0.8897,-0.8897,-0.8897,-0.9196,0.0,0.0,0.0,0.0,0.0,0.0,0.0,0.0,-1.2508,-1.1881,-1.222,-1.1586,-1.0866,-1.1631,-1.2209,-1.267,-1.3046,-1.4102,-1.6383,-2.1704,0.0,0.0,-3.0393,-2.923,-2.8624,-3.7294,-3.5514,-3.2559,-3.3146,0.0,0.0,0.0,-4.1293,-4.291,-4.4488,-4.5168,-4.5828,-4.6636,-4.7223,-4.7553,-4.7553,-4.7553,-4.7553,-4.7553,-4.7792,-4.8017,-4.8149,-4.8016,-4.8017,-4.8149,-4.7738,-4.7553,-4.7553,-4.7553,-4.7278,-4.6728,-4.7841,-4.8091,-4.7544,-4.7544,-4.7244,-4.6686,-4.6166,-4.5943,-4.5853,-4.4775,-4.4323,-4.4268,-4.3718,-4.3515,-4.3515,-4.3515,-4.3515,-4.3515,0.0,0.0,0.0,0.0,0.0,0.0,0.0,0.0,0.0,0.0,0.0,0.0,0.0,0.0,0.0,0.0,0.0,0.0,-0.3794,-0.4494,-0.5202,-0.5873,-0.6541,-0.7212,-0.7884,-0.9195,-0.9899,-0.9914,-1.0494,-1.0901,-1.1097,-1.1372,-1.1234,-1.0761,-1.0263,-1.0018,-0.9933,-0.9224,-0.8914,-0.8897,-0.8897,-0.8897,0.0,0.0,0.0,0.0,0.0,0.0,0.0,0.0,-1.2795,-1.3007,-1.0734,-1.1072,-1.1992,-1.0497,-1.1349,-1.28,-1.2824,-1.3654,-1.5496,0.0,0.0,0.0,-3.2546,-3.1262,-3.0148,-3.8245,-4.1148,-4.1772,-4.0157,-3.9239,0.0,-3.9772,-3.9918,-4.1038,-4.4232,-4.4691,-4.5002,-4.5792,-4.5902,-4.5902,-4.5902,-4.5902,-4.5902,-4.5902,-4.5902,-4.6079,-4.6472,-4.6131,-4.6079,-4.6488,-4.6114,-4.5902,-4.5902,-4.5902,-4.5902,-4.5883,-4.5883,-4.5883,-4.5883,-4.5883,-4.5883,-4.5828,-4.5039,-4.4691,-4.4635,-4.3828,-4.3515,-4.3515,-4.3515,-4.3515,-4.3515,-4.3515,-4.3515,-4.3515,0.0,0.0,0.0,0.0,0.0,0.0,0.0,0.0,0.0,0.0,0.0,0.0,0.0,0.0,0.0,0.0,0.0,0.0,-0.3866,-0.4517,-0.5202,-0.5873,-0.6541,-0.7212,-0.7884,-0.8386,-0.9332,-1.0742,-1.0443,-1.051,-1.0889,-1.0978,-1.0728,-1.0296,-1.175,-1.1204,-0.9309,-1.0697,-1.0365,-0.8897,-0.8897,-0.8897,0.0,0.0,0.0,0.0,0.0,0.0,0.0,0.0,0.0,0.0,-1.244,-1.1966,-1.1693,-1.2933,-1.2902,-1.2756,-1.4119,-1.5554,0.0,0.0,0.0,0.0,0.0,-3.1017,0.0,0.0,-3.9827,-3.9276,-3.7661,0.0,0.0,-4.0139,-4.133,-4.278,-4.3718,-4.4342,-4.4783,-4.5039,-4.5571,-4.5902,-4.5902,-4.5902,-4.5902,-4.5902,-4.6165,-4.6249,-4.6079,-4.6231,-4.6248,-4.6079,-4.5974,-4.5902,-4.5902,-4.5902,-4.5626,-4.5057,-4.5057,-4.5057,-4.5057,-4.5057,-4.4745,-4.4212,-4.3956,-4.3864,-4.3828,-4.3606,-4.3515,-4.3515,-4.3515,-4.3515,-4.3515,-4.3515,-4.3515,-4.3515,0.0,0.0,0.0,0.0,0.0,0.0,0.0,0.0,0.0,0.0,-0.354,-0.358,0.0,0.0,0.0,0.0,0.0,0.0,0.0,-0.4533,-0.5202,-0.5873,-0.6541,-0.7365,-0.8356,-0.8203,-0.8884,-1.0496,-1.0054,-0.9994,-1.0345,-1.0957,-1.0947,-1.0514,-1.222,-1.1787,-0.984,-1.0927,-1.0419,-0.8897,-0.8897,-0.8897,-0.9066,0.0,0.0,0.0,0.0,0.0,0.0,0.0,0.0,0.0,-1.2542,-1.2677,-1.2946,-1.3301,-1.3606,-1.4263,-1.6222,-1.773,0.0,0.0,0.0,-2.8393,-3.0662,0.0,0.0,0.0,0.0,-4.0304,-3.9331,-4.155,0.0,-4.1568,-4.256,-4.3515,-4.3515,-4.392,-4.4213,-4.4213,-4.4654,-4.4947,-4.4947,-4.4947,-4.4947,-4.4947,-4.5171,-4.5204,-4.4965,-4.5188,-4.5203,-4.4947,-4.4947,-4.4947,-4.4947,-4.4947,-4.469,-4.4213,-4.4213,-4.4213,-4.4213,-4.4213,-4.3956,-4.3515,-4.3515,-4.3515,-4.3515,-4.3515,-4.3515,-4.3515,-4.3515,-4.3515,-4.3515,-4.3515,-4.3515,-4.3515,0.0,0.0,0.0,0.0,0.0,0.0,0.0,0.0,0.0,0.0,-0.3616,-0.3669,0.0,0.0,0.0,0.0,0.0,0.0,0.0,-0.4533,-0.5202,-0.5873,-0.6619,-0.7636,-0.898,-0.845,-0.8605,-0.9513,-0.9393,-0.9407,-0.9566,-1.1119,-1.1533,-1.1045,-1.2043,-1.1942,-1.0961,-1.0514,-0.976,-0.8914,-0.8982,-0.8965,-0.9066,-1.0544,0.0,0.0,0.0,0.0,0.0,0.0,0.0,0.0,-1.1746,-1.3151,-1.4847,-1.2468,-1.3886,-1.6648,-1.8704,0.0,0.0,0.0,0.0,0.0,0.0,0.0,-3.6894,-4.2359,0.0,-4.3149,-4.346,-4.3515,-4.3515,-4.3515,-4.3515,-4.3515,-4.3515,-4.3515,-4.3515,-4.3515,-4.3515,-4.3515,-4.3515,-4.3515,-4.3515,-4.3515,-4.3515,-4.3515,-4.3515,-4.3515,-4.3515,-4.3515,-4.3515,-4.3515,-4.3515,-4.3515,-4.3515,-4.3515,-4.3515,-4.3515,-4.3515,-4.3515,-4.3515,-4.3515,-4.3515,-4.3515,-4.3515,-4.3515,-4.3515,-4.3515,-4.3515,-4.3515,-4.3515,-4.3515,-4.3515,-4.3515,0.0,0.0,0.0,0.0,0.0,0.0,0.0,0.0,0.0,0.0,0.0,0.0,0.0,0.0,0.0,0.0,0.0,0.0,0.0,-0.4533,-0.5202,-0.5873,-0.7156,-0.7993,-0.8314,-0.8483,-0.8669,-0.8895,-0.8858,-0.892,-0.9076,-1.0572,-1.0895,-1.0345,-1.2898,-1.2627,-1.0345,-1.1983,-1.1211,-0.8948,-0.9523,-0.9427,-0.9066,-1.0544,-1.1103,0.0,0.0,0.0,0.0,0.0,0.0,0.0,-1.3007,-1.2948,-1.3235,-1.4355,-1.5418,-1.6835,0.0,-2.0922,0.0,0.0,0.0,0.0,0.0,0.0,-3.8982,-4.2727,-4.1479,-4.0506,-4.302,-4.3515,-4.3515,-4.3515,-4.3515,-4.3515,-4.3515,-4.3515,-4.3515,-4.3515,-4.3515,-4.3515,-4.3515,-4.3515,-4.3515,-4.3515,-4.3515,-4.3515,-4.3515,-4.3515,-4.3515,-4.3515,-4.3515,-4.3515,-4.3515,-4.3515,-4.3515,-4.3515,-4.3515,-4.3515,-4.3515,-4.3515,-4.3515,-4.3515,-4.3515,-4.3515,-4.3515,-4.3515,-4.3515,-4.3515,-4.3515,-4.3515,-4.3515,-4.3515,-4.3515,-4.3515,0.0,0.0,0.0,0.0,0.0,0.0,0.0,0.0,0.0,0.0,0.0,0.0,0.0,0.0,0.0,0.0,0.0,0.0,0.0,-0.4824,-0.583,-0.6816,-0.7598,-0.8079,-0.8247,-0.8444,-0.8634,-0.8794,-0.8794,-0.902,-0.9461,-1.0961,-1.1654,-1.1705,-1.3261,-1.3092,-1.1637,-1.1722,-1.0859,-0.9421,-0.9455,-0.9455,-0.9506,-1.0284,-1.0791,-1.1255,-1.2457,0.0,0.0,0.0,0.0,0.0,0.0,0.0,-1.3464,-1.4074,-1.4854,-1.6308,0.0,0.0,0.0,0.0,0.0,0.0,0.0,0.0,-4.146,-4.3149,-4.2158,-4.1515,-4.3203,-4.3515,-4.3515,-4.3515,-4.3515,-4.3515,-4.3515,-4.3515,-4.3515,-4.3515,-4.3515,-4.3515,-4.3515,-4.3515,-4.3515,-4.3515,-4.3515,-4.3515,-4.3515,-4.3515,-4.3515,-4.3515,-4.3515,-4.3515,-4.3515,-4.3515,-4.3515,-4.3515,-4.3515,-4.3515,-4.3515,-4.3515,-4.3515,-4.3515,-4.3515,-4.3515,-4.3515,-4.3515,-4.3515,-4.3515,-4.3515,-4.3515,-4.3515,-4.3515,-4.3515,-4.3515,0.0,0.0,0.0,0.0,0.0,0.0,0.0,0.0,0.0,0.0,0.0,0.0,0.0,0.0,0.0,0.0,0.0,0.0,0.0,-0.5158,-0.6508,-0.7867,-0.7963,-0.813,-0.8448,-0.8469,-0.8624,-0.8897,-0.8897,-0.9664,-1.1173,-1.2331,-1.3269,-1.3955,-1.3837,-1.3566,-1.3091,-1.1045,-1.0193,-1.0159,-0.9681,-0.9766,-1.0193,-1.0193,-1.0572,-1.1188,-1.1857,-1.2178,-1.2381,-1.2999,0.0,0.0,0.0,0.0,-1.3761,-1.2955,-1.3711,-1.5588,0.0,0.0,0.0,0.0,0.0,0.0,0.0,-4.1735,-4.3001,-4.3423,-4.3515,-4.3515,-4.3515,-4.3515,-4.3515,-4.3515,-4.3515,-4.3515,-4.3515,-4.3515,-4.3515,-4.3515,-4.3515,-4.3515,-4.3515,-4.3515,-4.3515,-4.3515,-4.3515,-4.3515,-4.3515,-4.3515,-4.3515,-4.3515,-4.3515,-4.3515,-4.3515,-4.3515,-4.3515,-4.3515,-4.3515,-4.3515,-4.3515,-4.3515,-4.3515,-4.3515,-4.3515,-4.3515,-4.3515,-4.3515,-4.3515,-4.3515,-4.3515,-4.3515,-4.3515,-4.3515,-4.3515,-4.3515,0.0,0.0,0.0,0.0,0.0,0.0,0.0,0.0,0.0,0.0,-0.3906,-0.3906,-0.3906,-0.3906,0.0,0.0,0.0,0.0,-0.3906,0.0,0.0,-0.8008,-0.8234,-0.8441,-0.8663,-0.8783,-0.8852,-0.8897,-0.8897,-1.1262,-1.5801,-1.5368,-1.5554,-1.6241,-1.5588,-1.4242,-1.2381,-1.1383,-1.0944,-1.1011,-1.1603,-1.1485,-1.0944,-1.0944,-1.1011,-1.1113,-1.1214,-1.1705,-1.2314,-1.2415,-1.2863,0.0,0.0,0.0,0.0,-1.2213,-1.359,-1.538,0.0,0.0,0.0,0.0,0.0,0.0,0.0,0.0,-4.0965,0.0,-4.3515,-4.3515,-4.3515,-4.3515,-4.3515,-4.3515,-4.3515,-4.3515,-4.3515,-4.3515,-4.3515,-4.3515,-4.3515,-4.3515,-4.3515,-4.3515,-4.3515,-4.3515,-4.3515,-4.3515,-4.3515,-4.3515,-4.3515,-4.3515,-4.3515,-4.3515,-4.3515,-4.3515,-4.3515,-4.3515,-4.3515,-4.3515,-4.3515,-4.3515,-4.3515,-4.3515,-4.3515,-4.3515,-4.3515,-4.3515,-4.3515,-4.3515,-4.3515,-4.3515,-4.3515,-4.3515,-4.3515,-4.3515,0.0,0.0,0.0,0.0,0.0,0.0,0.0,0.0,0.0,0.0,0.0,-0.3906,-0.3906,-0.3906,0.0,0.0,0.0,0.0,-0.4536,-0.5549,0.0,-0.7605,-0.8141,-0.8498,-0.8699,-0.8754,-0.8829,-0.8897,-0.8897,-1.2431,-1.921,-1.8888,-1.8905,-1.9239,-1.9316,-1.7202,-1.3506,-1.3151,-1.2263,-1.113,-1.1492,-1.2178,-1.2872,-1.1586,-1.1645,-1.2271,-1.1408,-1.134,-1.1705,-1.2145,-1.2795,-1.3396,-1.3396,0.0,0.0,0.0,0.0,0.0,-1.9341,0.0,0.0,0.0,0.0,0.0,0.0,0.0,-4.0579,-4.3001,-4.3515,-4.3515,-4.3515,-4.3515,-4.3515,-4.3515,-4.3515,-4.3515,-4.3515,-4.3515,-4.3515,-4.3515,-4.3515,-4.3515,-4.3515,-4.3515,-4.3515,-4.3515,-4.3515,-4.3515,-4.3515,-4.3515,-4.3515,-4.3515,-4.3515,-4.3515,-4.3515,-4.3515,-4.3515,-4.3515,-4.3515,-4.3515,-4.3515,-4.3515,-4.3515,-4.3515,-4.3515,-4.3515,-4.3515,-4.3515,-4.3515,-4.3515,-4.3515,-4.3515,-4.3515,-4.3515,-4.3515,-4.3515,0.0,0.0,0.0,0.0,0.0,0.0,0.0,0.0,0.0,0.0,0.0,0.0,-0.3921,0.0,0.0,0.0,0.0,0.0,-0.5072,0.0,0.0,0.0,-0.8074,-0.8567,-0.8742,-0.8742,-0.88,-0.8897,-0.8897,-1.282,-2.0361,-2.1123,-2.1884,-2.2595,-2.2395,-2.0031,-1.6136,-1.4977,-1.3946,-1.3066,-1.2872,-1.3599,-1.4605,-1.3092,-1.3235,-1.4006,-1.2305,-1.1789,-1.1992,-1.2229,-1.2795,-1.3362,-1.3176,0.0,0.0,0.0,0.0,0.0,0.0,0.0,0.0,0.0,0.0,0.0,0.0,0.0,-3.9423,0.0,-4.3057,-4.3515,-4.3515,-4.3515,-4.3515,-4.3515,-4.3515,-4.3515,-4.3515,-4.3515,-4.3515,-4.3515,-4.3515,-4.3515,-4.3515,-4.3515,-4.3515,-4.3515,-4.3515,-4.3515,-4.3515,-4.3515,-4.3515,-4.3515,-4.3515,-4.3515,-4.3515,-4.3515,-4.3515,-4.3515,-4.3515,-4.3515,-4.3515,-4.3515,-4.3515,-4.3515,-4.3515,-4.3515,-4.3515,-4.3515,-4.3515,-4.3515,-4.3515,-4.3515,-4.3515,-4.3515,-4.3515,-4.3515,0.0,0.0,0.0,0.0,0.0,0.0,0.0,0.0,0.0,0.0,0.0,0.0,-0.3969,-0.4469,-0.4639,-0.4141,0.0,0.0,0.0,0.0,0.0,0.0,0.0,0.0,-0.888,-0.8886,-0.8891,-0.8897,-0.8897,-1.2017,-1.8036,-2.0893,-2.3731,-2.6285,-2.3528,-2.1769,-2.0564,-1.6306,-1.6052,-1.842,-1.7732,-1.6667,-1.5612,-1.618,-1.6462,-1.6241,-1.4057,-1.3718,-1.4115,0.0,-1.2795,-1.3278,-1.2575,-1.1773,-1.0961,0.0,0.0,0.0,0.0,0.0,0.0,0.0,0.0,0.0,0.0,0.0,0.0,-3.9423,-4.1917,-4.3515,-4.3515,-4.3515,-4.3515,-4.3515,-4.3515,-4.3515,-4.3515,-4.3515,-4.3515,-4.3515,-4.3515,-4.3515,-4.3515,-4.3515,-4.3515,-4.3515,-4.3515,-4.3515,-4.3515,-4.3515,-4.3515,-4.3515,-4.3515,-4.3515,-4.3515,-4.3515,-4.3515,-4.3515,-4.3515,-4.3515,-4.3515,-4.3515,-4.3515,-4.3515,-4.3515,-4.3515,-4.3515,-4.3515,-4.3515,-4.3515,-4.3515,-4.3515,-4.3515,-4.3515,-4.3515,-4.3515,0.0,0.0,0.0,0.0,0.0,0.0,0.0,0.0,0.0,0.0,0.0,0.0,0.0,-0.529,-0.5076,-0.4884,-0.4477,0.0,0.0,0.0,0.0,0.0,0.0,0.0,-0.8897,-0.8897,-0.8897,-0.8897,-0.8897,-1.1458,-1.6424,-1.798,-2.031,-2.3289,-2.6065,-2.4747,-2.0386,-1.9761,-1.7912,-1.5673,-1.9237,-1.9203,-1.7202,-1.8922,-1.9887,-1.9875,-1.6671,0.0,0.0,0.0,0.0,-1.3887,-1.2686,-1.1756,-1.0866,-0.9647,-1.0087,0.0,0.0,0.0,0.0,0.0,0.0,-2.4961,0.0,-3.2828,-3.4743,-3.6399,-3.9937,-4.2396,-4.1368,-4.2468,-4.3515,-4.3515,-4.3515,-4.3515,-4.3515,-4.3515,-4.3515,-4.3515,-4.3515,-4.3515,-4.3515,-4.3515,-4.3515,-4.3515,-4.2064,-4.1881,-4.3423,-4.2046,-4.1899,-4.346,-4.3515,-4.3515,-4.3515,-4.3515,-4.3515,-4.3515,-4.3515,-4.3515,-4.3515,-4.3515,-4.3515,-4.3515,-4.3515,-4.3515,-4.3515,-4.3515,-4.3515,-4.3515,-4.3515,-4.3515,-4.3515,-4.3515,-4.3515,-4.3515,0.0,0.0,0.0,0.0,0.0,0.0,0.0,0.0,0.0,-0.516,0.0,0.0,0.0,0.0,-0.5926,-0.5758,-0.5344,-0.5215,-0.5455,-0.671,0.0,0.0,0.0,0.0,0.0,-0.8897,-0.8897,-0.8897,-0.9145,-1.1069,-1.4513,-1.6011,-1.8037,-2.0615,-2.4831,-2.4916,-2.1941,-2.2716,-2.113,-1.84,-2.1818,-2.219,-2.0844,-2.2552,-2.3289,-2.3171,-2.1349,0.0,0.0,0.0,0.0,-1.6155,-1.4346,-1.2389,-1.0487,-0.9264,-0.9887,0.0,-1.3903,0.0,0.0,0.0,0.0,-2.1367,-2.5993,0.0,-3.2908,-3.3977,-3.8288,-4.1662,-4.0855,-4.2011,-4.3185,-4.346,-4.3515,-4.3515,-4.3515,-4.3515,-4.3515,-4.3515,-4.3515,-4.3515,-4.3515,-4.3515,-4.3515,-4.3515,-4.2009,-4.1825,-4.3423,-4.1991,-4.1844,-4.346,-4.3515,-4.3515,-4.3515,-4.3515,-4.3515,-4.3515,-4.3515,-4.3515,-4.3515,-4.3515,-4.3515,-4.3515,-4.3515,-4.3515,-4.3515,-4.3515,-4.3515,-4.3515,-4.3515,-4.3515,-4.3515,-4.3515,-4.3515,-4.3515,0.0,0.0,0.0,0.0,0.0,0.0,0.0,0.0,-0.5279,-0.536,0.0,0.0,0.0,0.0,0.0,-0.6687,-0.6693,-0.7044,-0.7747,-0.8485,0.0,0.0,0.0,0.0,-0.8948,-0.8931,-0.8931,-0.8931,-0.9675,-1.0802,-1.2331,-1.5216,-1.7348,-1.8775,-1.9575,-2.1958,-2.5338,-2.4677,-2.543,-2.6978,0.0,-2.5499,-2.6196,-2.7016,-2.6611,-2.5893,-2.7931,-2.6477,0.0,-2.4079,0.0,0.0,-1.7418,-1.3591,-0.9889,-0.9179,-0.9578,0.0,0.0,0.0,0.0,0.0,0.0,0.0,-2.0688,0.0,-3.0448,-3.2087,-3.6931,-4.115,-4.1992,-4.2213,-4.2525,-4.3331,-4.3478,-4.3515,-4.3515,-4.3515,-4.3515,-4.3515,-4.3515,-4.3515,-4.3515,-4.3515,-4.3515,-4.3515,-4.3441,-4.3423,-4.3515,-4.3515,-4.3515,-4.3515,-4.3515,-4.3515,-4.3515,-4.3515,-4.3515,-4.3515,-4.3515,-4.3515,-4.3515,-4.3515,-4.3515,-4.3515,-4.3515,-4.3515,-4.3515,-4.3515,-4.3515,-4.3515,-4.3515,-4.3515,-4.3515,-4.3515,-4.3515,-4.3515,0.0,0.0,0.0,0.0,0.0,-0.6002,-0.6033,-0.6146,-0.6405,0.0,0.0,0.0,-0.8168,-0.837,-0.8219,-0.7537,-0.7484,-0.7578,-0.7781,-0.8485,-0.9145,-0.9669,-0.9889,-0.9906,-0.9703,-0.9686,-0.9686,-0.9686,-1.0436,-1.1011,-1.1451,-1.2855,-1.4014,-1.5013,-1.7371,-1.8983,-2.0048,-2.1512,0.0,-2.0096,-2.5052,-2.49,0.0,0.0,0.0,0.0,0.0,-2.9509,-2.8096,0.0,-2.4541,-2.0896,0.0,-1.2694,-1.0758,-1.0544,-1.1073,0.0,-1.1923,0.0,0.0,0.0,0.0,0.0,0.0,0.0,0.0,-2.7813,-3.2302,-3.6431,-3.8465,-4.0249,-4.1699,-4.2506,-4.3112,-4.3515,-4.3515,-4.3515,-4.3515,-4.3515,-4.3515,-4.3515,-4.3515,-4.3515,-4.3515,0.0,-4.1864,-4.166,-4.3423,-4.3515,-4.3515,-4.3515,-4.3515,-4.3515,-4.3515,-4.3515,-4.3515,-4.3515,-4.3515,-4.3515,-4.3515,-4.3515,-4.3515,-4.3515,-4.3515,-4.3515,-4.3515,-4.3515,-4.3515,-4.3515,-4.3515,-4.3515,-4.3515,-4.3515,-4.3515,-4.3515,0.0,0.0,0.0,0.0,-0.7254,-0.7291,-0.7349,-0.7447,-0.7684,0.0,0.0,0.0,-0.9275,-0.9935,-0.9884,-0.8807,-0.8722,-0.8846,-0.9151,-0.958,-1.0155,-1.092,-1.0633,-1.0311,-1.0001,-1.0001,-1.0001,-1.0001,-1.1079,-1.1603,-1.1603,-1.2077,-1.2542,-1.3015,-1.4733,-1.5533,-1.5738,-1.8023,-1.955,0.0,-2.597,0.0,0.0,-3.2039,-3.2578,0.0,0.0,0.0,-3.234,-3.251,-2.8975,0.0,0.0,0.0,0.0,-1.2322,0.0,0.0,0.0,0.0,0.0,0.0,0.0,0.0,-1.6785,-2.03,0.0,0.0,-3.0711,-3.4541,-3.5312,-3.7147,-3.882,-3.9662,-4.0469,-4.1587,-4.3258,-4.3515,-4.3515,-4.3515,-4.3515,-4.3515,-4.3515,-4.3515,-4.3515,-4.3515,-4.2211,-4.2027,-4.3423,-4.3515,-4.3515,-4.3515,-4.3515,-4.3515,-4.3515,-4.3515,-4.3515,-4.3515,-4.3515,-4.3515,-4.3515,-4.3515,-4.3515,-4.3515,-4.3515,-4.3515,-4.3515,-4.3515,-4.3515,-4.3515,-4.3515,-4.3515,-4.3515,-4.3515,-4.3515,-4.3515,0.0,0.0,-0.8341,-0.8537,-0.8627,-0.8757,-0.9048,-0.9071,-0.9143,0.0,-0.9467,-0.9834,-1.0649,-1.1816,-1.1985,-1.0609,-1.0271,-1.0447,-1.118,-1.1154,-1.1509,-1.2381,-1.157,-1.0825,-1.0278,-1.0085,-1.0085,-1.0261,-1.1637,-1.2348,-1.2415,-1.2415,-1.2415,-1.2415,-1.2415,-1.2497,-1.2751,-1.4899,-1.9467,-2.5409,-2.7341,-3.0869,0.0,0.0,-3.7076,-3.6435,-4.0034,-3.888,-3.5968,-3.7989,-3.4012,0.0,0.0,0.0,0.0,0.0,-1.4837,0.0,0.0,0.0,0.0,0.0,0.0,0.0,-1.6808,-2.0172,-2.3587,0.0,-2.9868,-3.307,-3.208,-3.3156,-3.4454,-3.522,-3.6189,-3.8227,-4.2284,-4.3057,-4.3167,-4.3001,-4.3185,-4.3387,-4.3496,-4.3515,-4.3515,-4.3515,-4.3515,-4.3515,-4.3515,-4.3515,-4.3515,-4.3515,-4.3515,-4.3515,-4.3515,-4.3515,-4.3515,-4.3515,-4.3515,-4.3515,-4.3515,-4.3515,-4.3515,-4.3515,-4.3515,-4.3515,-4.3515,-4.3515,-4.3515,-4.3515,-4.3515,-4.3515,-4.3515,-4.3515,-4.3515,-4.3515,0.0,-0.9844,-0.9511,-0.9668,-0.9706,-1.0128,-1.1408,-1.1051,-1.1106,-1.2363,-1.3041,-1.3921,-1.525,-1.4597,-1.3946,-1.3658,-1.1934,-1.1214,-1.2009,-1.1451,-1.1729,-1.3117,-1.1848,-1.1333,-1.184,-1.0633,-1.0616,-1.1857,-1.2145,-1.2601,-1.3193,-1.3193,-1.3193,-1.3193,-1.3193,-1.3248,-1.3469,-1.4709,0.0,-2.2604,-2.5795,-2.8855,-3.198,-3.6613,-3.672,-3.501,-3.9427,-3.9338,-3.6977,-3.5811,-3.3932,-3.1046,0.0,0.0,0.0,-1.7984,-1.7336,-1.7655,-1.7091,0.0,0.0,0.0,0.0,0.0,-1.5037,-1.6212,-1.8387,0.0,-2.2294,-2.4065,-2.6982,-2.8448,-2.9255,-2.942,-3.1231,-3.4004,-3.8098,-4.0341,-4.1093,-3.979,-4.135,-4.2782,-4.3441,-4.3515,-4.3515,-4.3515,-4.3515,-4.3515,-4.3515,-4.3515,-4.3515,-4.3515,-4.3515,-4.3515,-4.3515,-4.3515,-4.3515,-4.3515,-4.3515,-4.3515,-4.3515,-4.3515,-4.3515,-4.3515,-4.3515,-4.3515,-4.3515,-4.3515,-4.3515,-4.3515,-4.3515,-4.3515,-4.3515,-4.3515,-4.3515,-4.3515,-1.0779,-0.9968,-0.9411,-0.9908,-1.0294,-1.1079,-1.2609,-1.2508,-1.2795,-1.4302,-1.546,-1.6143,-1.6147,-1.5825,-1.5155,-1.4039,-1.2195,-1.1434,-1.2246,-1.1553,-1.1797,-1.3328,-1.2305,-1.1705,-1.1705,-1.135,-1.1333,-1.1705,-1.2474,-1.3032,-1.3396,-1.3396,-1.3591,-1.3921,-1.3557,-1.398,-1.495,-1.495,-1.7536,-2.2045,-2.6638,0.0,-3.3963,-3.9062,-4.0039,-3.9041,-4.1344,-4.1479,-3.9896,-3.5682,-3.4441,0.0,-2.7997,-2.5714,-2.4406,0.0,-1.9879,-2.0023,-1.8704,0.0,0.0,-1.7648,0.0,0.0,0.0,-1.6694,-1.8015,-2.053,-2.1201,-2.1824,-2.3372,-2.454,-2.527,-2.527,-2.7028,-2.912,-3.1176,-3.5991,-3.9441,-3.9848,-4.0965,-4.1864,-4.2268,-4.2304,-4.2304,-4.2304,-4.2671,-4.2892,-4.2892,-4.3277,-4.3515,-4.3515,-4.3515,-4.3515,-4.3515,-4.3515,-4.3515,-4.3515,-4.3515,-4.3515,-4.3515,-4.3515,-4.3515,-4.3515,-4.3515,-4.3515,-4.3515,-4.3515,-4.3515,-4.3515,-4.3515,-4.3515,-4.3515,-4.3515,-4.3515,-4.3515,-1.1069,-1.0163,-0.9605,-1.0326,-1.0944,-1.1848,-1.3371,-1.3498,-1.4099,-1.6062,-1.7354,-1.7997,-1.776,-1.7585,-1.6959,-1.5649,-1.3743,-1.2635,-1.272,-1.2381,-1.2474,-1.3159,-1.2626,-1.206,-1.156,-1.1891,-1.1891,-1.1543,-1.2643,-1.3261,-1.3396,-1.3396,-1.3794,-1.4487,-1.3922,-1.5011,0.0,0.0,0.0,-2.4061,0.0,-3.2499,-3.5697,-4.102,-4.2837,-4.2635,-4.3172,-4.3268,-4.2268,-3.6459,-3.5332,-3.558,-3.074,-2.8269,0.0,0.0,0.0,0.0,0.0,0.0,0.0,0.0,0.0,-1.8512,0.0,0.0,0.0,-2.0494,-2.1011,0.0,0.0,0.0,0.0,0.0,0.0,0.0,0.0,-3.0515,0.0,-3.8031,-3.8839,-3.9279,-3.9444,-3.9591,-4.0086,-4.1022,-4.1277,-4.157,-4.2047,-4.2818,-4.3276,-4.3276,-4.3423,-4.3515,-4.3515,-4.3515,-4.3515,-4.3515,-4.3515,-4.3515,-4.3515,-4.3515,-4.3515,-4.3515,-4.3515,-4.3515,-4.3515,-4.3515,-4.3515,-4.3515,-4.3515,-4.3515,-4.3515,-4.3515,-4.3515,-4.3515,-1.2123,-1.1996,-1.1927,-1.2026,-1.2111,-1.2669,-1.4149,-1.3828,-1.4717,-1.8409,-1.9024,-2.0733,-2.4983,-2.2378,-2.1123,-2.3069,-2.0039,-1.6948,-1.4419,-1.5385,-1.4979,-1.2534,-1.2348,-1.2558,-1.3125,-1.1898,-1.1865,-1.3142,-1.266,-1.2762,-1.3396,-1.3396,-1.3794,-1.4513,-1.4658,0.0,0.0,0.0,-2.3794,0.0,-3.2043,-3.1964,0.0,-3.8692,-4.0506,-3.9543,-4.1941,-4.2442,-4.1402,0.0,-3.6638,-3.6324,0.0,-2.9488,-2.8402,-2.5861,0.0,0.0,0.0,0.0,0.0,0.0,-2.0365,0.0,0.0,0.0,-1.7583,-1.6547,0.0,0.0,0.0,0.0,0.0,0.0,0.0,0.0,-2.0951,-2.3749,-2.6337,-2.8033,-3.076,-3.2779,-3.35,-3.4211,-3.6431,-4.0765,-3.9203,-3.8982,-4.1113,-4.2011,-4.2433,-4.2433,-4.313,-4.3515,-4.3515,-4.3515,-4.3515,-4.3515,-4.3515,-4.3515,-4.3515,-4.3515,-4.3515,-4.3515,-4.3515,-4.3515,-4.3515,-4.3515,-4.3515,-4.3515,-4.3515,-4.3515,-4.3515,-4.3515,-4.3515,-4.3515,-1.2381,-1.1925,-1.1756,-1.2212,-1.1908,-1.2398,-1.4783,-1.6339,-1.7997,-2.0124,-2.1156,-2.2967,-2.6319,-2.4847,-2.4357,-2.6251,-2.4188,-2.2073,0.0,-1.8838,-1.7416,-1.617,-1.4082,-1.3083,-1.3396,-1.277,-1.2542,-1.2762,-1.288,-1.31,-1.3396,-1.3396,-1.4014,-1.5138,-1.5262,0.0,-2.2595,0.0,-2.3783,0.0,0.0,-2.9732,0.0,-3.8346,-4.1099,-4.0468,-4.0203,-4.0821,-4.0965,0.0,-3.5715,0.0,0.0,0.0,0.0,-2.9017,0.0,0.0,0.0,0.0,0.0,0.0,0.0,0.0,-1.9582,0.0,-1.723,0.0,0.0,0.0,0.0,0.0,0.0,0.0,-1.6915,0.0,0.0,0.0,-2.1612,0.0,0.0,0.0,-3.1696,-3.1366,-3.2454,-3.5903,-3.5661,-3.5991,-3.7481,-4.0123,-4.1827,-4.2286,-4.2635,-4.302,-4.3515,-4.3515,-4.3515,-4.3515,-4.3515,-4.3515,-4.3515,-4.3515,-4.3515,-4.3515,-4.3515,-4.3515,-4.3515,-4.3515,-4.3515,-4.3515,-4.3515,-4.3515,-4.3515,-4.3515,-4.3515,-4.3515,-1.2711,0.0,0.0,-1.2508,-1.2118,-1.2745,-1.5747,-1.8544,-2.0995,-2.2868,-2.3357,-2.4728,-2.7893,-2.659,-2.6522,-2.9108,-2.779,-2.6522,0.0,-2.2612,-2.0653,-2.0446,-1.6299,-1.4285,-1.4894,-1.4116,-1.3337,-1.2609,-1.3142,-1.3489,-1.3692,-1.3489,-1.4183,-1.5622,-1.5887,-1.901,-2.4007,0.0,-2.5617,-2.9816,-3.0337,-3.0975,-3.229,-3.8575,-4.1413,-4.1828,-4.0057,-4.0438,-4.0912,-3.5051,-3.5327,-3.7399,-3.3359,-3.1461,-3.0886,0.0,0.0,0.0,-2.6708,0.0,0.0,0.0,0.0,0.0,0.0,0.0,0.0,0.0,0.0,0.0,0.0,0.0,0.0,0.0,0.0,-1.6751,0.0,-1.6431,0.0,0.0,0.0,0.0,0.0,-2.7842,-2.829,-3.1372,-3.1953,-3.2999,-3.4912,-3.8453,-4.0802,-4.1625,-4.2066,-4.258,-4.3167,-4.3404,-4.3515,-4.3515,-4.3515,-4.3515,-4.3515,-4.3515,-4.3515,-4.3515,-4.3515,-4.3515,-4.3515,-4.3515,-4.3515,-4.3515,-4.3515,-4.3515,-4.3515,-4.3515,-4.3515,-4.3515,-1.3379,-1.3345,0.0,-1.3362,-1.3345,-1.4319,-1.7276,-1.9672,-2.2798,-2.7385,-2.554,-2.5912,-3.1515,-2.7994,-2.7367,-3.2763,-3.1224,-2.9651,-2.8908,-2.6674,-2.5067,-2.4355,-1.8668,-1.6525,-1.8685,-1.5933,-1.4107,-1.3362,-1.3396,-1.3777,-1.4453,-1.3726,-1.4183,-1.5649,-1.6615,-1.9882,-2.4807,-2.6696,-3.1676,-3.824,-3.7356,-3.8094,-3.9668,0.0,-4.0411,-4.2674,-4.2582,-4.223,-4.1252,-3.7574,-3.6452,-3.6333,-3.484,0.0,0.0,0.0,0.0,0.0,0.0,0.0,0.0,-2.4798,0.0,0.0,0.0,0.0,-1.971,0.0,0.0,0.0,0.0,0.0,0.0,0.0,0.0,0.0,0.0,0.0,0.0,0.0,0.0,0.0,0.0,-2.252,-2.3988,-2.8767,-2.8429,-3.0044,-3.4747,-3.7389,-3.9148,-3.9937,-4.1497,-4.2304,-4.2341,-4.3112,-4.3515,-4.3515,-4.3515,-4.3515,-4.3515,-4.3515,-4.3515,-4.3515,-4.3515,-4.3515,-4.3515,-4.3515,-4.3515,-4.3515,-4.3515,-4.3515,-4.3515,-4.3515,-4.3515,-4.3515,0.0,0.0,0.0,-1.3566,-1.3396,-1.4386,-1.7343,-1.9752,-2.2172,-2.4931,-2.4423,-2.6048,-3.1918,-3.114,-3.183,-3.6011,-3.7483,-3.6806,-3.3592,-3.2188,-3.1157,-3.0412,-2.5609,-2.2378,-2.1177,-1.9688,-1.7602,-1.486,-1.436,-1.4513,-1.5206,-1.3963,-1.4446,-1.636,-1.719,-2.0448,0.0,0.0,0.0,0.0,0.0,-3.6913,-3.889,0.0,-4.0195,-4.0978,-4.0978,-4.0838,-4.0317,-3.801,-3.7641,-3.798,-3.6895,-3.5279,-3.4257,-3.6738,-3.4831,-3.2044,-3.2808,-3.3671,-3.3455,-2.9538,0.0,0.0,0.0,0.0,0.0,0.0,0.0,0.0,0.0,0.0,0.0,0.0,0.0,0.0,0.0,0.0,0.0,0.0,0.0,0.0,0.0,0.0,-2.0152,-2.3951,-2.3979,-2.5007,-2.7714,-3.2687,-3.5826,-3.6619,-3.9811,-4.1772,-4.2286,-4.3094,-4.3515,-4.3515,-4.3515,-4.3515,-4.3515,-4.3515,-4.3515,-4.3515,-4.3515,-4.3515,-4.3515,-4.3515,-4.3515,-4.3515,-4.3515,-4.3515,-4.3515,-4.3515,-4.3515,-4.3515,-1.524,-1.5274,-1.5291,-1.4353,-1.4826,-1.6367,-1.9333,-2.1701,-2.4203,-2.7114,-2.6556,-2.8519,-3.5368,-3.5656,-3.6248,-3.8481,-3.9445,-3.9478,-3.8439,-3.4455,-3.322,-3.5673,-2.9702,-2.6285,-2.6252,-2.3458,-2.0801,-1.8369,-1.6306,-1.5798,-1.6728,-1.4996,-1.508,-1.6766,0.0,-2.0679,-2.4466,-2.8471,-3.1611,0.0,0.0,-3.7044,0.0,0.0,-3.9532,-4.0417,-4.0642,-4.0441,-3.9926,-3.8842,-3.889,-3.9306,-3.8671,-3.7558,-3.688,-3.8826,-3.7143,-3.4857,-3.5825,-3.6576,-3.6263,-3.2842,-3.1417,0.0,-2.6131,0.0,-2.3206,0.0,0.0,0.0,0.0,0.0,0.0,0.0,0.0,0.0,0.0,-1.42,0.0,0.0,0.0,0.0,0.0,0.0,-1.7711,-2.0692,-2.1188,0.0,0.0,-3.0613,-3.4174,-3.4968,-3.8967,-4.1352,-4.1882,-4.2947,-4.3515,-4.3515,-4.3515,-4.3515,-4.3515,-4.3515,-4.3515,-4.3515,-4.3515,-4.3515,-4.3515,-4.3515,-4.3515,-4.3515,-4.3515,-4.3515,-4.3515,-4.3515,-4.3515,-4.3515,-1.6136,-1.5798,-1.5883,-1.5883,-1.7619,-2.0044,-2.3139,-2.549,-2.8604,-3.3292,-3.1616,-3.3089,-4.1187,-4.117,-4.0443,-4.0197,-3.755,-3.7949,-4.2801,-3.3892,0.0,0.0,-3.1393,-2.8653,-3.3406,-2.7199,-2.3799,-2.3613,-1.9075,-1.7602,-1.8961,-1.6661,-1.5994,-1.68,-1.8966,0.0,-2.2191,-2.9258,-3.3298,-3.51,-3.6798,-3.8488,-3.9774,-3.7729,-3.8556,-4.0926,-4.1512,-4.103,-4.0096,-4.0121,-4.0121,-4.0096,-4.0121,-4.0121,-4.0096,-4.0096,-4.0449,-4.0595,-3.938,-3.9429,-3.8841,-3.4708,-3.402,-3.3074,-2.8185,0.0,-2.9535,0.0,0.0,0.0,0.0,0.0,0.0,0.0,0.0,0.0,0.0,0.0,0.0,0.0,0.0,0.0,0.0,0.0,-1.6653,-1.8948,-1.9869,0.0,0.0,-3.0815,-3.3807,-3.4857,-3.8655,-4.0802,-4.1095,-4.2543,-4.3349,-4.3515,-4.3515,-4.3515,-4.3515,-4.3515,-4.3515,-4.3515,-4.3515,-4.3515,-4.3515,-4.3515,-4.3515,-4.3515,-4.3515,-4.3515,-4.3515,-4.3515,-4.3515,-4.3515,-1.7563,-1.8589,-1.9752,-1.9752,-2.0226,-2.1986,-2.6049,-2.8586,-2.9973,-2.977,-3.229,-3.5351,-3.8667,-4.3639,-4.5229,-4.1525,-4.051,-3.9851,-3.9343,0.0,0.0,-4.3261,-3.9977,-3.7077,-3.5076,-3.2273,-2.9482,-2.6674,-2.162,-1.9655,-2.053,-1.7179,-1.5994,-1.6766,0.0,0.0,-2.2565,-2.8826,-3.3658,-3.7016,-3.6104,-3.685,-3.8475,-3.8594,-3.9335,-4.0336,-4.049,-4.0336,-4.0171,-4.0552,-4.0441,-4.0154,-4.0577,-4.0417,-4.0096,-4.0096,-4.0204,-4.0228,-3.9926,-3.9932,-3.9615,-3.797,-3.6333,-3.4625,-3.2776,-3.188,-3.1168,0.0,0.0,0.0,0.0,0.0,0.0,0.0,0.0,0.0,0.0,0.0,0.0,0.0,0.0,0.0,0.0,0.0,-1.5955,-1.658,-1.7374,0.0,-2.3703,-2.5676,-2.8686,-3.3078,-3.4234,-3.682,-4.1058,-4.0322,-4.113,-4.3515,-4.3515,-4.3515,-4.3515,-4.3515,-4.3515,-4.3515,-4.3515,-4.3515,-4.3515,-4.3515,-4.3515,-4.3515,-4.3515,-4.3515,-4.3515,-4.3515,-4.3515,-4.3515,-1.957,-2.0242,-2.1376,-2.2443,-2.4271,-2.6623,-2.9768,-3.1343,-3.278,-3.4506,-3.5228,-3.7425,-4.2236,-4.6498,-4.7885,-4.5077,-4.2151,-4.0832,-4.1728,0.0,0.0,-4.4395,-4.2516,-3.9986,-3.7161,-3.5639,0.0,-2.9296,-2.4374,-2.187,-2.1613,-1.8166,-1.6441,-1.6333,0.0,-2.0619,-2.2276,-2.9228,-3.4387,-3.7811,-3.6757,-3.7733,0.0,-3.9336,-3.9969,-4.1077,-4.1077,-4.0654,-4.0146,-4.0449,-4.0343,-4.0146,-4.0449,-4.0343,-4.0096,-4.0096,-4.0096,-4.0096,-4.0096,-4.0096,-4.0011,-3.9588,-3.8637,-3.7455,-3.6165,-3.5583,-3.5069,-3.4165,-3.4054,-3.3638,-3.2046,-2.8636,0.0,0.0,0.0,0.0,0.0,0.0,0.0,0.0,0.0,0.0,0.0,0.0,-1.5092,-1.6151,-1.6633,0.0,0.0,-2.452,-2.7438,-2.9904,-3.2362,-3.5023,-3.7881,-3.7404,-3.8744,-4.1936,-4.1936,-4.2486,-4.3515,-4.3515,-4.3515,-4.3515,-4.3515,-4.3515,-4.3515,-4.3515,-4.3515,-4.3515,-4.3515,-4.3515,-4.3515,-4.3515,-4.3515,-4.3515,-2.1664,-2.1309,-2.2037,-2.4372,-2.8028,-3.1376,-3.3643,-3.4489,-3.6823,-4.2286,-3.9454,-3.9825,-4.7411,-4.8697,-4.8798,-4.8274,-4.2658,-4.117,-4.5991,-3.9005,-3.7804,-4.4886,-4.2398,-4.0502,-3.9749,-3.8099,-3.5492,0.0,-2.7148,-2.3917,-2.2229,-1.9101,0.0,0.0,0.0,0.0,0.0,-2.9989,-3.4928,-3.8041,-3.8041,-3.9631,-4.1813,-4.0189,-4.0696,-4.2286,-4.2286,-4.139,-4.0248,-4.0248,-4.018,-4.0096,-4.0096,-4.0096,-4.0096,-4.0096,-4.0096,-4.0096,-4.0096,-4.0096,-4.0096,-4.0096,-4.0504,-4.0435,-3.8693,-3.9046,-3.9501,-3.8497,-3.7585,-3.6935,-3.6825,-3.1345,0.0,0.0,0.0,0.0,0.0,0.0,0.0,0.0,0.0,0.0,0.0,0.0,0.0,0.0,0.0,0.0,0.0,0.0,-2.7482,-2.6932,-3.1555,-3.4124,-3.4284,-3.4706,-3.6762,-4.0359,-4.0063,-4.1148,-4.3515,-4.3515,-4.3515,-4.3515,-4.3515,-4.3515,-4.3515,-4.3515,-4.3515,-4.3515,-4.3515,-4.3515,-4.3515,-4.3515,-4.3515,-4.3515,-2.2649,-2.3052,0.0,-2.6031,-2.6979,-2.9651,-3.6129,-4.0257,-4.2574,-4.2455,-4.3453,-4.4153,-4.4147,-4.7056,-4.7699,-4.4434,-4.1525,-4.101,-4.3589,-4.2269,0.0,-4.8037,-4.5974,-4.4367,-4.365,-4.0942,-3.8319,-3.5831,-2.945,-2.4932,-2.2212,-1.8589,0.0,0.0,0.0,0.0,-2.9499,-3.0328,0.0,-3.8802,-3.8802,-3.9462,-4.0654,-4.2083,-4.2489,-4.2286,-4.2286,-4.1728,-4.1018,-4.1018,-4.0595,-4.0096,-4.0096,-4.0096,-4.0096,-4.0096,-4.0096,-4.0096,-4.0096,-4.0096,-4.0096,-4.0096,-4.0504,-4.081,-4.0452,-4.0545,-4.0619,-4.0423,-3.9898,-3.8938,-3.714,-3.1765,0.0,0.0,0.0,0.0,0.0,0.0,0.0,0.0,0.0,0.0,0.0,0.0,0.0,0.0,0.0,0.0,0.0,0.0,-2.3327,-2.8418,-2.8888,-3.158,-3.6795,-3.4963,-3.7,-4.2854,-4.0852,-4.1148,-4.3515,-4.3515,-4.3515,-4.3515,-4.3515,-4.3515,-4.3515,-4.3515,-4.3515,-4.3515,-4.3515,-4.3515,-4.3515,-4.3515,-4.3515,-4.3515,-2.7199,0.0,0.0,0.0,-2.9922,-3.2679,-3.3203,-4.1018,-4.6616,-4.5872,-4.5483,-4.4908,-4.3978,-4.6938,-4.824,-4.6329,-4.528,-4.5128,-4.6109,-4.3267,-4.3775,-4.8781,-4.7986,-4.5974,-4.2895,-4.2151,-3.9766,-3.5627,-3.0431,-2.6369,-2.3342,-1.9198,0.0,0.0,0.0,-2.5236,0.0,0.0,-3.6028,-3.9123,-4.0663,-4.1728,-4.255,-4.3606,-4.3792,-4.3498,-4.3498,-4.2997,-4.2286,-4.1897,-4.1525,-4.1153,-4.0781,-4.0663,-4.0595,-4.0214,-4.0096,-4.0096,-4.0096,-4.0096,-4.0096,-4.0096,-4.0286,-4.0497,-4.0497,-4.0703,-4.0827,-4.0528,-4.0497,-3.9501,-3.6197,-3.229,-2.8602,0.0,0.0,0.0,0.0,0.0,0.0,0.0,0.0,0.0,0.0,0.0,0.0,0.0,0.0,0.0,-1.9124,-2.0105,-2.262,-2.6998,-2.797,-3.0723,-3.5532,-3.4394,-3.6431,-4.1623,-4.0467,-4.1148,-4.3515,-4.3515,-4.3515,-4.3515,-4.3515,-4.3515,-4.3515,-4.3515,-4.3515,-4.3515,-4.3515,-4.3515,-4.3515,-4.3515,-4.3515,-4.3515,-3.2987,-3.2713,-3.1782,-2.9871,-3.4962,-3.8159,-3.473,-4.3166,-4.9729,-4.9086,-4.7242,-4.5991,-4.5991,-4.78,-4.9001,-4.9001,-4.9001,-4.9001,-4.9001,-4.4621,-4.4085,-4.8798,-4.8849,-4.6853,-4.2726,-4.3301,-4.1035,-3.5673,-3.1989,-2.8299,-2.466,-2.0788,0.0,0.0,0.0,0.0,0.0,-3.5842,-3.87,-4.0138,-4.2446,-4.3876,-4.4615,-4.4615,-4.4615,-4.4615,-4.4615,-4.4181,-4.3572,-4.298,-4.2557,-4.2185,-4.1627,-4.1441,-4.1288,-4.057,-4.0333,-4.0316,-4.0146,-4.0096,-4.0096,-4.0096,-4.0096,-4.0096,-4.0096,-4.0441,-4.0625,-4.0179,-4.0424,-3.9559,-3.57,-3.3423,-3.119,0.0,0.0,0.0,0.0,0.0,0.0,0.0,0.0,0.0,0.0,0.0,0.0,0.0,0.0,0.0,-1.7587,-1.9785,-2.2271,-2.5062,-2.7328,-3.0124,-3.3513,-3.3715,-3.6101,-4.0669,-4.0139,-4.1148,-4.3515,-4.3515,-4.3515,-4.3515,-4.3515,-4.3515,-4.3515,-4.3515,-4.3515,-4.3515,-4.3515,-4.3515,-4.3515,-4.3515,-4.3515,-4.3515,-3.8742,-4.5585,-4.8426,-4.0265,-4.1677,-4.5602,-5.0473,-5.2283,-5.2097,-4.9373,-4.9932,-5.0591,-5.0591,-4.9644,-4.9001,-4.9001,-4.9001,-4.9001,-4.9001,-4.8477,-4.8426,-4.8984,-4.8376,-4.7753,-4.7263,-4.5432,-4.2871,0.0,-3.5831,-3.1072,-2.5456,-2.3697,-2.3545,0.0,0.0,-3.2053,-3.6152,-3.7381,-3.9884,-4.3003,-4.3274,-4.3876,-4.4615,-4.4615,-4.4615,-4.4615,-4.4615,-4.4564,-4.4496,-4.4412,-4.3464,-4.2286,-4.2219,-4.2185,-4.2049,-4.1305,-4.1102,-4.095,-4.0282,-4.0096,-4.0096,-4.0096,-4.0096,-4.0096,-4.0096,-4.0146,-4.0171,-4.0096,-4.0146,-3.9442,-3.7015,-3.5825,-3.3571,-2.8618,0.0,0.0,0.0,0.0,0.0,0.0,0.0,0.0,0.0,-1.5347,0.0,0.0,-1.446,0.0,-1.9953,-1.9062,-2.0244,-2.419,-2.5952,-2.8712,-3.2674,-3.344,-3.6945,-4.3147,-4.0946,-4.1148,-4.3515,-4.3515,-4.3515,-4.3515,-4.3515,-4.3515,-4.3515,-4.3515,-4.3515,-4.3515,-4.3515,-4.3515,-4.3515,-4.3515,-4.3515,-4.3515,-4.5196,-4.6904,-4.8139,-4.8156,-4.6177,-4.6599,-5.2587,-5.3501,-5.3078,-5.186,-5.2215,-5.2587,-5.2587,-5.2063,-5.1708,-5.1708,-4.3504,-4.1356,-4.8528,-4.9001,-4.9001,-4.9001,-4.8731,-4.8359,-4.7906,-4.6599,-4.4654,-4.2083,-3.6992,-3.2831,-2.9548,-2.6708,-2.6911,-2.9736,-3.2784,-3.5605,-3.8268,-4.0324,-4.204,-4.3426,-4.3927,-4.4299,-4.4615,-4.4615,-4.4615,-4.4615,-4.4615,-4.4615,-4.4615,-4.4615,-4.4192,-4.3616,-4.3115,-4.2963,-4.2828,-4.2083,-4.1542,-4.1136,-4.0832,-4.0451,-4.0096,-4.0096,-4.0096,-4.0096,-4.0096,-4.0096,-4.0096,-4.0096,-4.0096,-3.9825,-3.8945,-3.7043,-3.4771,-3.2239,0.0,0.0,0.0,0.0,0.0,0.0,0.0,0.0,0.0,0.0,0.0,0.0,0.0,0.0,-1.7491,-1.8841,-2.1198,-2.4805,-2.6961,-3.0693,-3.6211,-3.6101,-3.8539,-4.3496,-4.2506,-4.2578,-4.3515,-4.3515,-4.3515,-4.3515,-4.3515,-4.3515,-4.3515,-4.3515,-4.3515,-4.3515,-4.3515,-4.3515,-4.3515,-4.3515,-4.3515,-4.3515,-5.0152,-4.8646,-4.8545,-5.2756,-5.0016,-4.8409,-5.1961,-5.3078,-5.3501,-5.3501,-5.3501,-5.3501,-5.3501,-5.3501,-5.3501,-5.3501,-4.3859,-4.1322,-4.9779,-4.9898,-4.9458,-4.9018,-4.9204,-4.8984,-4.8227,-4.7513,-4.6227,-4.4418,-3.9512,-3.6146,-3.4197,-3.1106,-3.1328,-3.4392,-3.7185,-3.9266,-4.0781,-4.3115,-4.4215,-4.4451,-4.501,-4.5258,-4.5258,-4.5258,-4.5122,-4.4908,-4.4908,-4.4801,-4.4615,-4.4615,-4.4615,-4.4513,-4.3927,-4.3758,-4.3606,-4.2844,-4.2252,-4.1762,-4.1322,-4.0815,-4.0383,-4.0146,-4.0096,-4.0096,-4.0096,-4.0096,-4.0096,-4.0096,-4.0096,-4.0096,-4.0096,-3.8007,-3.5802,-3.4404,0.0,0.0,0.0,-2.7655,0.0,0.0,-2.3444,-2.1701,-2.191,-1.8914,0.0,0.0,0.0,0.0,-1.7741,-1.908,-2.1528,-2.5283,-2.6814,-3.0583,-3.6853,-3.6798,-3.9035,-4.3515,-4.3515,-4.3515,-4.3515,-4.3515,-4.3515,-4.3515,-4.3515,-4.3515,-4.3515,-4.3515,-4.3515,-4.3515,-4.3515,-4.3515,-4.3515,-4.3515,-4.3515,-4.3515,-5.2858,-5.3416,-5.3416,-5.3501,-5.345,-5.2655,-5.0456,-5.2046,-5.3501,-5.3501,-5.3501,-5.3501,-5.3501,-5.3501,-5.3501,-5.3501,-5.3331,-5.3298,-5.345,-5.2029,-5.0541,-4.9069,-4.9695,-4.9729,-4.9001,-4.8244,-4.753,-4.6752,-4.4434,-4.1796,-3.8886,-3.7388,-3.7489,-3.9005,-4.1238,-4.3081,-4.4581,-4.5348,-4.6092,-4.6752,-4.6752,-4.6752,-4.6752,-4.6752,-4.6312,-4.5703,-4.5703,-4.5213,-4.4615,-4.4615,-4.4615,-4.4615,-4.4598,-4.4598,-4.4445,-4.3639,-4.3375,-4.3054,-4.161,-4.1204,-4.1018,-4.0282,-4.0096,-4.0096,-4.0096,-4.0096,-4.0096,-4.0096,-4.0096,-4.0096,-4.0096,-3.887,-3.6907,-3.3914,-3.3389,0.0,0.0,-2.7334,0.0,0.0,-2.1857,-2.0107,-2.0311,-1.8246,0.0,0.0,0.0,0.0,0.0,-1.9869,-2.0354,-2.5246,-2.4658,-2.6979,-3.2619,-3.4234,-3.7885,-4.3515,-4.3515,-4.3515,-4.3515,-4.3515,-4.3515,-4.3515,-4.3515,-4.3515,-4.3515,-4.3515,-4.3515,-4.3515,-4.3515,-4.3515,-4.3515,-4.3515,-4.3515,-4.3515,-4.7631,-5.071,-5.301,-5.1454,-5.2469,-5.3264,-5.2536,-5.3044,-5.3501,-5.3501,-5.3501,-5.3501,-5.3501,-5.3501,-5.3501,-5.3501,-5.3501,-5.3501,-5.3501,-5.3044,-5.257,-5.2097,-4.9847,-4.8257,-4.7513,-4.7276,-4.6532,-4.5309,-4.4553,-4.3183,-4.1238,-4.0764,-4.1627,-4.3606,-4.4299,-4.5162,-4.6109,-4.6346,-4.6583,-4.6786,-4.6786,-4.6786,-4.6786,-4.6786,-4.665,-4.6447,-4.6447,-4.5974,-4.5348,-4.5348,-4.501,-4.4615,-4.4615,-4.4615,-4.4564,-4.4282,-4.3826,-4.3291,-4.2817,-4.1982,-4.1136,-4.0899,-4.046,-4.0096,-4.0096,-4.0096,-4.0096,-4.0096,-4.0096,-4.0096,-4.0096,-3.8886,-3.7077,-3.4556,-3.4573,0.0,-2.9583,0.0,-2.872,0.0,-2.4137,-2.2542,-2.3104,-2.1596,0.0,0.0,0.0,0.0,0.0,-2.3786,-2.5676,-2.7787,-3.0271,-3.3243,-3.671,-3.7261,-3.9533,-4.3515,-4.3515,-4.3515,-4.3515,-4.3515,-4.3515,-4.3515,-4.3515,-4.3515,-4.3515,-4.3515,-4.3515,-4.3515,-4.3515,-4.3515,-4.3515,-4.3515,-4.3515,-4.3515,-4.8291,-5.0947,-5.3061,-5.1623,-5.2553,-5.3213,-5.235,-5.2959,-5.3196,-5.2334,-5.2976,-5.3501,-5.3501,-5.3501,-5.3501,-5.3501,-5.3501,-5.208,-4.868,-5.1623,-5.3501,-5.3501,-5.1268,-4.9526,-4.8477,-4.846,-4.7868,-4.668,-4.6109,-4.5196,-4.3978,-4.3978,-4.4739,-4.6126,-4.6413,-4.6786,-4.7225,-4.7513,-4.7631,-4.7631,-4.7631,-4.7631,-4.7631,-4.7631,-4.7445,-4.7208,-4.7208,-4.6735,-4.6109,-4.6109,-4.5805,-4.5393,-4.5094,-4.4993,-4.4942,-4.4682,-4.4231,-4.3792,-4.3477,-4.2743,-4.1897,-4.1339,-4.0849,-4.0426,-4.0163,-4.0096,-4.0096,-4.0096,-4.0096,-4.0096,-4.0096,-3.9106,-3.7753,-3.6045,-3.5926,-3.4962,-3.1782,0.0,-2.9835,0.0,0.0,-2.4695,0.0,-2.4847,-2.4411,0.0,0.0,0.0,-2.5914,-2.6206,-2.7416,-2.9831,-3.2913,-3.5885,-3.867,-3.9001,-4.0598,-4.3515,-4.3515,-4.3515,-4.3515,-4.3515,-4.3515,-4.3515,-4.3515,-4.3515,-4.3515,-4.3515,-4.3515,-4.3515,-4.3515,-4.3515,-4.3515,-4.3515,-4.3515,-4.3515,-5.3061,-5.3298,-5.345,-5.3298,-5.3399,-5.279,-5.0659,-5.2131,-5.2739,-5.0608,-5.2181,-5.3501,-5.3501,-5.3501,-5.3501,-5.3501,-5.3501,-4.9949,-4.1585,-4.8849,-5.3501,-5.3501,-5.3501,-5.2739,-5.1067,-5.1065,-5.0777,-5.0168,-4.8765,-4.7716,-4.7022,-4.6972,-4.6938,-4.6972,-4.7682,-4.7973,-4.8007,-4.8714,-4.9001,-4.9001,-4.9001,-4.9001,-4.9001,-4.9001,-4.8578,-4.7973,-4.7973,-4.7513,-4.687,-4.687,-4.6836,-4.6667,-4.5991,-4.5788,-4.5618,-4.4852,-4.4615,-4.4445,-4.369,-4.3426,-4.3054,-4.1711,-4.1288,-4.1018,-4.0282,-4.0096,-4.0096,-4.0096,-4.0096,-4.0096,-4.0096,-3.9503,-3.8751,-3.8024,-3.7229,-3.5915,-3.3575,-3.207,-3.0362,0.0,0.0,-2.6725,-2.5964,-2.796,-2.9034,0.0,0.0,0.0,-3.2732,-2.7578,-2.6772,-3.1751,-3.3513,-3.5862,-3.8927,-3.9753,-4.1277,-4.3515,-4.3515,-4.3515,-4.3515,-4.3515,-4.3515,-4.3515,-4.3515,-4.3515,-4.3515,-4.3515,-4.3515,-4.3515,-4.3515,-4.3515,-4.3515,-4.3515,-4.3515,-4.3515,-4.8714,-5.115,-5.2959,-5.12,-5.2334,-5.3315,-5.279,-5.3162,-5.3315,-5.2773,-5.3162,-5.3501,-5.3501,-5.3501,-5.3501,-5.3501,-5.3501,-5.2604,-5.0473,-5.2317,-5.3501,-5.3501,-5.3501,-5.2249,-4.9593,-4.9526,-4.9999,-5.0947,-5.0033,-4.9492,-4.9289,-4.8748,-4.8477,-4.8494,-4.8663,-4.8748,-4.8748,-4.8934,-4.9001,-4.9001,-4.9001,-4.9001,-4.9001,-4.9001,-4.89,-4.8748,-4.8748,-4.8274,-4.7648,-4.7648,-4.7276,-4.6752,-4.6583,-4.6532,-4.6278,-4.4987,-4.4615,-4.4564,-4.4378,-4.3876,-4.3308,-4.298,-4.2033,-4.1018,-4.0282,-4.0096,-4.0096,-4.0096,-4.0096,-4.0096,-4.0096,-3.9503,-3.8751,-3.8024,-3.6772,-3.4912,-3.2104,-3.141,-3.0362,0.0,-2.9178,-2.9837,-2.911,-3.1055,-3.1382,-2.9,0.0,-2.9968,-3.1199,-3.141,-3.3184,-3.6857,-3.9129,-4.0653,-4.1442,-4.2249,-4.2928,-4.3515,-4.3515,-4.3515,-4.3515,-4.3515,-4.3515,-4.3515,-4.3515,-4.3515,-4.3515,-4.3515,-4.3515,-4.3515,-4.3515,-4.3515,-4.3515,-4.3515,-4.3515,-4.3515,-5.0101,-5.1826,-5.3112,-5.186,-5.2689,-5.3501,-5.3501,-5.3501,-5.3501,-5.3501,-5.3501,-5.3501,-5.3501,-5.3501,-5.3501,-5.3501,-5.3501,-5.3501,-5.3501,-5.3501,-5.3501,-5.3501,-5.3501,-5.2739,-5.1099,-5.1065,-5.1285,-5.1708,-5.0963,-5.0608,-5.0591,-5.0202,-5.0016,-5.0016,-5.0016,-5.0016,-5.0016,-5.0016,-4.9813,-4.9492,-4.9492,-4.9306,-4.9001,-4.9001,-4.9001,-4.9001,-4.9001,-4.8748,-4.8409,-4.8409,-4.8139,-4.775,-4.7411,-4.731,-4.7073,-4.5923,-4.5376,-4.501,-4.4699,-4.4265,-4.3859,-4.3477,-4.2303,-4.1102,-4.0679,-4.035,-4.0096,-4.0096,-4.0096,-4.0096,-4.0096,-3.9503,-3.8751,-3.8024,-3.6332,-3.4303,-3.2022,-3.1123,-3.0497,-2.9922,-3.1241,-3.2307,-3.2591,-3.4353,-3.4658,-3.2716,-3.2273,-3.2753,-3.4248,-3.4824,-3.6149,-3.8435,-4.0986,-4.2368,-4.2468,-4.3155,-4.3515,-4.3515,-4.3515,-4.3515,-4.3515,-4.3515,-4.3515,-4.3515,-4.3515,-4.3515,-4.3515,-4.3515,-4.3515,-4.3515,-4.3515,-4.3515,-4.3515,-4.3515,-4.3515,-4.3515,-5.3501,-5.3501,-5.3501,-5.3501,-5.3501,-5.3501,-5.3501,-5.3501,-5.3501,-5.3501,-5.3501,-5.3501,-5.3501,-5.3501,-5.3501,-5.3501,-5.3501,-5.3501,-5.3501,-5.3501,-5.3501,-5.3501,-5.3501,-5.3501,-5.3501,-5.3501,-5.3179,-5.2486,-5.1742,-5.1386,-5.1369,-5.1236,-5.1185,-5.1185,-5.1185,-5.1185,-5.1185,-5.1185,-5.0845,-5.027,-5.027,-4.9881,-4.9323,-4.9221,-4.9171,-4.9154,-4.9035,-4.9001,-4.9001,-4.9001,-4.9001,-4.89,-4.8244,-4.8058,-4.7936,-4.7175,-4.6515,-4.5855,-4.4993,-4.4682,-4.4429,-4.3606,-4.2472,-4.1474,-4.1255,-4.0713,-4.0231,-4.013,-4.0096,-4.0096,-4.0096,-3.9605,-3.8768,-3.7584,-3.5757,-3.3884,-3.2056,-3.1106,-3.1055,-3.2327,-3.3423,-3.4573,-3.5819,-3.7121,-3.7686,-3.7168,-3.5831,-3.6082,-3.852,-3.7594,-3.7425,-3.8395,-4.0889,-4.2396,-4.2693,-4.3232,-4.3515,-4.3515,-4.3515,-4.3515,-4.3515,-4.3515,-4.3515,-4.3515,-4.3515,-4.3515,-4.3515,-4.3515,-4.3515,-4.3515,-4.3515,-4.3515,-4.3515,-4.3515,-4.3515,-4.3515,-5.3501,-5.3501,-5.3501,-5.3501,-5.3501,-5.3501,-5.3501,-5.3501,-5.3501,-5.3501,-5.3501,-5.3501,-5.3501,-5.3501,-5.3501,-5.3501,-5.3501,-5.3501,-5.3501,-5.3501,-5.3501,-5.3501,-5.3501,-5.3501,-5.3501,-5.3501,-5.345,-5.3315,-5.252,-5.2131,-5.2131,-5.1505,-5.1185,-5.1185,-5.1185,-5.1185,-5.1185,-5.1185,-5.1117,-5.1048,-5.1048,-5.098,-5.0794,-5.0168,-4.9915,-4.9847,-4.9221,-4.9001,-4.9001,-4.9001,-4.9001,-4.8984,-4.8883,-4.8832,-4.8697,-4.797,-4.7635,-4.7246,-4.5906,-4.506,-4.4429,-4.3606,-4.3223,-4.2716,-4.1491,-4.1119,-4.0849,-4.0231,-4.0096,-4.0096,-4.0096,-4.0011,-3.886,-3.5554,-3.4726,-3.3322,-2.9974,-3.1461,-3.2983,-3.3203,-3.5588,-3.7297,-3.751,-3.777,-3.8108,-3.8616,-3.7855,-3.7835,-3.888,-3.9158,-3.9163,-3.8887,-4.0814,-4.2139,-4.2693,-4.3232,-4.3515,-4.3515,-4.3515,-4.3515,-4.3515,-4.3515,-4.3515,-4.3515,-4.3515,-4.3515,-4.3515,-4.3515,-4.3515,-4.3515,-4.3515,-4.3515,-4.3515,-4.3515,-4.3515,-4.3515,-5.3501,-5.3501,-5.3501,-5.3501,-5.3501,-5.3501,-5.3501,-5.3501,-5.3501,-5.3501,-5.3501,-5.3501,-5.3501,-5.3501,-5.3501,-5.3501,-5.3501,-5.3501,-5.3501,-5.3501,-5.3501,-5.3501,-5.3501,-5.3501,-5.3501,-5.3501,-5.3501,-5.3501,-5.3129,-5.2959,-5.2942,-5.2604,-5.2452,-5.2452,-5.2452,-5.2452,-5.2452,-5.2452,-5.2198,-5.1792,-5.1792,-5.1555,-5.1151,-5.0828,-5.0693,-5.0608,-4.9864,-4.9593,-4.9526,-4.9137,-4.9001,-4.9001,-4.9001,-4.9001,-4.8934,-4.8595,-4.7665,-4.6583,-4.5889,-4.5162,-4.4513,-4.413,-4.3724,-4.3206,-4.2557,-4.1779,-4.1102,-4.0747,-4.0383,-4.0096,-4.0096,-3.9791,-3.8945,-3.7195,-3.5554,-3.4032,-3.2747,-3.3389,-3.4303,-3.5131,-3.7161,-3.865,-3.9039,-3.9073,-3.9249,-3.9571,-3.9276,-3.9225,-3.9571,-3.9825,-3.9849,-3.9605,-4.1021,-4.2101,-4.2693,-4.3232,-4.3515,-4.3515,-4.3515,-4.3515,-4.3515,-4.3515,-4.3515,-4.3515,-4.3515,-4.3515,-4.3515,-4.3515,-4.3515,-4.3515,-4.3515,-4.3515,-4.3515,-4.3515,-4.3515,-4.3515,-5.3501,-5.3501,-5.3501,-5.3501,-5.3501,-5.3501,-5.3501,-5.3501,-5.3501,-5.3501,-5.3501,-5.3501,-5.3501,-5.3501,-5.3501,-5.3501,-5.3501,-5.3501,-5.3501,-5.3501,-5.3501,-5.3501,-5.3501,-5.3501,-5.3501,-5.3501,-5.3501,-5.3501,-5.3501,-5.3501,-5.3501,-5.3501,-5.3501,-5.3501,-5.3501,-5.3501,-5.3501,-5.3501,-5.3145,-5.2587,-5.2587,-5.2249,-5.1725,-5.1539,-5.1471,-5.1369,-5.0625,-5.0355,-5.0236,-4.9509,-4.9255,-4.9221,-4.9052,-4.9001,-4.9001,-4.9001,-4.7682,-4.6143,-4.5805,-4.528,-4.479,-4.4649,-4.413,-4.3639,-4.3426,-4.2513,-4.161,-4.1271,-4.0747,-4.0316,-4.013,-3.9656,-3.9022,-3.8311,-3.6417,-3.5098,-3.5312,-3.5165,-3.5588,-3.7134,-3.8447,-3.9486,-4.0045,-4.0096,-4.0096,-4.0096,-4.0096,-4.0096,-4.0096,-4.0096,-4.0096,-4.0096,-4.1059,-4.1793,-4.2282,-4.2828,-4.3105,-4.3105,-4.3105,-4.3178,-4.3303,-4.3303,-4.3392,-4.3515,-4.3515,-4.3515,-4.3515,-4.3515,-4.3515,-4.3515,-4.3515,-4.3515,-4.3479,-4.3375,-4.3303,-4.3286,-5.3501,-5.3501,-5.3501,-5.3501,-5.3501,-5.3501,-5.3501,-5.3501,-5.3501,-5.3501,-5.3501,-5.3501,-5.3501,-5.3501,-5.3501,-5.3501,-5.3501,-5.3501,-5.3501,-5.3501,-5.3501,-5.3501,-5.3501,-5.3501,-5.3501,-5.3501,-5.3501,-5.3501,-5.3501,-5.3501,-5.3501,-5.3501,-5.3501,-5.3501,-5.3501,-5.3501,-5.3501,-5.3501,-5.3467,-5.3416,-5.3416,-5.3382,-5.3264,-5.2503,-5.2232,-5.2131,-5.1386,-5.1133,-5.1014,-5.027,-5.0016,-4.9898,-4.9221,-4.9001,-4.9001,-4.9001,-4.8409,-4.7432,-4.6075,-4.5669,-4.5449,-4.4784,-4.4564,-4.4316,-4.3589,-4.3308,-4.2834,-4.1491,-4.117,-4.0916,-4.0231,-4.0062,-3.9089,-3.6293,-3.6282,-3.6152,-3.4759,-3.5763,-3.7185,-3.865,-3.9554,-4.0045,-4.0096,-4.0096,-4.0096,-4.0096,-4.0096,-4.0096,-4.0096,-4.0096,-4.0096,-4.0096,-4.0655,-4.0995,-4.1041,-4.1621,-4.1937,-4.1937,-4.1937,-4.2223,-4.2769,-4.2769,-4.3032,-4.3515,-4.3515,-4.3515,-4.3515,-4.3515,-4.3515,-4.3515,-4.3515,-4.3515,-4.3444,-4.2939,-4.2769,-4.2674,-5.3501,-5.3501,-5.3501,-5.3501,-5.3501,-5.3501,-5.3501,-5.3501,-5.3501,-5.3501,-5.3501,-5.3501,-5.3501,-5.3501,-5.3501,-5.3501,-5.3501,-5.3501,-5.3501,-5.3501,-5.3501,-5.3501,-5.3501,-5.3501,-5.3501,-5.3501,-5.3501,-5.3501,-5.3501,-5.3501,-5.3501,-5.3501,-5.3501,-5.3501,-5.3501,-5.3501,-5.3501,-5.3501,-5.3501,-5.3501,-5.3501,-5.3501,-5.3467,-5.3162,-5.3044,-5.2942,-5.2164,-5.1894,-5.1775,-5.1031,-5.0473,-5.0033,-4.9763,-4.9373,-4.9001,-4.9001,-4.8798,-4.8376,-4.7344,-4.6413,-4.5517,-4.4801,-4.4615,-4.453,-4.4198,-4.3775,-4.324,-4.2692,-4.1847,-4.1119,-4.0832,-4.0417,-3.9723,-3.8565,-3.8244,-3.8132,-3.7997,-3.8082,-3.8556,-3.9571,-3.9943,-4.0096,-4.0096,-4.0096,-4.0096,-4.0096,-4.0096,-4.0096,-4.0096,-4.0096,-4.0096,-4.0096,-4.0286,-4.0552,-4.0903,-4.1512,-4.181,-4.181,-4.181,-4.1916,-4.2142,-4.2142,-4.2264,-4.2464,-4.2464,-4.2464,-4.2464,-4.2464,-4.2464,-4.2464,-4.2464,-4.2464,-4.2406,-4.2223,-4.2142,-4.2121,-5.3501,-5.3501,-5.3501,-5.3501,-5.3501,-5.3501,-5.3501,-5.3501,-5.3501,-5.3501,-5.3501,-5.3501,-5.3501,-5.3501,-5.3501,-5.3501,-5.3501,-5.3501,-5.3501,-5.3501,-5.3501,-5.3501,-5.3501,-5.3501,-5.3501,-5.3501,-5.3501,-5.3501,-5.3501,-5.3501,-5.3501,-5.3501,-5.3501,-5.3501,-5.3501,-5.3501,-5.3501,-5.3501,-5.3501,-5.3501,-5.3501,-5.3501,-5.3501,-5.3501,-5.3501,-5.3433,-5.2875,-5.2689,-5.257,-5.1809,-5.1217,-5.0744,-5.0524,-4.9932,-4.9306,-4.9069,-4.9001,-4.8849,-4.8091,-4.7175,-4.6177,-4.5179,-4.4784,-4.4615,-4.4615,-4.4164,-4.3724,-4.3443,-4.2608,-4.183,-4.1593,-4.0933,-4.0468,-4.0468,-3.9842,-3.9537,-4.0028,-3.9673,-3.9537,-4.0045,-4.0096,-4.0096,-4.0096,-4.0096,-4.0096,-4.0096,-4.0096,-4.0096,-4.0096,-4.0096,-4.0096,-4.0096,-4.0096,-4.0286,-4.0655,-4.1059,-4.1263,-4.1263,-4.1263,-4.1335,-4.1512,-4.1512,-4.1621,-4.181,-4.181,-4.181,-4.181,-4.181,-4.181,-4.181,-4.181,-4.181,-4.1789,-4.1578,-4.1512,-4.149,-5.3501,-5.3501,-5.3501,-5.3501,-5.3501,-5.3501,-5.3501,-5.3501,-5.3501,-5.3501,-5.3501,-5.3501,-5.3501,-5.3501,-5.3501,-5.3501,-5.3501,-5.3501,-5.3501,-5.3501,-5.3501,-5.3501,-5.3501,-5.3501,-5.3501,-5.3501,-5.3501,-5.3501,-5.3501,-5.3501,-5.3501,-5.3501,-5.3501,-5.3501,-5.3501,-5.3501,-5.3501,-5.3501,-5.3501,-5.3501,-5.3501,-5.3501,-5.3501,-5.3501,-5.3501,-5.3501,-5.3501,-5.3501,-5.3382,-5.2587,-5.2317,-5.2181,-5.1454,-5.0693,-4.9949,-4.9221,-4.9001,-4.8849,-4.8122,-4.7889,-4.7534,-4.6075,-4.5145,-4.4615,-4.4615,-4.4615,-4.435,-4.3561,-4.3392,-4.32,-4.2439,-4.1711,-4.1221,-4.1204,-4.0578,-4.0113,-4.0096,-4.0096,-4.0096,-4.0096,-4.0096,-4.0096,-4.0096,-4.0096,-4.0096,-4.0096,-4.0096,-4.0096,-4.0096,-4.0096,-4.0096,-4.0096,-4.0096,-4.0096,-4.0096,-4.0096,-4.0096,-4.0096,-4.0096,-4.0368,-4.0903,-4.0903,-4.1223,-4.1789,-4.1789,-4.1789,-4.1789,-4.1789,-4.1789,-4.1789,-4.1789,-4.1789,-4.1707,-4.111,-4.0903,-4.0827,-5.3501,-5.3501,-5.3501,-5.3501,-5.3501,-5.3501,-5.3501,-5.3501,-5.3501,-5.3501,-5.3501,-5.3501,-5.3501,-5.3501,-5.3501,-5.3501,-5.3501,-5.3501,-5.3501,-5.3501,-5.3501,-5.3501,-5.3501,-5.3501,-5.3501,-5.3501,-5.3501,-5.3501,-5.3501,-5.3501,-5.3501,-5.3501,-5.3501,-5.3501,-5.3501,-5.3501,-5.3501,-5.3501,-5.3501,-5.3501,-5.3501,-5.3501,-5.3501,-5.3501,-5.3501,-5.3501,-5.3501,-5.3501,-5.3467,-5.323,-5.2773,-5.2181,-5.1454,-5.0693,-5.005,-4.983,-4.9407,-4.8951,-4.8731,-4.8308,-4.7534,-4.6075,-4.5534,-4.5229,-4.4733,-4.4615,-4.4547,-4.4282,-4.3792,-4.3325,-4.3115,-4.2472,-4.1796,-4.1288,-4.1018,-4.0679,-4.018,-4.0096,-4.0096,-4.0096,-4.0096,-4.0096,-4.0096,-4.0096,-4.0096,-4.0096,-4.0096,-4.0096,-4.0096,-4.0096,-4.0096,-4.0096,-4.0096,-4.0096,-4.0096,-4.0096,-4.0096,-4.0096,-4.0096,-4.0179,-4.0343,-4.0343,-4.0441,-4.0594,-4.0594,-4.0594,-4.0594,-4.0594,-4.0594,-4.0594,-4.0594,-4.0594,-4.0587,-4.0392,-4.0343,-4.0311,-5.3501,-5.3501,-5.3501,-5.3501,-5.3501,-5.3501,-5.3501,-5.3501,-5.3501,-5.3501,-5.3501,-5.3501,-5.3501,-5.3501,-5.3501,-5.3501,-5.3501,-5.3501,-5.3501,-5.3501,-5.3501,-5.3501,-5.3501,-5.3501,-5.3501,-5.3501,-5.3501,-5.3501,-5.3501,-5.3501,-5.3501,-5.3501,-5.3501,-5.3501,-5.3501,-5.3501,-5.3501,-5.3501,-5.3501,-5.3501,-5.3501,-5.3501,-5.3501,-5.3501,-5.3501,-5.3501,-5.3501,-5.3501,-5.3501,-5.3501,-5.3179,-5.2638,-5.1894,-5.1336,-5.0862,-5.0253,-4.9779,-4.9373,-4.9086,-4.868,-4.8054,-4.6887,-4.6346,-4.594,-4.5196,-4.5026,-4.4942,-4.4666,-4.4198,-4.3876,-4.3876,-4.325,-4.2591,-4.2151,-4.1593,-4.1035,-4.0595,-4.0282,-4.0096,-4.0096,-4.0096,-4.0096,-4.0096,-4.0096,-4.0096,-4.0096,-4.0096,-4.0096,-4.0096,-4.0096,-4.0096,-4.0096,-4.0096,-4.0096,-4.0096,-4.0096,-4.0096,-4.0096,-4.0096,-4.0096,-4.0096,-4.0096,-4.0096,-4.0096,-4.0096,-4.0096,-4.0096,-4.0096,-4.0096,-4.0096,-4.0096,-4.0096,-4.0096,-4.0096,-4.0096,-4.0096,-5.3501,-5.3501,-5.3501,-5.3501,-5.3501,-5.3501,-5.3501,-5.3501,-5.3501,-5.3501,-5.3501,-5.3501,-5.3501,-5.3501,-5.3501,-5.3501,-5.3501,-5.3501,-5.3501,-5.3501,-5.3501,-5.3501,-5.3501,-5.3501,-5.3501,-5.3501,-5.3501,-5.3501,-5.3501,-5.3501,-5.3501,-5.3501,-5.3501,-5.3501,-5.3501,-5.3501,-5.3501,-5.3501,-5.3501,-5.3501,-5.3501,-5.3501,-5.3501,-5.3501,-5.3501,-5.3501,-5.3501,-5.3501,-5.3501,-5.3501,-5.3501,-5.3382,-5.2638,-5.2367,-5.2046,-5.0676,-5.0185,-4.9949,-4.9272,-4.9052,-4.8849,-4.8159,-4.7496,-4.6786,-4.5974,-4.5754,-4.5517,-4.4852,-4.4649,-4.4615,-4.4615,-4.3995,-4.3477,-4.3409,-4.2286,-4.1373,-4.1322,-4.0713,-4.0282,-4.0214,-4.0197,-4.018,-4.0113,-4.0096,-4.0096,-4.0096,-4.0096,-4.0096,-4.0096,-4.0096,-4.0096,-4.0096,-4.0096,-4.0096,-4.0096,-4.0096,-4.0096,-4.0096,-4.0096,-4.0096,-4.0096,-4.0096,-4.0096,-4.0096,-4.0096,-4.0096,-4.0096,-4.0096,-4.0096,-4.0096,-4.0096,-4.0096,-4.0096,-4.0096,-4.0096,-4.0096,-5.3501,-5.3501,-5.3501,-5.3501,-5.3501,-5.3501,-5.3501,-5.3501,-5.3501,-5.3501,-5.3501,-5.3501,-5.3501,-5.3501,-5.3501,-5.3501,-5.3501,-5.3501,-5.3501,-5.3501,-5.3501,-5.3501,-5.3501,-5.3501,-5.3501,-5.3501,-5.3501,-5.3501,-5.3501,-5.3501,-5.3501,-5.3501,-5.3501,-5.3501,-5.3501,-5.3501,-5.3501,-5.3501,-5.3501,-5.3501,-5.3501,-5.3501,-5.3501,-5.3501,-5.3501,-5.3501,-5.3501,-5.3501,-5.3501,-5.3501,-5.3501,-5.3467,-5.3298,-5.2807,-5.2232,-5.1911,-5.0997,-5.005,-4.9898,-4.9441,-4.8968,-4.8798,-4.8646,-4.8189,-4.6853,-4.6109,-4.5652,-4.55,-4.4993,-4.4615,-4.4615,-4.4479,-4.413,-4.3494,-4.3122,-4.2726,-4.2134,-4.1914,-4.1593,-4.1035,-4.0967,-4.073,-4.0163,-4.0096,-4.0096,-4.0096,-4.0096,-4.0096,-4.0096,-4.0096,-4.0096,-4.0096,-4.0096,-4.0096,-4.0096,-4.0096,-4.0096,-4.0096,-4.0096,-4.0096,-4.0096,-4.0096,-4.0096,-4.0096,-4.0096,-4.0096,-4.0096,-4.0096,-4.0096,-4.0096,-4.0096,-4.0096,-4.0096,-4.0096,-4.0096,-4.0096,-5.3501,-5.3501,-5.3501,-5.3501,-5.3501,-5.3501,-5.3501,-5.3501,-5.3501,-5.3501,-5.3501,-5.3501,-5.3501,-5.3501,-5.3501,-5.3501,-5.3501,-5.3501,-5.3501,-5.3501,-5.3501,-5.3501,-5.3501,-5.3501,-5.3501,-5.3501,-5.3501,-5.3501,-5.3501,-5.3501,-5.3501,-5.3501,-5.3501,-5.3501,-5.3501,-5.3501,-5.3501,-5.3501,-5.3501,-5.3501,-5.3501,-5.3501,-5.3501,-5.3501,-5.3501,-5.3501,-5.3501,-5.3501,-5.3501,-5.3501,-5.3501,-5.3501,-5.3501,-5.3213,-5.2807,-5.2418,-5.1758,-5.0997,-5.0287,-4.9813,-4.9441,-4.9086,-4.9001,-4.8714,-4.7581,-4.6752,-4.6126,-4.5771,-4.5111,-4.4615,-4.4615,-4.4615,-4.4479,-4.4045,-4.3656,-4.3284,-4.2878,-4.2523,-4.2151,-4.1762,-4.1728,-4.1559,-4.1196,-4.0815,-4.0612,-4.0612,-4.0612,-4.0612,-4.0612,-4.095,-4.0993,-4.0629,-4.0976,-4.0993,-4.0629,-4.0976,-4.0976,-4.0612,-4.0282,-4.0096,-4.0096,-4.0096,-4.0096,-4.0096,-4.0096,-4.0096,-4.0096,-4.0096,-4.0096,-4.0096,-4.0096,-4.0096,-4.0096,-4.0096,-4.0096,-4.0096,-5.3501,-5.3501,-5.3501,-5.3501,-5.3501,-5.3501,-5.3501,-5.3501,-5.3501,-5.3501,-5.3501,-5.3501,-5.3501,-5.3501,-5.3501,-5.3501,-5.3501,-5.3501,-5.3501,-5.3501,-5.3501,-5.3501,-5.3501,-5.3501,-5.3501,-5.3501,-5.3501,-5.3501,-5.3501,-5.3501,-5.3501,-5.3501,-5.3501,-5.3501,-5.3501,-5.3501,-5.3501,-5.3501,-5.3501,-5.3501,-5.3501,-5.3501,-5.3501,-5.3501,-5.3501,-5.3501,-5.3501,-5.3501,-5.3501,-5.3501,-5.3501,-5.3501,-5.3501,-5.3501,-5.3365,-5.2706,-5.2418,-5.2012,-5.0642,-5.0185,-4.9915,-4.9187,-4.9001,-4.8849,-4.824,-4.753,-4.6819,-4.621,-4.5382,-4.4801,-4.4801,-4.4682,-4.4615,-4.4615,-4.4045,-4.3623,-4.3623,-4.3081,-4.2625,-4.2489,-4.2371,-4.2286,-4.2286,-4.1745,-4.139,-4.139,-4.139,-4.139,-4.139,-4.1965,-4.2016,-4.1407,-4.1982,-4.1999,-4.139,-4.1982,-4.1982,-4.139,-4.0764,-4.0417,-4.0299,-4.0299,-4.0299,-4.0282,-4.0146,-4.0096,-4.0096,-4.0096,-4.0096,-4.0096,-4.0096,-4.0096,-4.0096,-4.0096,-4.0096,-4.0096,-5.3501,-5.3501,-5.3501,-5.3501,-5.3501,-5.3501,-5.3501,-5.3501,-5.3501,-5.3501,-5.3501,-5.3501,-5.3501,-5.3501,-5.3501,-5.3501,-5.3501,-5.3501,-5.3501,-5.3501,-5.3501,-5.3501,-5.3501,-5.3501,-5.3501,-5.3501,-5.3501,-5.3501,-5.3501,-5.3501,-5.3501,-5.3501,-5.3501,-5.3501,-5.3501,-5.3501,-5.3501,-5.3501,-5.3501,-5.3501,-5.3501,-5.3501,-5.3501,-5.3501,-5.3501,-5.3501,-5.3501,-5.3501,-5.3501,-5.3501,-5.3501,-5.3501,-5.3501,-5.3501,-5.3484,-5.3365,-5.2858,-5.2131,-5.1285,-5.0591,-4.9915,-4.9187,-4.9001,-4.8984,-4.8883,-4.8291,-4.7703,-4.7618,-4.6515,-4.5551,-4.5551,-4.501,-4.4615,-4.4615,-4.4513,-4.4445,-4.4445,-4.4361,-4.4028,-4.3325,-4.2692,-4.2286,-4.2286,-4.2202,-4.2151,-4.2151,-4.2151,-4.2151,-4.2151,-4.2236,-4.2252,-4.2151,-4.2236,-4.2236,-4.2151,-4.2236,-4.2236,-4.2151,-4.2033,-4.166,-4.1052,-4.1052,-4.1052,-4.1018,-4.0383,-4.0096,-4.0096,-4.0096,-4.0096,-4.0096,-4.0096,-4.0096,-4.0096,-4.0096,-4.0096,-4.0096,-5.3501,-5.3501,-5.3501,-5.3501,-5.3501,-5.3501,-5.3501,-5.3501,-5.3501,-5.3501,-5.3501,-5.3501,-5.3501,-5.3501,-5.3501,-5.3501,-5.3501,-5.3501,-5.3501,-5.3501,-5.3501,-5.3501,-5.3501,-5.3501,-5.3501,-5.3501,-5.3501,-5.3501,-5.3501,-5.3501,-5.3501,-5.3501,-5.3501,-5.3501,-5.3501,-5.3501,-5.3501,-5.3501,-5.3501,-5.3501,-5.3501,-5.3501,-5.3501,-5.3501,-5.3501,-5.3501,-5.3501,-5.3501,-5.3501,-5.3501,-5.3501,-5.3501,-5.3501,-5.3501,-5.3501,-5.3501,-5.3247,-5.2807,-5.2029,-5.1285,-5.0541,-4.9796,-4.9306,-4.9001,-4.9001,-4.8748,-4.8409,-4.7973,-4.7056,-4.6194,-4.5788,-4.5432,-4.5077,-4.4682,-4.4615,-4.4615,-4.4615,-4.4615,-4.4479,-4.4113,-4.3775,-4.3572,-4.3572,-4.3183,-4.2912,-4.2912,-4.2912,-4.2912,-4.2912,-4.3335,-4.3369,-4.2929,-4.3335,-4.3369,-4.2929,-4.3352,-4.3352,-4.2929,-4.3369,-4.2946,-4.1813,-4.1813,-4.1813,-4.1762,-4.1018,-4.0696,-4.0679,-4.0282,-4.0096,-4.0096,-4.0096,-4.0096,-4.0096,-4.0096,-4.0096,-4.0096]},{"header":{"parameterUnit":"m.s-1","parameterCategory":1,"la1":30.6,"la2":28.766,"lo1":-90.7593,"lo2":-88.6598,"dy":0.0162,"dx":0.0183,"nx":116,"ny":114,"refTime":"2024-05-20T12:00:00:Z","depth":0,"parameterNumber":3,"parameterNumberName":"V-component_of_WINDS"},"data":[0.0,0.0,0.0,0.0,0.0,0.0,0.0,0.0,0.0,0.0,0.0,0.0,0.0,0.0,0.0,0.0,0.0,0.0,0.0,0.0,0.0,0.0,0.0,0.0,0.0,0.0,0.0,0.0,0.0,0.0,0.0,0.0,0.0,0.0,0.0,0.0,0.0,0.0,0.0,0.0,0.0,0.0,0.0,0.0,0.0,0.0,0.0,0.0,0.0,0.0,0.0,0.0,0.0,0.0,0.0,0.0,0.0,0.0,0.0,0.0,0.0,0.0,0.0,0.0,0.0,0.0,0.0,0.0,0.0,0.0,0.0,0.0,0.0,0.0,0.0,0.0,0.0,0.0,0.0,0.0,0.0,0.0,0.0,0.0,0.0,0.0,0.0,0.0,0.0,0.0,0.0,0.0,0.0,0.0,0.0,0.0,0.0,0.0,0.0,0.0,0.0,0.0,0.0,0.0,0.0,0.0,0.0,0.0,0.0,0.0,0.0,0.0,0.0,0.0,0.0,0.0,0.0,0.0,0.0,0.0,0.0,0.0,0.0,0.0,0.0,0.0,0.0,0.0,0.0,0.0,0.0,0.0,0.0,0.0,0.0,0.0,0.0,0.0,0.0,0.0,0.0,0.0,0.0,0.0,0.0,0.0,0.0,0.0,0.0,0.0,0.0,0.0,0.0,0.0,0.0,0.0,0.0,0.0,0.0,0.0,0.0,0.0,0.0,0.0,0.0,0.0,0.0,0.0,0.0,0.0,0.0,0.0,0.0,0.0,0.0,0.0,0.0,0.0,0.0,0.0,0.0,0.0,0.0,0.0,0.0,0.0,0.0,0.0,0.0,0.0,0.0,0.0,0.0,0.0,0.0,0.0,0.0,0.0,0.0,0.0,0.0,0.0,0.0,0.0,0.0,0.0,0.0,0.0,0.0,0.0,0.0,0.0,0.0,0.0,0.0,0.0,0.0,0.0,0.0,0.0,0.0,0.0,0.0,0.0,0.0,0.0,0.0,0.0,0.0,0.0,0.0,0.0,0.0,0.0,0.0,0.0,0.0,0.0,0.0,0.0,0.0,0.0,0.0,0.0,0.0,0.0,0.0,0.0,0.0,0.0,0.0,0.0,0.0,0.0,0.0,0.0,0.0,0.0,0.0,0.0,0.0,0.0,0.0,0.0,0.0,0.0,0.0,0.0,0.0,0.0,0.0,0.0,0.0,0.0,0.0,0.0,0.0,0.0,0.0,0.0,0.0,0.0,0.0,0.0,0.0,0.0,0.0,0.0,0.0,0.0,0.0,0.0,0.0,0.0,0.0,0.0,0.0,0.0,0.0,0.0,0.0,0.0,0.0,0.0,0.0,0.0,0.0,0.0,0.0,0.0,0.0,0.0,0.0,0.0,0.0,0.0,0.0,0.0,0.0,0.0,0.0,0.0,0.0,0.0,0.0,0.0,0.0,0.0,0.0,0.0,0.0,0.0,0.0,0.0,0.0,0.0,0.0,0.0,0.0,0.0,0.0,0.0,0.0,0.0,0.0,0.0,0.0,0.0,0.0,0.0,0.0,0.0,0.0,0.0,0.0,0.0,0.0,0.0,0.0,0.0,0.0,0.0,0.0,0.0,0.0,0.0,0.0,0.0,0.0,0.0,0.0,0.0,0.0,0.0,0.0,0.0,0.0,0.0,0.0,0.0,0.0,0.0,0.0,0.0,0.0,0.0,0.0,0.0,0.0,0.0,0.0,0.0,0.0,0.0,0.0,0.0,0.0,0.0,0.0,0.0,0.0,0.0,0.0,0.0,0.0,0.0,0.0,0.0,0.0,0.0,0.0,0.0,0.0,0.0,0.0,0.0,0.0,0.0,0.0,0.0,0.0,0.0,0.0,0.0,0.0,0.0,0.0,0.0,0.0,0.0,0.0,0.0,0.0,0.0,0.0,0.0,0.0,0.0,0.0,0.0,0.0,0.0,0.0,0.0,0.0,0.0,0.0,0.0,0.0,0.0,0.0,0.0,0.0,0.0,0.0,0.0,0.0,0.0,0.0,0.0,0.0,0.0,0.0,0.0,0.0,0.0,0.0,0.0,0.0,0.0,0.0,0.0,0.0,0.0,0.0,0.0,0.0,0.0,0.0,0.0,0.0,0.0,0.0,0.0,0.0,0.0,0.0,0.0,0.0,0.0,0.0,0.0,0.0,0.0,0.0,0.0,0.0,0.0,0.0,0.0,0.0,0.0,0.0,0.0,0.0,0.0,0.0,0.0,0.0,0.0,0.0,0.0,0.0,0.0,0.0,0.0,0.0,0.0,0.0,0.0,0.0,0.0,0.0,0.0,0.0,0.0,0.0,0.0,0.0,0.0,0.0,0.0,0.0,0.0,0.0,0.0,0.0,0.0,0.0,0.0,0.0,0.0,0.0,0.0,0.0,0.0,0.0,0.0,0.0,0.0,0.0,0.0,0.0,0.0,0.0,0.0,0.0,0.0,0.0,0.0,0.0,0.0,0.0,0.0,0.0,0.0,0.0,0.0,0.0,0.0,0.0,0.0,0.0,0.0,0.0,0.0,0.0,0.0,0.0,0.0,0.0,0.0,0.0,0.0,0.0,0.0,0.0,0.0,0.0,0.0,0.0,0.0,0.0,0.0,0.0,0.0,0.0,0.0,0.0,0.0,0.0,0.0,0.0,0.0,0.0,0.0,0.0,0.0,0.0,0.0,0.0,0.0,0.0,0.0,0.0,0.0,0.0,0.0,0.0,0.0,0.0,0.0,0.0,0.0,0.0,0.0,0.0,0.0,0.0,0.0,0.0,0.0,0.0,0.0,0.0,0.0,0.0,0.0,0.0,0.0,0.0,0.0,0.0,0.0,0.0,0.0,0.0,0.0,0.0,0.0,0.0,0.0,0.0,0.0,0.0,0.0,0.0,0.0,0.0,0.0,0.0,0.0,0.0,0.0,0.0,0.0,0.0,0.0,0.0,0.0,0.0,0.0,0.0,0.0,0.0,0.0,0.0,0.0,0.0,0.0,0.0,0.0,0.0,0.0,0.0,0.0,0.0,0.0,0.0,0.0,0.0,0.0,0.0,0.0,0.0,0.0,0.0,0.0,0.0,0.0,0.0,0.0,0.0,0.0,0.0,0.0,0.0,0.0,0.0,0.0,0.0,0.0,0.0,0.0,0.0,0.0,0.0,0.0,0.0,0.0,0.0,0.0,0.0,0.0,0.0,0.0,0.0,0.0,0.0,0.0,0.0,0.0,0.0,0.0,0.0,0.0,0.0,0.0,0.0,0.0,0.0,0.0,0.0,0.0,0.0,0.0,0.0,0.0,0.0,0.0,0.0,0.0,0.0,0.0,0.0,0.0,0.0,0.0,0.0,0.0,0.0,0.0,0.0,0.0,0.0,0.0,0.0,0.0,0.0,0.0,0.0,0.0,0.0,0.0,0.0,0.0,0.0,0.0,0.0,0.0,0.0,0.0,0.0,0.0,0.0,0.0,0.0,0.0,0.0,0.0,0.0,0.0,0.0,0.0,0.0,0.0,0.0,0.0,0.0,0.0,0.0,0.0,0.0,0.0,0.0,0.0,0.0,0.0,0.0,0.0,0.0,0.0,0.0,0.0,0.0,0.0,0.0,0.0,0.0,0.0,0.0,0.0,0.0,0.0,0.0,0.0,0.0,0.0,0.0,0.0,0.0,0.0,0.0,0.0,0.0,0.0,0.0,0.0,0.0,0.0,0.0,0.0,0.0,0.0,0.0,0.0,0.0,0.0,0.0,0.0,0.0,0.0,0.0,0.0,0.0,0.0,0.0,0.0,0.0,0.0,0.0,0.0,0.0,0.0,0.0,0.0,0.0,0.0,0.0,0.0,0.0,0.0,0.0,0.0,0.0,0.0,0.0,0.0,0.0,0.0,0.0,0.0,0.0,0.0,0.0,0.0,0.0,0.0,0.0,0.0,0.0,0.0,0.0,0.0,0.0,0.0,0.0,0.0,0.0,0.0,0.0,0.0,0.0,0.0,0.0,0.0,0.0,0.0,0.0,0.0,0.0,0.0,0.0,0.0,0.0,0.0,0.0,0.0,0.0,0.0,0.0,0.0,0.0,0.0,0.0,0.0,0.0,0.0,0.0,0.0,0.0,0.0,0.0,0.0,0.0,0.0,0.0,0.0,0.0,0.0,0.0,0.0,0.0,0.0,0.0,0.0,0.0,0.0,0.0,0.0,0.0,0.0,0.0,0.0,0.0,0.0,0.0,0.0,0.0,0.0,0.0,0.0,0.0,0.0,0.0,0.0,0.0,0.0,0.0,0.0,0.0,0.0,0.0,0.0,0.0,0.0,0.0,0.0,0.0,0.0,0.0,0.0,0.0,0.0,0.0,0.0,0.0,0.0,0.0,0.0,0.0,0.0,0.0,0.0,0.0,0.0,0.0,0.0,0.0,0.0,0.0,0.0,0.0,0.0,0.0,0.0,0.0,0.0,0.0,0.0,0.0,0.0,0.0,0.0,0.0,0.0,0.0,0.0,0.0,0.0,0.0,0.0,0.0,0.0,0.0,0.0,0.0,0.0,0.0,0.0,0.0,0.0,0.0,0.0,0.0,0.0,0.0,0.0,0.0,0.0,0.0,0.0,0.0,0.0,0.0,0.0,0.0,0.0,0.0,0.0,0.0,0.0,0.0,0.0,0.0,0.0,0.0,0.0,0.0,0.0,0.0,0.0,0.0,0.0,0.0,0.0,0.0,0.0,0.0,0.0,0.0,0.0,0.0,0.0,0.0,0.0,0.0,0.0,0.0,0.0,0.0,0.0,0.0,0.0,0.0,0.0,0.0,0.0,0.0,0.0,0.0,0.0,0.0,0.0,0.0,0.0,0.0,0.0,0.0,0.0,0.0,0.0,0.0,0.0,0.0,0.0,0.0,0.0,0.0,0.0,0.0,0.0,0.0,0.0,0.0,0.0,0.0,0.0,0.0,0.0,0.0,0.0,0.0,0.0,0.0,0.0,0.0,0.0,0.0,0.0,0.0,0.0,0.0,0.0,0.0,0.0,0.0,0.0,0.0,0.0,0.0,0.0,0.0,0.0,0.0,0.0,0.0,0.0,0.0,0.0,0.0,0.0,0.0,0.0,0.0,0.0,0.0,0.0,0.0,0.0,0.0,0.0,0.0,0.0,0.0,0.0,0.0,0.0,0.0,0.0,0.0,0.0,0.0,0.0,0.0,0.0,0.0,0.0,0.0,0.0,0.0,0.0,0.0,0.0,0.0,0.0,0.0,0.0,0.0,0.0,0.0,0.0,0.0,0.0,0.0,0.0,0.0,0.0,0.0,0.0,0.0,0.0,0.0,0.0,0.0,0.0,0.0,0.0,0.0,0.0,0.0,0.0,0.0,0.0,0.0,0.0,0.0,0.0,0.0,0.0,0.0,0.0,0.0,0.0,0.0,0.0,0.0,0.0,0.0,0.0,0.0,0.0,0.0,0.0,0.0,0.0,0.0,0.0,0.0,0.0,0.0,0.0,0.0,0.0,0.0,0.0,0.0,0.0,0.0,0.0,0.0,0.0,0.0,0.0,0.0,0.0,0.0,0.0,0.0,0.0,0.0,0.0,0.0,0.0,0.0,0.0,0.0,0.0,0.0,0.0,0.0,0.0,0.0,0.0,0.0,0.0,0.0,0.0,0.0,0.0,0.0,0.0,0.0,0.0,0.0,0.0,0.0,0.0,0.0,0.0,0.0,0.0,0.0,0.0,0.0,0.0,0.0,0.0,0.0,0.0,0.0,0.0,0.0,0.0,0.0,0.0,0.0,0.0,0.0,0.0,0.0,0.0,0.0,0.0,0.0,0.0,0.0,0.0,0.0,0.0,0.0,0.0,0.0,0.0,0.0,0.0,0.0,0.0,0.0,0.0,0.0,0.0,0.0,0.0,0.0,0.0,0.0,0.0,0.0,0.0,0.0,0.0,0.0,0.0,0.0,0.0,0.0,0.0,0.0,0.0,0.0,0.0,0.0,0.0,0.0,0.0,0.0,0.0,0.0,0.0,0.0,0.0,0.0,0.0,0.0,0.0,0.0,0.0,0.0,0.0,0.0,0.0,0.0,0.0,0.0,0.0,0.0,0.0,0.0,0.0,0.2958,0.24,0.0,0.0,0.0,0.0,0.0,0.0,0.0,0.0,0.0,0.0,0.0,0.0,0.0,0.0,0.0,0.0,0.0,0.0,0.0,0.0,0.0,0.0,0.0,0.2145,0.2511,0.2473,0.1491,0.0886,0.0886,0.0,0.0,0.0,0.0,0.0,0.2277,0.2132,0.2333,0.289,0.4022,0.5229,0.6461,0.5908,0.4796,0.3285,0.0,0.0,0.0,0.0,0.0,0.0,0.0,0.0,0.0,0.0,0.0,0.0,0.0,0.0,0.0,0.0,0.0,0.0,0.0,0.0,0.0,0.0,0.0,0.0,0.0,0.0,0.0,0.0,0.0,0.0,0.0,0.0,0.0,0.0,0.0,0.0,0.0,0.0,0.0,0.0,0.0,0.0,0.0,0.0,0.0,0.0,0.0,0.0,0.0,0.0,0.0,0.0,0.0,0.0,0.0,0.0,0.0,0.0,0.0,0.0,0.0,0.0,0.0,0.0,0.0,0.0,0.0,0.0,0.0,0.0,0.3456,0.314,0.0,0.0,0.0,0.0,0.0,0.0,0.0,0.0,0.0,0.0,0.0,0.0,0.0,0.0,0.0,0.0,0.0,0.0,0.0,0.0,0.0,0.3092,0.3281,0.2398,0.2274,0.3496,0.1577,0.0215,0.0013,0.0,0.0,0.0,0.0,0.3331,0.3426,0.3195,0.3714,0.5028,0.7173,0.8941,1.0332,1.0244,0.885,0.6407,0.6024,0.0,0.0,0.0,0.0,0.0,0.0,0.0,0.0,0.0,0.0,0.0,0.0,0.0,0.0,0.0,0.0,0.0,0.0,0.0,0.0,0.0,0.0,0.0,0.0,0.0,0.0,0.0,0.0,0.0,0.0,0.0,0.0,0.0,0.0,0.0,0.0,0.0,0.0,0.0,0.0,0.0,0.0,0.0,0.0,0.0,0.0,0.0,0.0,0.0,0.0,0.0,0.0,0.0,0.0,0.0,0.0,0.0,0.0,0.0,0.0,0.0,0.0,0.0,0.4395,0.4847,0.5573,0.5044,0.4819,0.4808,0.4211,0.4191,0.4501,0.3629,0.0,0.0,0.0,0.0,0.0,0.0,0.0,0.0,0.0,0.0,0.0,0.0,0.0,0.0,0.0,0.0,0.0,0.0,0.0,0.2262,0.3193,0.26,0.2852,0.4619,0.2755,0.105,0.0063,0.0,0.0,0.1645,0.2726,0.3496,0.3904,0.3817,0.4749,0.6765,0.9083,1.0849,1.2049,1.1588,1.1638,1.2049,1.0119,0.7759,0.5121,0.0,0.0,0.0,0.0,0.0,0.0,0.0,0.0,0.0,0.0,0.0,0.0,0.0,0.0,0.0,0.0,0.0,0.0,0.0,0.0,0.0,0.0,0.0,0.0,0.0,0.0,0.0,0.0,0.0,0.0,0.0,0.0,0.0,0.0,0.0,0.0,0.0,0.0,0.0,0.0,0.0,0.2982,0.3373,0.0,0.0,0.0,0.0,0.0,0.0,0.0,0.0,0.0,0.0,0.0,0.0,0.0,0.3246,0.3698,0.4184,0.4675,0.5225,0.5928,0.63,0.6358,0.6153,0.6129,0.6211,0.5583,0.0,0.4836,0.4819,0.0,0.0,0.0,0.0,0.0,0.0,0.0,0.0,0.0,0.0,0.0,0.0,0.0,0.0,0.0,0.0,0.0,0.0,0.0,0.0,0.0,0.45,0.5511,0.7568,0.6486,0.4601,0.2017,0.1289,0.1417,0.2444,0.3223,0.359,0.3501,0.402,0.6041,0.9627,1.2211,1.4375,1.6099,1.5861,1.6011,1.6425,1.5447,1.2751,0.8889,0.8246,0.0,0.0,0.0,0.0,0.0,0.0,0.0,0.0,0.0,0.0,0.0,0.0,0.0,0.0,0.0,0.0,0.0,0.0,0.0,0.0,0.0,0.0,0.0,0.0,0.0,0.0,0.0,0.0,0.0,0.0,0.0,0.0,0.0,0.0,0.0,0.0,0.0,0.0,0.0,0.2782,0.3347,0.3222,0.3294,0.3155,0.0,0.0,0.0,0.0,0.0,0.0,0.0,0.0,0.0,0.446,0.4283,0.4674,0.5727,0.5901,0.6186,0.6624,0.6931,0.7091,0.7102,0.7041,0.7048,0.7092,0.6831,0.6559,0.6227,0.5443,0.4909,0.4582,0.0,0.0,0.0,0.0,0.3164,0.3483,0.0,0.0,0.0,0.0,0.0,0.0,0.0,0.0,0.0,0.0,0.0,0.0,0.5364,0.6744,0.8308,0.9956,0.9466,0.7922,0.5173,0.3356,0.2793,0.3678,0.409,0.4149,0.3804,0.5631,0.8726,1.3086,1.5563,1.7739,1.9635,1.9635,1.9635,1.9635,1.9635,1.7049,1.2634,1.2357,0.9755,0.5642,0.0,0.0,0.0,0.0,0.0,0.0,0.0,0.0,0.0,0.0,0.0,0.0,0.0,0.0,0.0,0.0,0.0,0.0,0.0,0.0,0.0,0.0,0.0,0.0,0.0,0.0,0.0,0.0,0.0,0.0,0.0,0.0,0.0,0.0,0.0,0.0,0.0,0.3088,0.3603,0.3228,0.3614,0.366,0.0,0.0,0.0,0.0,0.0,0.0,0.4594,0.4651,0.5015,0.5793,0.5757,0.6217,0.7314,0.7274,0.7388,0.7709,0.7519,0.7509,0.7651,0.7614,0.76,0.76,0.76,0.7536,0.7333,0.6098,0.5511,0.5433,0.5023,0.4633,0.4267,0.4193,0.4311,0.451,0.0,0.0,0.0,0.0,0.0,0.0,0.0,0.0,0.0,0.0,0.0,0.801,0.6672,0.8896,1.0538,1.0649,1.0156,0.9767,0.9579,0.6236,0.459,0.5345,0.5406,0.5495,0.5655,0.983,1.3679,1.7109,1.8769,2.02,2.1355,2.1355,2.1355,2.1355,2.1355,1.9171,1.5417,1.4412,1.3476,1.2209,0.6557,0.0,0.0,0.0,0.0,0.0,0.0,0.0,0.0,0.0,0.0,0.0,0.0,0.0,0.0,0.0,0.0,0.0,0.0,0.0,0.0,0.0,0.0,0.0,0.0,0.0,0.0,0.0,0.0,0.0,0.0,0.0,0.0,0.0,0.0,0.0,0.0,0.0,0.0,0.3906,0.476,0.0,0.0,0.0,0.0,0.416,0.447,0.4962,0.5684,0.5824,0.6242,0.6984,0.7183,0.7489,0.7941,0.7756,0.7766,0.7965,0.7726,0.7662,0.7794,0.7662,0.76,0.76,0.76,0.7597,0.755,0.7044,0.6668,0.6371,0.5644,0.5223,0.5009,0.4762,0.4962,0.5358,0.0,0.0,0.0,0.0,0.0,0.048,0.1906,0.2208,0.2511,0.3205,0.5692,0.7306,0.7131,1.057,1.3028,1.338,1.4199,1.4117,1.27,1.0006,0.7951,0.6841,0.6257,0.6994,0.923,1.3071,1.5974,1.7903,1.9911,2.128,2.202,2.202,2.202,2.202,2.202,2.1054,1.9346,1.8253,1.6229,1.3589,1.14,0.8567,0.0,0.0,0.0,0.0,0.0,0.0,0.0,0.0,0.0,0.0,0.0,0.0,0.0,0.0,0.0,0.0,0.0,0.0,0.0,0.0,0.0,0.0,0.0,0.0,0.0,0.0,0.0,0.0,0.0,0.0,0.0,0.0,0.0,0.0,0.0,0.0,0.0,0.4523,0.505,0.0,0.482,0.5138,0.5321,0.5221,0.5796,0.6329,0.6787,0.6865,0.7102,0.7556,0.7564,0.7715,0.7985,0.7921,0.7921,0.7988,0.7884,0.786,0.7907,0.7857,0.7833,0.7833,0.7833,0.7833,0.7862,0.7604,0.7322,0.7057,0.6651,0.6431,0.636,0.6165,0.6234,0.6363,0.0,0.0,0.0,0.0,0.0,0.0745,0.2966,0.2701,0.2946,0.4892,0.6809,0.8461,0.9749,1.3244,1.5618,1.5986,1.687,1.6304,1.3707,1.1865,0.977,0.7298,0.7527,0.9334,1.2776,1.5344,1.7456,1.915,2.0603,2.1774,2.2556,2.2556,2.2556,2.2556,2.2556,2.2255,2.1719,2.0966,1.8869,1.5952,1.5112,1.2452,0.8909,0.0,0.0,0.0,0.0,0.0,0.0,0.0,0.0,0.0,0.0,0.0,0.0,0.0,0.0,0.0,0.0,0.0,0.0,0.0,0.0,0.0,0.0,0.0,0.0,0.0,0.0,0.0,0.0,0.0,0.0,0.0,0.0,0.0,0.0,0.0,0.4783,0.5111,0.563,0.5881,0.5677,0.5983,0.623,0.6322,0.6844,0.7261,0.7506,0.7519,0.7634,0.7879,0.781,0.7857,0.7988,0.7988,0.7988,0.7988,0.7988,0.7988,0.7988,0.7988,0.788,0.7698,0.7901,0.7877,0.7695,0.7796,0.7773,0.7577,0.7373,0.725,0.7237,0.719,0.7156,0.7132,0.0,0.0,0.0,0.0,0.0,0.0732,0.2915,0.3281,0.4585,0.8177,0.9838,1.1697,1.4371,1.6771,1.8172,1.8176,1.7712,1.5994,1.2689,1.1687,0.9856,0.6844,0.9367,1.2528,1.6103,1.6771,1.839,2.1063,2.1063,2.1759,2.3108,2.312,2.312,2.3108,2.312,2.2832,2.2305,2.2305,2.138,1.9698,1.7478,1.4899,1.2119,0.0,0.0,0.0,0.0,0.0,0.0,0.0,0.0,0.0,0.0,0.0,0.0,0.0,0.0,0.0,0.0,0.0,0.0,0.0,0.0,0.0,0.0,0.0,0.0,0.0,0.0,0.0,0.0,0.0,0.0,0.0,0.0,0.0,0.371,0.4779,0.562,0.5644,0.6539,0.6997,0.6756,0.7126,0.7433,0.7433,0.7529,0.7675,0.7811,0.7801,0.7858,0.7958,0.7961,0.7961,0.7961,0.7982,0.7988,0.7988,0.7988,0.7988,0.7988,0.7988,0.7671,0.7156,0.7739,0.7661,0.7169,0.7749,0.7988,0.7961,0.7726,0.7614,0.7611,0.7607,0.7604,0.7577,0.0,0.0,0.0,0.0,0.0,0.048,0.1921,0.2802,0.3802,0.5209,0.8147,1.0559,1.1708,1.5286,1.7606,1.7624,1.7498,1.6493,1.4356,1.2312,1.0641,0.94,1.2311,1.5286,1.8154,1.9918,2.1391,2.2528,2.2528,2.2735,2.3108,2.3534,2.3509,2.312,2.3547,2.3439,2.2882,2.2882,2.238,2.1468,1.9635,1.7466,1.5179,0.0,0.0,0.0,0.0,0.0,0.0,0.0,0.0,0.0,0.0,0.0,0.0,0.0,0.0,0.0,0.0,0.0,0.0,0.0,0.0,0.0,0.0,0.0,0.0,0.0,0.0,0.0,0.0,0.0,0.0,0.0,0.0,0.5126,0.5068,0.5672,0.6317,0.6859,0.7231,0.7441,0.736,0.7556,0.7689,0.7689,0.7831,0.7887,0.7924,0.7516,0.7297,0.7338,0.7341,0.7341,0.7341,0.7773,0.7988,0.7988,0.7988,0.7988,0.7988,0.7988,0.7901,0.7752,0.7917,0.7897,0.7756,0.7921,0.7988,0.7982,0.7901,0.787,0.7857,0.7794,0.7689,0.7546,0.0,0.0,0.0,0.0,0.0,0.038,0.1531,0.2612,0.3949,0.5758,0.8268,1.0669,1.2696,1.5591,1.7498,1.7725,1.7536,1.6392,1.4016,1.1852,1.1419,1.3086,1.5274,1.7526,1.978,2.1342,2.2402,2.2942,2.2513,2.2821,2.381,2.3744,2.3751,2.3822,2.4161,2.4029,2.3471,2.3471,2.3145,2.2518,2.1343,1.9509,1.7435,1.6473,1.4607,1.2383,1.1168,1.0396,0.9716,0.8039,0.0,0.0,0.0,0.0,0.0,0.0,0.0,0.0,0.0,0.0,0.0,0.0,0.0,0.0,0.0,0.0,0.0,0.0,0.0,0.0,0.0,0.0,0.0,0.0,0.5137,0.6003,0.638,0.6658,0.7004,0.7499,0.7692,0.7784,0.7784,0.7858,0.7906,0.7906,0.7938,0.7988,0.7988,0.7661,0.7355,0.7105,0.7448,0.7492,0.7241,0.7834,0.8136,0.8136,0.8019,0.7988,0.7988,0.7988,0.7853,0.7628,0.788,0.7847,0.7634,0.7887,0.7988,0.7988,0.0,0.0,0.0,0.0,0.7814,0.7651,0.0,0.0,0.0,0.0,0.0,0.038,0.1531,0.2612,0.4569,0.8103,0.9338,1.141,1.5429,1.6726,1.7488,1.7978,1.7423,1.5693,1.2555,1.0919,1.2157,1.6798,1.7886,1.9238,2.1111,2.1694,2.2198,2.2694,2.1739,2.2356,2.4439,2.3727,2.3827,2.4646,2.4806,2.4607,2.4092,2.4029,2.3703,2.3158,2.2505,2.1109,1.9232,1.8019,1.6354,1.4496,1.2812,1.1918,1.1305,0.996,0.0,0.0,0.0,0.0,0.0,0.0,0.0,0.0,0.0,0.0,0.0,0.0,0.0,0.0,0.0,0.0,0.0,0.0,0.0,0.0,0.0,0.0,0.0,0.0,0.576,0.6736,0.7509,0.7638,0.7695,0.7821,0.7907,0.7988,0.7988,0.7988,0.7988,0.7988,0.7988,0.7995,0.8015,0.0,0.0,0.0,0.0,0.7985,0.745,0.8043,0.8347,0.8344,0.8153,0.8029,0.8015,0.8015,0.7715,0.7227,0.7759,0.7688,0.7237,0.7769,0.7988,0.7988,0.7988,0.7988,0.7985,0.7934,0.7909,0.7831,0.0,0.0,0.0,0.0,0.0,0.038,0.1531,0.2612,0.4492,0.7846,0.9227,1.1212,1.4671,1.6011,1.6713,1.6814,1.555,1.3969,1.2193,1.1569,1.2984,1.6823,1.8597,2.0284,2.2014,2.2258,2.2435,2.2542,2.2014,2.1991,2.248,2.3522,2.3873,2.3646,2.4905,2.5159,2.4632,2.4192,2.3941,2.3716,2.2487,2.1846,2.1506,2.0141,1.9101,1.8185,1.6674,1.5777,1.5071,1.3239,1.2412,1.2041,1.1502,0.0,0.0,0.0,0.0,0.0,0.0,0.0,0.0,0.0,0.0,0.0,0.0,0.0,0.0,0.0,0.0,0.0,0.0,0.0,0.0,0.5816,0.6654,0.7441,0.7729,0.7875,0.7914,0.7941,0.7971,0.7988,0.7988,0.7988,0.7988,0.7988,0.7988,0.8096,0.8218,0.7763,0.7502,0.7512,0.7651,0.7675,0.7556,0.8147,0.8442,0.8442,0.0,0.0,0.8225,0.8225,0.8092,0.7823,0.7938,0.7924,0.7826,0.7941,0.7988,0.7988,0.7988,0.7988,0.7944,0.7634,0.7709,0.7894,0.0,0.0,0.0,0.0,0.0921,0.1666,0.1695,0.2612,0.4133,0.6447,0.7619,0.9447,1.2603,1.334,1.3942,1.4782,1.3609,1.3123,1.3809,1.3994,1.5615,1.9095,2.041,2.1581,2.2669,2.3053,2.3148,2.2888,2.3014,2.2936,2.2715,2.3473,2.3968,2.4185,2.4955,2.5262,2.5172,2.4644,2.4255,2.391,2.2893,2.2347,2.1916,2.0343,1.9446,1.8832,1.7719,1.684,1.6075,1.4857,1.418,1.3786,1.3295,1.2149,1.0652,0.0,0.0,0.0,0.0,0.0,0.0,0.0,0.0,0.0,0.0,0.0,0.0,0.0,0.0,0.6481,0.0,0.0,0.643,0.6344,0.6871,0.7421,0.7816,0.7941,0.7988,0.7988,0.7988,0.7988,0.7988,0.7988,0.8022,0.815,0.8153,0.8221,0.837,0.8092,0.7824,0.7607,0.796,0.8011,0.7709,0.8299,0.8598,0.8598,0.852,0.8445,0.8377,0.8377,0.8296,0.8153,0.8153,0.8109,0.7988,0.7988,0.7988,0.7988,0.7988,0.7988,0.7965,0.7787,0.7848,0.7958,0.0,0.0,0.0,0.0,0.1897,0.3099,0.2162,0.2763,0.3903,0.5502,0.6326,0.7884,1.0847,1.0888,1.1119,1.2159,1.1851,1.2634,1.5065,1.6132,1.8129,2.1343,2.2121,2.2585,2.2871,2.3511,2.3519,2.2762,2.3641,2.3754,2.322,2.3599,2.4228,2.5004,2.5194,2.5477,2.5724,2.5197,2.4657,2.4073,2.3133,2.2314,2.1459,1.9726,1.8904,1.8636,1.772,1.6848,1.6036,1.5654,1.5205,1.4736,1.4445,1.3936,1.2956,1.0503,0.9734,0.0,0.0,0.0,0.0,0.0,0.0,0.0,0.0,0.0,0.8583,0.731,0.7773,0.7846,0.6029,0.6146,0.6594,0.6859,0.7044,0.7307,0.7904,0.7988,0.7988,0.7988,0.7988,0.7988,0.7988,0.7988,0.8102,0.831,0.8323,0.8347,0.8516,0.8526,0.8319,0.7875,0.8442,0.8523,0.8035,0.8513,0.8754,0.8754,0.8628,0.8557,0.8526,0.8526,0.8448,0.8361,0.8333,0.8201,0.8032,0.8002,0.7988,0.7988,0.7988,0.7988,0.7988,0.7988,0.7988,0.7988,0.0,0.0,0.0,0.0,0.2127,0.3678,0.3199,0.3324,0.437,0.6834,0.7245,0.8367,1.1147,1.1012,1.0193,0.8952,1.0533,1.2128,1.3403,1.5881,1.8567,2.1395,2.2456,2.2688,2.2032,2.2938,2.2569,2.091,2.27,2.3091,2.2215,2.4,2.4898,2.504,2.5921,2.6358,2.6361,2.5749,2.5209,2.4541,2.2444,2.1243,2.0558,1.8821,1.859,1.9074,1.783,1.6848,1.6085,1.6036,1.5478,1.4844,1.5166,1.4953,1.419,1.2061,0.0,0.9534,0.6839,0.5578,0.5292,0.6339,0.7464,0.8563,0.0,0.0,1.0473,0.8961,0.8944,0.8761,0.7402,0.7395,0.7637,0.7675,0.7766,0.7894,0.7978,0.7988,0.7988,0.7988,0.7988,0.7988,0.7988,0.7988,0.8102,0.831,0.8323,0.8391,0.8669,0.8682,0.8716,0.8733,0.8814,0.8824,0.876,0.8824,0.8858,0.8858,0.8841,0.8815,0.8682,0.8682,0.8601,0.8452,0.8378,0.831,0.8235,0.8096,0.7988,0.7988,0.7988,0.7988,0.7988,0.7988,0.7988,0.7988,0.0,0.0,0.0477,0.1998,0.2564,0.2938,0.335,0.3461,0.3974,0.5299,0.5216,0.5946,0.8383,0.8735,0.8264,0.6955,0.8862,1.101,1.3073,1.5844,1.8642,2.1368,2.2518,2.2944,2.2598,2.2827,2.229,2.0942,2.2981,2.2992,2.1251,2.3808,2.4636,2.402,2.4802,2.5302,2.5473,2.4908,2.4263,2.3478,2.2221,2.0942,1.9716,1.8744,1.8106,1.7634,1.6354,1.5312,0.0,1.458,1.4197,1.3877,1.5049,1.4499,1.3219,1.2053,1.0673,0.0,0.8052,0.7802,0.8005,0.0,0.9927,1.1269,1.1611,1.1688,1.1417,1.0247,0.9687,0.907,0.786,0.7516,0.7489,0.0,0.7655,0.7591,0.7941,0.7988,0.7988,0.7988,0.7682,0.7469,0.7469,0.7916,0.8092,0.7896,0.8282,0.8618,0.8832,0.879,0.8817,0.8881,0.8885,0.8885,0.8885,0.8885,0.8885,0.8885,0.8885,0.8851,0.879,0.879,0.876,0.8608,0.8459,0.8347,0.8316,0.8201,0.8123,0.7988,0.7988,0.7988,0.7988,0.7988,0.7988,0.7988,0.0,0.1073,0.167,0.3563,0.313,0.2758,0.3448,0.3535,0.3633,0.3901,0.369,0.4136,0.5735,0.654,0.6586,0.5657,0.7741,1.0207,1.2797,1.5605,1.8304,2.0903,2.2234,2.278,2.2528,2.2865,2.2456,2.1208,2.3351,2.3394,2.1411,2.3827,2.4514,2.3725,2.4189,2.4532,2.4763,2.4393,2.3631,2.2659,2.2012,2.0688,1.9025,1.834,1.7202,1.5859,1.4941,1.4,1.314,1.2899,1.2574,1.2461,1.3532,1.3041,1.1905,1.12,0.9811,0.8524,0.8548,0.9092,0.0,1.0334,1.1857,1.3213,1.3273,1.3134,1.2622,1.1271,1.0548,0.9698,0.8164,0.756,0.7486,0.7921,0.7624,0.7493,0.7928,0.7988,0.7944,0.7872,0.7472,0.7075,0.6701,0.7468,0.7926,0.7848,0.8343,0.8733,0.8871,0.8885,0.8885,0.8885,0.8885,0.8885,0.8885,0.8885,0.8885,0.8885,0.8885,0.8885,0.8885,0.8885,0.8824,0.8764,0.8611,0.8486,0.8384,0.8354,0.8204,0.8099,0.8005,0.7988,0.7988,0.7988,0.7988,0.7988,0.0,0.0,0.3801,0.3891,0.3861,0.3803,0.3703,0.3644,0.3575,0.3527,0.3847,0.41,0.4175,0.5172,0.5619,0.5073,0.7524,1.0044,1.2291,1.4996,1.7516,1.9761,2.1443,2.193,2.1093,2.2973,2.3047,2.1208,2.3603,2.4243,2.3244,2.43,2.4793,2.4755,2.4768,2.48,2.4788,2.4775,2.3976,2.2618,2.177,2.0303,1.8479,1.7244,1.5693,1.4182,1.4143,1.3346,1.222,1.1351,1.088,1.0613,1.0189,1.0431,0.0,0.9502,0.8179,0.7181,0.7766,0.0,0.8931,1.0856,1.2305,1.3434,1.4275,1.4879,1.4547,1.2,1.1672,1.1058,0.8474,0.7971,0.7968,0.7985,0.7975,0.7968,0.7988,0.7988,0.7879,0.7444,0.7419,0.6951,0.0,0.6569,0.7529,0.8391,0.8476,0.8621,0.8868,0.8885,0.8885,0.8885,0.8885,0.8885,0.8885,0.8885,0.8885,0.8885,0.8885,0.8885,0.8885,0.8885,0.8881,0.8868,0.8771,0.8703,0.8676,0.8387,0.832,0.8248,0.8099,0.7988,0.7988,0.7988,0.7988,0.7988,0.0,0.0,0.0,0.3906,0.3906,0.3876,0.3836,0.3773,0.3672,0.3517,0.3545,0.0,0.0,0.0,0.0,0.0,0.6704,0.8386,1.0608,1.2989,1.5472,1.8078,2.0137,2.1269,2.1334,2.1769,2.1696,2.1055,2.2655,2.3047,2.2412,2.404,2.4399,2.3684,2.4104,2.4067,2.3672,2.3672,2.3083,2.2084,2.0891,1.9669,1.8322,1.5889,1.4445,1.3471,0.0,1.0515,0.9667,0.9382,0.9046,0.8907,0.9908,0.0,0.0,0.6641,0.7045,0.8003,0.8404,0.0,1.1243,1.2338,1.3647,1.4736,1.5037,1.4737,1.4081,1.2999,1.151,1.0,0.8516,0.7704,0.7256,0.7282,0.7054,0.7136,0.788,0.7356,0.7099,0.774,0.7115,0.0,0.0,0.0,0.0,0.7309,0.813,0.8723,0.8871,0.8885,0.8885,0.8885,0.8885,0.8885,0.8885,0.8885,0.8885,0.8885,0.8885,0.8885,0.8885,0.8885,0.8885,0.8878,0.8828,0.8804,0.8703,0.8604,0.8503,0.8394,0.8252,0.8194,0.818,0.8025,0.7988,0.7988,0.0,0.0,0.0,0.0,0.0,0.0,0.0,0.0,0.0,0.0,0.0,0.0,0.0,0.0,0.0,0.0,0.0,0.0,0.9479,1.1297,1.3303,1.5517,1.7549,1.8644,1.8721,1.9139,1.9531,1.9873,2.1045,2.1686,2.1794,2.3045,2.3238,2.256,2.2937,2.2899,2.2518,2.2518,2.1902,2.0787,1.9285,1.8006,1.6714,1.3981,1.2603,0.0,1.004,0.868,0.7715,0.7715,0.7509,0.736,0.8144,0.7504,0.642,0.6163,0.7255,0.8751,0.978,1.1316,1.2846,1.3768,1.4776,1.5551,1.5551,1.4989,1.4192,1.3403,1.1632,0.9823,0.8494,0.743,0.6781,0.689,0.6688,0.6878,0.797,0.7414,0.7143,0.7804,0.7207,0.6956,0.0,0.0,0.0,0.7054,0.7872,0.8455,0.8555,0.8565,0.8662,0.8875,0.8885,0.8885,0.8885,0.8885,0.8885,0.8885,0.8885,0.8885,0.8885,0.8885,0.8797,0.871,0.8814,0.8794,0.856,0.8665,0.8652,0.8543,0.8347,0.8323,0.8252,0.8096,0.7988,0.7988,0.0,0.0,0.0,0.0,0.0,0.0,0.0,0.0,0.0,0.0,0.0,0.0,0.0,0.0,0.0,0.0,0.0,0.0,0.8874,1.0018,1.1134,1.2262,1.3891,1.445,1.3736,1.5401,1.6712,1.7599,1.8867,2.0034,2.1154,2.1154,2.1154,2.1154,2.1127,2.1114,2.1114,2.1114,2.0254,1.8733,1.7005,1.5405,1.3825,1.166,1.0322,0.9534,0.9084,0.7893,0.6503,0.6503,0.0,0.0,0.0,0.0,0.0,0.7886,0.8644,0.9446,1.1657,1.2779,1.3661,1.507,1.5625,1.5778,1.5764,1.5585,1.4891,1.3282,1.1893,1.0366,0.0,0.0,0.6487,0.6793,0.6805,0.717,0.8096,0.8072,0.7823,0.0,0.0,0.0,0.0,0.0,0.0,0.7624,0.0,0.7923,0.8025,0.8035,0.8295,0.8865,0.8885,0.8885,0.8885,0.8885,0.8885,0.8885,0.8885,0.8885,0.8885,0.8885,0.8706,0.833,0.8754,0.8699,0.8326,0.8608,0.8723,0.8693,0.8408,0.834,0.8262,0.8109,0.7995,0.7988,0.0,0.0,0.0,0.0,0.0,0.0,0.0,0.0,0.0,0.0,0.0,0.0,0.0,0.0,0.0,0.0,0.0,0.0,0.7209,0.8663,0.9993,1.1096,1.2366,1.3341,1.3969,1.4455,1.4803,1.5031,1.5765,1.628,1.6581,1.6374,1.6287,1.6287,1.6088,1.5988,1.5988,1.5988,1.5951,1.5777,1.4384,1.3748,1.3388,1.0885,0.9787,0.9456,0.8422,0.7369,0.0,0.0,0.0,0.0,0.0,0.7722,0.8023,0.0,0.0,1.1209,1.155,1.3213,1.4983,1.5571,1.5724,1.5772,1.5558,1.5284,1.4544,1.2456,1.0906,0.9132,0.0,0.0,0.0,0.5724,0.5798,0.0,0.7473,0.718,0.0,0.7543,0.0,0.7712,0.8001,0.8303,0.0,0.0,0.8208,0.8547,0.8646,0.8656,0.8726,0.8878,0.8885,0.8885,0.8885,0.8885,0.8885,0.8885,0.8885,0.8885,0.8885,0.8885,0.8821,0.8774,0.8834,0.8817,0.8774,0.8794,0.8824,0.8807,0.8672,0.853,0.8411,0.8265,0.814,0.7988,0.0,0.0,0.0,0.0,0.0,0.0,0.0,0.0,0.0,0.0,0.0,0.0,0.0,0.0,0.0,0.0,0.0,0.0,0.0,0.7698,0.8513,0.8878,0.9729,1.0341,1.0633,1.1216,1.171,1.2129,1.2875,1.368,1.4551,1.4273,1.4339,1.467,1.4528,1.4359,1.4189,1.4189,1.4067,0.0,0.0,1.1713,1.155,0.9343,0.8616,0.8668,0.7958,0.0,0.0,0.0,0.0,0.7468,0.8911,0.9474,0.9693,1.0236,0.0,1.2726,1.3073,1.4349,1.5625,1.5744,1.5732,1.5431,1.4623,1.3975,1.2975,1.0866,0.9167,0.0,0.5661,0.4759,0.0,0.0,0.0,0.0,0.7292,0.7166,0.7071,0.0,0.7692,0.0,0.8523,0.872,0.8669,0.0,0.8374,0.8403,0.8487,0.849,0.8612,0.8875,0.8998,0.9066,0.913,0.9133,0.91,0.9032,0.9032,0.8998,0.8885,0.8885,0.8777,0.8655,0.8797,0.8774,0.8662,0.8804,0.8885,0.8868,0.8771,0.8659,0.8557,0.8347,0.8214,0.8133,0.0,0.0,0.0,0.0,0.0,0.0,0.0,0.0,0.0,0.0,0.0,0.0,0.0,0.0,0.0,0.0,0.0,0.0,0.0,0.0,0.7116,0.6724,0.7091,0.6988,0.6334,0.7413,0.8367,0.9142,1.0054,1.1385,1.3057,1.2805,1.3034,1.3646,1.3646,1.3441,1.3081,1.3153,1.2667,1.174,1.0296,0.9561,0.9184,0.0,0.7398,0.0,0.0,0.0,0.0,0.0,0.8287,0.81,1.0265,1.1002,1.1404,1.304,1.3686,1.4033,1.4977,1.5518,1.5784,1.5784,1.5611,1.503,1.3647,1.2491,1.1131,0.9067,0.0,0.5858,0.4983,0.4289,0.4189,0.5318,0.0,0.6166,0.7214,0.7383,0.7482,0.7695,0.7794,0.8079,0.8682,0.8733,0.8797,0.8878,0.8403,0.811,0.811,0.811,0.8346,0.8868,0.9079,0.9272,0.9351,0.9371,0.9361,0.921,0.921,0.9079,0.8885,0.8885,0.8726,0.8381,0.8771,0.872,0.8391,0.8777,0.8885,0.8868,0.8794,0.8726,0.8676,0.8401,0.8337,0.8248,0.0,0.0,0.0,0.0,0.0,0.0,0.0,0.0,0.0,0.0,0.5099,0.5073,0.0,0.0,0.0,0.0,0.0,0.0,0.0,0.0,0.0,0.7244,0.6928,0.68,0.6941,0.6903,0.0,0.0,0.0,0.7453,0.7569,0.7527,0.7362,0.7136,0.7136,0.6968,0.6716,0.7105,0.7364,0.7497,0.7587,0.7791,0.7997,0.7695,0.0,0.0,0.0,0.0,0.0,0.0,0.8676,0.9351,1.1944,1.3086,1.3447,1.332,1.4142,1.4977,1.4456,1.5057,1.5784,1.5784,1.5611,1.5137,1.4162,1.2861,0.0,0.0,0.6692,0.5313,0.3742,0.3738,0.4186,0.4921,0.0,0.0,0.0,0.0,0.7485,0.0,0.0,0.0,0.0,0.0,0.0,0.0,0.8787,0.873,0.873,0.873,0.8777,0.8878,0.9079,0.9221,0.9248,0.9317,0.9361,0.921,0.921,0.9079,0.8885,0.8885,0.8841,0.8774,0.8851,0.8841,0.8774,0.8851,0.8885,0.8881,0.8854,0.8821,0.8689,0.8509,0.837,0.8248,0.0,0.0,0.0,0.0,0.0,0.0,0.0,0.4831,0.5123,0.6084,0.6173,0.6097,0.5974,0.5862,0.6014,0.0,0.0,0.0,0.0,0.0,0.0,0.0,0.0,0.668,0.0,0.0,0.0,0.0,0.0,0.0,0.0,0.0,0.0,0.0,0.0,0.0,0.0,0.6329,0.6559,0.0,0.0,0.0,0.0,0.0,0.0,0.0,0.0,0.0,0.0,0.0,0.7838,0.8658,1.2124,1.3714,1.4168,1.3427,1.4249,1.5204,1.4329,1.4937,1.5784,1.5784,1.5384,1.4429,1.2465,0.0,0.0,0.0,0.5152,0.4454,0.362,0.0,0.0,0.0,0.0,0.0,0.0,0.0,0.0,0.0,0.0,0.0,0.0,0.0,0.811,0.8396,0.842,0.8555,0.8865,0.8885,0.8974,0.9049,0.9195,0.931,0.9391,0.9462,0.9422,0.9326,0.9248,0.9079,0.8885,0.8885,0.8885,0.8885,0.8885,0.8808,0.8611,0.8787,0.8801,0.8615,0.8794,0.8838,0.8801,0.8567,0.8438,0.8347,0.0,0.0,0.0,0.0,0.0,0.0,0.0,0.5309,0.5797,0.675,0.6991,0.685,0.6268,0.6107,0.6144,0.0,0.0,0.0,0.0,0.0,0.0,0.0,0.0,0.0,0.0,0.0,0.0,0.0,0.0,0.0,0.0,0.0,0.0,0.0,0.0,0.0,0.0,0.0,0.0,0.0,0.0,0.0,0.0,0.0,0.0,0.0,0.0,0.0,0.0,0.0,0.6946,0.772,1.1122,1.2859,1.3594,1.322,1.4015,1.4923,1.4489,1.5084,1.5784,1.5784,1.5125,1.3814,1.1109,0.9561,0.0,0.0,0.418,0.397,0.3971,0.0,0.436,0.0,0.0,0.0,0.0,0.0,0.0,0.0,0.0,0.0,0.0,0.0,0.0,0.817,0.818,0.8386,0.8858,0.8885,0.8991,0.9103,0.9286,0.9439,0.9557,0.9595,0.9534,0.9381,0.9282,0.9079,0.8885,0.8885,0.8885,0.8885,0.8885,0.8682,0.8306,0.8754,0.8676,0.8316,0.8764,0.8885,0.8848,0.8594,0.8482,0.8438,0.0,0.0,0.0,0.0,0.0,0.0,0.0,0.5337,0.5635,0.7527,0.7132,0.6628,0.6557,0.6693,0.6584,0.0,0.0,0.0,0.0,0.0,0.0,0.0,0.0,0.0,0.0,0.0,0.0,0.0,0.0,0.0,0.0,0.0,0.0,0.0,0.0,0.0,0.0,0.0,0.0,0.0,0.0,0.0,0.0,0.0,0.0,0.0,0.0,0.0,0.0,0.0,0.0,0.7695,0.8563,0.9816,1.1203,1.2455,0.0,0.0,1.501,1.5545,1.5784,1.5784,1.5125,1.4028,1.2174,0.0,0.0,0.6202,0.5086,0.4521,0.4514,0.433,0.4422,0.0,0.0,0.4955,0.0,0.0,0.0,0.0,0.0,0.0,0.0,0.0,0.0,0.876,0.8801,0.8824,0.8878,0.8885,0.8888,0.8902,0.9232,0.9388,0.9401,0.954,0.9534,0.9381,0.9282,0.9079,0.8885,0.8885,0.8885,0.8885,0.8885,0.8682,0.8306,0.8754,0.8676,0.8316,0.8764,0.8885,0.8848,0.8594,0.8482,0.8438,0.0,0.0,0.0,0.0,0.0,0.0,0.5152,0.5072,0.5481,0.7092,0.6997,0.6782,0.6782,0.6736,0.6371,0.5501,0.0,0.0,0.0,0.0,0.0,0.0,0.0,0.0,0.0,0.0,0.0,0.0,0.0,0.0,0.0,0.0,0.0,0.0,0.0,0.0,0.0,0.0,0.0,0.0,0.0,0.0,0.0,0.0,0.0,0.0,0.0,0.0,0.0,0.0,0.0,0.0,0.6115,0.6767,0.0,0.0,1.1571,1.3126,1.3247,1.4522,1.5738,1.5611,1.491,1.3607,1.1156,0.0,0.8248,0.5753,0.5115,0.5021,0.5027,0.4701,0.4572,0.5,0.4642,0.468,0.5743,0.0,0.0,0.0,0.0,0.0,0.0,0.0,0.8089,0.8329,0.8346,0.8504,0.8865,0.8885,0.8885,0.8885,0.9137,0.9303,0.9303,0.9361,0.9303,0.9299,0.9093,0.8994,0.8885,0.8885,0.8885,0.8885,0.8885,0.853,0.7923,0.8642,0.8516,0.794,0.8659,0.8885,0.8848,0.8594,0.8482,0.8438,0.0,0.0,0.0,0.0,0.0,0.4122,0.4792,0.4897,0.5311,0.6452,0.6601,0.6601,0.6601,0.6284,0.5782,0.507,0.5364,0.0,0.0,0.0,0.0,0.0,0.0,0.0,0.0,0.0,0.0,0.0,0.0,0.0,0.0,0.0,0.0,0.0,0.0,0.0,0.0,0.0,0.0,0.0,0.0,0.0,0.0,0.0,0.0,0.0,0.0,0.0,0.0,0.0,0.0,0.0,0.0,0.0,0.0,0.0,1.011,1.2027,1.2141,1.3821,1.5524,1.5317,1.4409,1.2879,0.0,0.9025,0.7729,0.5299,0.507,0.5293,0.5293,0.4922,0.4732,0.5167,0.4991,0.5144,0.615,0.6692,0.0,0.0,0.0,0.0,0.0,0.8201,0.8255,0.8255,0.8255,0.8437,0.8861,0.8885,0.8885,0.8885,0.9079,0.921,0.921,0.921,0.921,0.9207,0.9008,0.8814,0.8747,0.8824,0.8811,0.875,0.8824,0.8506,0.7858,0.8625,0.8489,0.7875,0.8638,0.8885,0.8848,0.8594,0.8482,0.8438,0.0,0.0,0.0,0.0,0.0,0.0,0.4792,0.4897,0.5147,0.5829,0.5918,0.5918,0.5918,0.5262,0.4814,0.4809,0.4986,0.0,0.0,0.0,0.0,0.0,0.0,0.0,0.0,0.0,0.6865,0.7406,0.7406,0.0,0.0,0.0,0.0,0.0,0.0,0.0,0.0,0.0,0.0,0.0,0.0,0.0,0.0,0.0,0.0,0.0,0.0,0.0,0.0,0.0,0.0,0.0,0.0,0.0,0.0,0.0,0.9212,1.0528,1.2328,1.3889,1.5015,1.5015,1.3634,1.1857,0.0,0.8569,0.6995,0.5173,0.507,0.5293,0.5293,0.4922,0.4899,0.5842,0.6084,0.6474,0.7371,0.8108,0.0,0.0,0.0,0.0,0.0,0.875,0.8875,0.8875,0.8875,0.0,0.8885,0.8885,0.8885,0.8885,0.9079,0.921,0.921,0.921,0.921,0.9207,0.9008,0.8706,0.8344,0.8737,0.8696,0.8354,0.8747,0.8682,0.8299,0.8754,0.8672,0.8309,0.876,0.8885,0.8848,0.8594,0.8482,0.8438,0.0,0.0,0.0,0.0,0.0,0.0,0.0,0.4211,0.445,0.5127,0.5217,0.5391,0.5858,0.5277,0.4807,0.4671,0.4593,0.0,0.0,0.0,0.0,0.0,0.0,0.0,0.0,0.0,0.6687,0.6853,0.6853,0.6864,0.6899,0.0,0.0,0.0,0.0,0.0,0.0,0.0,0.0,0.0,0.0,0.0,0.0,0.0,0.0,0.0,0.0,0.0,0.0,0.0,0.0,0.0,0.0,0.0,0.0,0.597,0.0,0.0,0.9252,1.0534,1.1557,1.1149,1.0596,0.977,0.8199,0.7502,0.6774,0.5418,0.5226,0.5293,0.5293,0.4922,0.5098,0.6629,0.6645,0.7074,0.0,0.0,0.0,0.0,0.0,0.0,0.0,0.0,0.8443,0.8851,0.8504,0.845,0.8861,0.8885,0.8885,0.8885,0.8984,0.9008,0.9008,0.9008,0.9008,0.9008,0.8905,0.8706,0.8337,0.8733,0.8693,0.8347,0.8743,0.8682,0.8306,0.8754,0.8676,0.8316,0.8764,0.8885,0.8848,0.8594,0.8482,0.8438,0.0,0.0,0.0,0.0,0.0,0.0,0.0,0.3906,0.4137,0.4807,0.4683,0.4869,0.5799,0.506,0.453,0.4666,0.4255,0.0,0.0,0.0,0.0,0.0,0.0,0.0,0.5293,0.6164,0.6699,0.6903,0.6903,0.6966,0.7091,0.7009,0.7082,0.0,0.0,0.0,0.0,0.0,0.0,0.0,0.0,0.0,0.0,0.0,0.0,0.0,0.0,0.0,0.0,0.0,0.0,0.0,0.0,0.0,0.0,0.0,0.5863,0.6633,0.0,0.8558,0.9504,0.9144,0.8711,0.8105,0.7073,0.66,0.6126,0.5284,0.5394,0.5578,0.5333,0.5244,0.5564,0.67,0.7185,0.7973,0.0,0.0,0.0,0.0,0.0,0.0,0.0,0.8511,0.848,0.8854,0.8538,0.849,0.8865,0.8885,0.8885,0.8885,0.8885,0.8885,0.8885,0.8885,0.8885,0.8885,0.8885,0.8706,0.8337,0.8733,0.8693,0.8347,0.8743,0.8781,0.0,0.877,0.8774,0.855,0.8774,0.8848,0.8821,0.8574,0.8448,0.8367,0.0,0.0,0.0,0.0,0.0,0.0,0.0,0.3906,0.4137,0.4807,0.432,0.4398,0.5694,0.4617,0.4058,0.4678,0.0,0.0,0.0,0.0,0.0,0.0,0.0,0.0,0.5795,0.6332,0.684,0.7344,0.7381,0.7406,0.7396,0.7254,0.7264,0.7396,0.7196,0.0,0.0,0.0,0.0,0.0,0.0,0.0,0.0,0.0,0.0,0.0,0.0,0.0,0.0,0.0,0.0,0.0,0.0,0.0,0.0,0.0,0.0,0.0,0.0,0.7639,0.0,0.8497,0.7652,0.6773,0.6526,0.5869,0.0,0.4947,0.5601,0.6035,0.5487,0.5887,0.6303,0.6344,0.7792,0.0,0.0,0.0,0.0,0.0,0.0,0.0,0.8598,0.8774,0.8885,0.8885,0.8885,0.8885,0.8885,0.8885,0.8885,0.8885,0.8885,0.8885,0.8885,0.8885,0.8868,0.8838,0.8868,0.8686,0.8289,0.872,0.8693,0.8347,0.8743,0.8885,0.8885,0.8885,0.8885,0.8885,0.8885,0.879,0.8693,0.8537,0.8391,0.8248,0.0,0.0,0.0,0.0,0.0,0.0,0.0,0.0,0.0,0.0,0.432,0.4208,0.5037,0.4385,0.3921,0.0,0.0,0.0,0.0,0.0,0.0,0.0,0.0,0.0,0.5795,0.6332,0.6662,0.6778,0.7194,0.7406,0.7406,0.7823,0.7798,0.7406,0.7345,0.7085,0.0,0.0,0.0,0.0,0.0,0.0,0.0,0.0,0.0,0.0,0.0,0.6066,0.0,0.0,0.0,0.0,0.0,0.0,0.0,0.0,0.486,0.4834,0.4968,0.0,0.5701,0.5481,0.5381,0.5299,0.0,0.5264,0.5407,0.5789,0.0,0.6216,0.6285,0.678,0.7352,0.7799,0.8951,1.0094,0.0,0.0,0.0,0.0,0.0,0.846,0.8174,0.8592,0.8885,0.8885,0.8885,0.8885,0.8885,0.8885,0.8885,0.8885,0.8885,0.8885,0.8885,0.8885,0.8767,0.8431,0.8774,0.8523,0.7784,0.8577,0.8693,0.8347,0.8743,0.8885,0.8885,0.8885,0.8885,0.8885,0.8885,0.879,0.8693,0.8537,0.8391,0.8248,0.0,0.0,0.0,0.0,0.0,0.0,0.0,0.0,0.0,0.0,0.0,0.0,0.0,0.0,0.0,0.0,0.0,0.0,0.0,0.0,0.0,0.0,0.0,0.5501,0.5795,0.6332,0.6849,0.7385,0.7676,0.7939,0.8187,0.8263,0.7976,0.7393,0.7153,0.679,0.0,0.0,0.0,0.0,0.0,0.0,0.0,0.0,0.0,0.0,0.6641,0.6445,0.0,0.5862,0.5345,0.4834,0.0,0.0,0.0,0.0,0.5022,0.4995,0.485,0.4809,0.4867,0.5159,0.5008,0.4947,0.5501,0.0,0.0,0.0,0.0,0.0,0.0,0.0,0.0,0.0,0.8925,0.0,0.0,0.0,0.0,0.0,0.7859,0.8042,0.0,0.8531,0.8885,0.8885,0.8885,0.8885,0.8885,0.8885,0.8885,0.8885,0.8885,0.8885,0.8885,0.8885,0.8713,0.8327,0.8723,0.8577,0.7933,0.8625,0.8808,0.8581,0.8618,0.875,0.8868,0.8716,0.8754,0.8875,0.8807,0.874,0.8587,0.8438,0.8292,0.8153,0.0,0.0,0.0,0.0,0.0,0.0,0.0,0.0,0.0,0.0,0.0,0.0,0.0,0.0,0.0,0.0,0.0,0.0,0.0,0.0,0.0,0.0,0.5285,0.5845,0.5913,0.6369,0.7071,0.8037,0.8298,0.8661,0.9088,0.8801,0.8252,0.7516,0.6966,0.6639,0.0,0.0,0.0,0.0,0.0,0.0,0.0,0.0,0.0,0.0,0.0,0.0,0.0,0.6115,0.5345,0.4635,0.5217,0.0,0.0,0.0,0.0,0.0,0.5353,0.5197,0.5201,0.6008,0.5558,0.5235,0.6339,0.0,0.0,0.0,0.0,0.0,0.0,0.6975,0.0,0.0,0.0,0.0,0.0,0.0,0.0,0.0,0.8221,0.0,0.8629,0.9001,0.9316,0.9533,0.9592,0.9482,0.9265,0.9427,0.9482,0.9265,0.9427,0.9482,0.9265,0.8992,0.8713,0.8327,0.8723,0.8706,0.8337,0.8733,0.8885,0.8861,0.8537,0.8587,0.8854,0.853,0.8581,0.8838,0.876,0.8707,0.8741,0.8618,0.8571,0.8577,0.0,0.0,0.0,0.0,0.0,0.0,0.0,0.0,0.0,0.0,0.0,0.0,0.0,0.0,0.0,0.0,0.0,0.0,0.0,0.0,0.0,0.5519,0.5707,0.6014,0.6461,0.6561,0.6687,0.6862,0.8284,0.9025,0.9113,0.9943,0.9554,0.8137,0.7541,0.6802,0.6011,0.0,0.0,0.0,0.0,0.0,0.0,0.0,0.0,0.0,0.0,0.0,0.0,0.6924,0.6309,0.5655,0.6147,0.0,0.0,0.0,0.0,0.0,0.5578,0.5816,0.6021,0.6162,0.5883,0.5741,0.6433,0.0,0.0,0.0,0.0,0.0,0.0,0.9486,1.021,0.0,0.0,1.1467,0.0,0.0,1.2338,1.1035,0.0,1.0815,1.1649,1.1133,1.1269,1.2512,1.2615,1.2077,1.0836,1.1973,1.2023,1.0781,1.1969,1.2028,1.0781,0.9537,0.8713,0.8327,0.8723,0.8706,0.8337,0.8733,0.8885,0.8878,0.8811,0.8821,0.8878,0.8811,0.8801,0.8743,0.872,0.9211,0.9951,0.9922,1.0499,1.1312,0.0,0.0,0.0,0.0,0.0,0.0,0.0,0.0,0.0,0.0,0.0,0.0,0.0,0.0,0.0,0.0,0.0,0.0,0.0,0.0,0.5144,0.5356,0.5926,0.6344,0.6599,0.6878,0.7338,0.7947,0.8723,0.939,0.9956,0.9579,0.8782,0.7623,0.702,0.6429,0.5893,0.5745,0.0,0.0,0.0,0.0,0.0,0.0,0.0,0.0,0.0,0.0,0.0,0.0,0.6418,0.5691,0.6311,0.0,0.0,0.0,0.0,0.0,0.5503,0.5595,0.593,0.6874,0.6647,0.6633,0.8368,0.7316,0.0,0.0,0.0,0.0,0.0,0.0,1.016,1.0621,0.0,1.3732,1.3497,1.3465,1.3298,0.0,0.0,1.1981,1.236,1.2328,1.2566,1.3264,1.3318,1.2674,1.116,1.2512,1.2615,1.116,1.2512,1.2994,1.2295,1.1592,1.0301,0.8327,0.8723,0.8706,0.8337,0.8733,0.8885,0.8923,0.9472,0.9877,1.0104,1.0516,1.0789,1.0911,1.0654,1.0872,1.1253,1.1146,1.1442,1.1994,0.0,0.0,0.0,0.0,0.0,0.0,0.0,0.0,0.0,0.0,0.0,0.0,0.0,0.0,0.0,0.0,0.0,0.0,0.0,0.0,0.506,0.5187,0.6101,0.6662,0.6778,0.7181,0.7901,0.8913,0.9164,0.9767,1.0669,0.9267,0.8136,0.7253,0.6609,0.613,0.5791,0.5587,0.5464,0.0,0.0,0.0,0.0,0.0,0.0,0.0,0.0,0.0,0.0,0.0,0.0,0.0,0.0,0.0,0.0,0.5804,0.5808,0.5686,0.5462,0.5388,0.5772,0.7415,0.0,0.7075,1.0023,0.8456,0.0,0.0,0.0,0.0,0.0,0.9526,0.0,1.2465,1.4155,1.5231,1.5403,1.4844,1.4534,1.4873,1.3863,1.3237,1.3584,1.3701,1.3965,1.4288,1.4288,1.3534,1.1701,1.3318,1.348,1.1647,1.3372,1.4126,1.3804,1.3804,1.2322,0.9453,0.9788,0.9769,0.9465,0.9796,0.9915,0.9944,1.0659,1.1163,1.1527,1.2046,1.2415,1.264,1.2299,1.2383,1.2613,1.2737,1.2818,1.2963,0.0,0.0,0.0,0.0,0.0,0.0,0.0,0.0,0.0,0.0,0.0,0.0,0.0,0.0,0.0,0.0,0.0,0.0,0.0,0.0,0.5218,0.572,0.6294,0.6828,0.7331,0.7381,0.7716,0.8361,0.9353,1.0131,1.0681,0.9882,0.8912,0.7805,0.7019,0.6239,0.553,0.5511,0.5358,0.5127,0.0,0.0,0.0,0.0,0.0,0.0,0.0,0.0,0.0,0.0,0.0,0.0,0.0,0.0,0.5779,0.5794,0.5546,0.5312,0.5593,0.5667,0.5979,0.7216,0.6445,0.6378,1.0107,0.8884,0.0,1.1403,0.0,0.0,0.0,1.1685,1.2245,1.4068,1.4489,1.505,1.6393,0.0,1.6686,1.7303,1.6045,1.5734,1.7082,1.6019,1.5796,1.7199,1.7312,1.6068,1.3264,1.5796,1.6015,1.321,1.5849,1.6611,1.5257,1.5257,1.4475,1.293,1.2974,1.2969,1.293,1.2974,1.2999,1.2979,1.2732,1.2648,1.2672,1.2462,1.2308,1.2264,1.2229,1.2833,1.3902,1.5105,1.554,1.554,0.0,0.0,0.0,0.0,0.0,0.0,0.0,0.0,0.0,0.0,0.0,0.0,0.0,0.0,0.0,0.0,0.0,0.0,0.0,0.4516,0.5086,0.5293,0.6139,0.6853,0.7393,0.7766,0.8238,0.88,0.9867,1.0223,0.9873,0.8972,0.811,0.7292,0.6367,0.5687,0.5253,0.5253,0.5195,0.5098,0.5098,0.0,0.0,0.0,0.0,0.0,0.0,0.0,0.0,0.0,0.7115,0.6726,0.7096,0.6556,0.5822,0.5952,0.6008,0.5878,0.5304,0.5599,0.643,0.7933,0.7188,0.0,0.0,0.975,0.9324,1.2719,1.183,0.0,0.0,0.0,1.3527,1.4382,1.4932,1.5591,1.6333,1.6587,1.6854,1.7313,1.699,1.6988,1.7529,1.7094,1.6982,1.7582,1.677,1.5743,1.4663,1.5636,1.5743,1.4663,1.6552,1.7312,1.677,1.677,1.6411,1.5719,1.4056,1.3194,1.3004,1.3004,1.2881,1.2798,1.3599,1.3916,1.3894,1.4569,1.4806,1.4752,1.4534,1.4702,1.514,1.5635,1.5784,1.5784,0.0,0.0,0.0,0.0,0.0,0.0,0.0,0.0,0.0,0.0,0.0,0.0,0.0,0.0,0.0,0.0,0.0,0.0,0.3357,0.4219,0.4802,0.4985,0.5863,0.6599,0.7141,0.7912,0.8474,0.885,0.9755,0.9849,0.9159,0.837,0.7634,0.6966,0.6013,0.5492,0.5312,0.5166,0.5098,0.5098,0.5098,0.5283,0.0,0.0,0.0,0.0,0.0,0.0,0.0,0.0,0.7203,0.6842,0.7037,0.6689,0.6179,0.6039,0.6154,0.6146,0.5354,0.5555,0.6371,0.798,0.0,0.0,1.1062,1.0603,1.0383,1.3574,1.2926,1.185,1.2064,0.0,0.0,0.0,1.4978,1.5618,1.6192,1.644,1.668,1.6974,1.7188,1.7308,1.7308,1.7308,1.7308,1.7308,1.6398,1.5602,1.5124,1.5543,1.5602,1.5124,1.6554,1.7308,1.7308,1.7308,1.7208,1.7007,1.5257,1.4245,1.4027,1.4027,1.3938,1.3829,1.4722,1.5094,1.512,1.5856,1.6132,1.6112,1.5912,1.5784,1.5784,1.5784,1.5784,1.5784,0.0,0.0,0.0,0.0,0.0,0.0,0.0,0.0,0.0,0.0,0.0,0.0,0.0,0.0,0.0,0.0,0.0,0.0,0.3492,0.3881,0.4375,0.4972,0.5513,0.6051,0.6586,0.7698,0.8288,0.83,0.8825,0.8946,0.867,0.8338,0.7757,0.6955,0.6166,0.5813,0.5764,0.5312,0.5108,0.5098,0.5098,0.5098,0.0,0.0,0.0,0.0,0.0,0.0,0.0,0.0,0.7369,0.7472,0.6213,0.6409,0.6924,0.6076,0.5861,0.5918,0.5912,0.5621,0.5678,0.0,0.0,0.0,1.1886,1.1417,1.0936,1.3873,1.4977,1.5204,1.4616,1.4282,0.0,1.4476,1.4529,1.4937,1.6154,1.6321,1.638,1.6667,1.6707,1.6707,1.6707,1.6707,1.6707,1.6707,1.6707,1.6035,1.4597,1.5884,1.6035,1.4546,1.5934,1.6707,1.6707,1.6707,1.6707,1.67,1.67,1.67,1.67,1.67,1.67,1.668,1.6393,1.6321,1.6246,1.5952,1.5784,1.5784,1.5784,1.5784,1.5784,1.5784,1.5784,1.5784,0.0,0.0,0.0,0.0,0.0,0.0,0.0,0.0,0.0,0.0,0.0,0.0,0.0,0.0,0.0,0.0,0.0,0.0,0.3353,0.3824,0.4375,0.4972,0.5513,0.6051,0.6586,0.6745,0.7406,0.8583,0.8363,0.7992,0.7501,0.7405,0.6934,0.6186,0.6835,0.6453,0.5361,0.616,0.5954,0.5098,0.5098,0.5098,0.0,0.0,0.0,0.0,0.0,0.0,0.0,0.0,0.0,0.0,0.7164,0.6891,0.67,0.7206,0.706,0.6711,0.6509,0.6743,0.0,0.0,0.0,0.0,0.0,1.1289,0.0,0.0,1.4496,1.4295,1.3707,0.0,0.0,1.4609,1.4992,1.5518,1.5912,1.6139,1.6355,1.6393,1.6587,1.6707,1.6707,1.6707,1.6707,1.6707,1.5783,1.5475,1.6035,1.5469,1.5418,1.6035,1.645,1.6707,1.6707,1.6707,1.6607,1.64,1.64,1.64,1.64,1.64,1.6286,1.6037,1.5999,1.5965,1.5952,1.5818,1.5784,1.5784,1.5784,1.5784,1.5784,1.5784,1.5784,1.5784,0.0,0.0,0.0,0.0,0.0,0.0,0.0,0.0,0.0,0.0,0.3722,0.3683,0.0,0.0,0.0,0.0,0.0,0.0,0.0,0.3804,0.4375,0.4972,0.5513,0.6112,0.6782,0.6409,0.671,0.7749,0.7525,0.7178,0.6734,0.7082,0.6807,0.6086,0.7037,0.6771,0.5652,0.6309,0.6016,0.5098,0.5098,0.5098,0.5195,0.0,0.0,0.0,0.0,0.0,0.0,0.0,0.0,0.0,0.7223,0.7301,0.7381,0.7184,0.7235,0.7327,0.7117,0.7367,0.0,0.0,0.0,1.0334,1.1122,0.0,0.0,0.0,0.0,1.4669,1.4315,1.5072,0.0,1.5078,1.5438,1.5784,1.5784,1.5985,1.6092,1.6092,1.6253,1.6359,1.6359,1.6359,1.6359,1.6359,1.5553,1.5455,1.631,1.5504,1.5399,1.6304,1.6359,1.6359,1.6359,1.6359,1.6266,1.6092,1.6092,1.6092,1.6092,1.6092,1.5999,1.5784,1.5784,1.5784,1.5784,1.5784,1.5784,1.5784,1.5784,1.5784,1.5784,1.5784,1.5784,1.5784,0.0,0.0,0.0,0.0,0.0,0.0,0.0,0.0,0.0,0.0,0.3593,0.3567,0.0,0.0,0.0,0.0,0.0,0.0,0.0,0.3804,0.4375,0.4972,0.5542,0.6212,0.7001,0.644,0.6166,0.6222,0.6471,0.645,0.6212,0.7084,0.7085,0.6377,0.6953,0.6895,0.6328,0.6086,0.5635,0.5108,0.5146,0.5137,0.5195,0.6072,0.0,0.0,0.0,0.0,0.0,0.0,0.0,0.0,0.6765,0.7574,0.8464,0.6629,0.6904,0.7785,0.7771,0.0,0.0,0.0,0.0,0.0,0.0,0.0,1.3474,1.5418,0.0,1.5705,1.5764,1.5784,1.5784,1.5784,1.5784,1.5784,1.5784,1.5784,1.5784,1.5784,1.5784,1.5784,1.5784,1.5784,1.5784,1.5784,1.5784,1.5784,1.5784,1.5784,1.5784,1.5784,1.5784,1.5784,1.5784,1.5784,1.5784,1.5784,1.5784,1.5784,1.5784,1.5784,1.5784,1.5784,1.5784,1.5784,1.5784,1.5784,1.5784,1.5784,1.5784,1.5784,1.5784,1.5784,1.5784,1.5784,0.0,0.0,0.0,0.0,0.0,0.0,0.0,0.0,0.0,0.0,0.0,0.0,0.0,0.0,0.0,0.0,0.0,0.0,0.0,0.3804,0.4375,0.4972,0.5718,0.6203,0.6394,0.5898,0.5657,0.5667,0.5725,0.5628,0.5373,0.6258,0.6402,0.5988,0.7465,0.7309,0.5988,0.6901,0.644,0.5127,0.5498,0.5429,0.5195,0.6072,0.6394,0.0,0.0,0.0,0.0,0.0,0.0,0.0,0.7472,0.7457,0.7622,0.8143,0.8069,0.7985,0.0,0.8693,0.0,0.0,0.0,0.0,0.0,0.0,1.4188,1.5551,1.5097,1.4743,1.5658,1.5784,1.5784,1.5784,1.5784,1.5784,1.5784,1.5784,1.5784,1.5784,1.5784,1.5784,1.5784,1.5784,1.5784,1.5784,1.5784,1.5784,1.5784,1.5784,1.5784,1.5784,1.5784,1.5784,1.5784,1.5784,1.5784,1.5784,1.5784,1.5784,1.5784,1.5784,1.5784,1.5784,1.5784,1.5784,1.5784,1.5784,1.5784,1.5784,1.5784,1.5784,1.5784,1.5784,1.5784,1.5784,0.0,0.0,0.0,0.0,0.0,0.0,0.0,0.0,0.0,0.0,0.0,0.0,0.0,0.0,0.0,0.0,0.0,0.0,0.0,0.4066,0.4903,0.5732,0.6166,0.6283,0.6061,0.5817,0.5567,0.531,0.531,0.5353,0.5449,0.6328,0.6729,0.6758,0.7656,0.7559,0.6719,0.6768,0.627,0.5439,0.5459,0.5459,0.5488,0.5937,0.623,0.6482,0.7174,0.0,0.0,0.0,0.0,0.0,0.0,0.0,0.7695,0.7562,0.763,0.7866,0.0,0.0,0.0,0.0,0.0,0.0,0.0,0.0,1.509,1.5705,1.5344,1.511,1.5671,1.5784,1.5784,1.5784,1.5784,1.5784,1.5784,1.5784,1.5784,1.5784,1.5784,1.5784,1.5784,1.5784,1.5784,1.5784,1.5784,1.5784,1.5784,1.5784,1.5784,1.5784,1.5784,1.5784,1.5784,1.5784,1.5784,1.5784,1.5784,1.5784,1.5784,1.5784,1.5784,1.5784,1.5784,1.5784,1.5784,1.5784,1.5784,1.5784,1.5784,1.5784,1.5784,1.5784,1.5784,1.5784,0.0,0.0,0.0,0.0,0.0,0.0,0.0,0.0,0.0,0.0,0.0,0.0,0.0,0.0,0.0,0.0,0.0,0.0,0.0,0.4366,0.5461,0.6485,0.6491,0.6281,0.5847,0.578,0.5547,0.5098,0.5098,0.5566,0.6467,0.7119,0.7642,0.8016,0.7948,0.7793,0.752,0.6377,0.59,0.588,0.5575,0.5624,0.59,0.59,0.6104,0.6443,0.6846,0.7031,0.7148,0.7486,0.0,0.0,0.0,0.0,0.7805,0.6495,0.6817,0.7603,0.0,0.0,0.0,0.0,0.0,0.0,0.0,1.519,1.5598,1.5751,1.5784,1.5784,1.5784,1.5784,1.5784,1.5784,1.5784,1.5784,1.5784,1.5784,1.5784,1.5784,1.5784,1.5784,1.5784,1.5784,1.5784,1.5784,1.5784,1.5784,1.5784,1.5784,1.5784,1.5784,1.5784,1.5784,1.5784,1.5784,1.5784,1.5784,1.5784,1.5784,1.5784,1.5784,1.5784,1.5784,1.5784,1.5784,1.5784,1.5784,1.5784,1.5784,1.5784,1.5784,1.5784,1.5784,1.5784,1.5784,0.0,0.0,0.0,0.0,0.0,0.0,0.0,0.0,0.0,0.0,0.3306,0.3306,0.3306,0.3306,0.0,0.0,0.0,0.0,0.3306,0.0,0.0,0.6215,0.6079,0.5856,0.5559,0.533,0.5175,0.5098,0.5098,0.647,0.9077,0.885,0.8958,0.933,0.8977,0.8223,0.7148,0.6572,0.6318,0.6357,0.6699,0.6631,0.6318,0.6318,0.6357,0.6416,0.6475,0.6758,0.7109,0.7168,0.7408,0.0,0.0,0.0,0.0,0.6892,0.7056,0.7315,0.0,0.0,0.0,0.0,0.0,0.0,0.0,0.0,1.491,0.0,1.5784,1.5784,1.5784,1.5784,1.5784,1.5784,1.5784,1.5784,1.5784,1.5784,1.5784,1.5784,1.5784,1.5784,1.5784,1.5784,1.5784,1.5784,1.5784,1.5784,1.5784,1.5784,1.5784,1.5784,1.5784,1.5784,1.5784,1.5784,1.5784,1.5784,1.5784,1.5784,1.5784,1.5784,1.5784,1.5784,1.5784,1.5784,1.5784,1.5784,1.5784,1.5784,1.5784,1.5784,1.5784,1.5784,1.5784,1.5784,0.0,0.0,0.0,0.0,0.0,0.0,0.0,0.0,0.0,0.0,0.0,0.3306,0.3306,0.3306,0.0,0.0,0.0,0.0,0.3616,0.4287,0.0,0.5615,0.5807,0.5773,0.5502,0.5377,0.5253,0.5098,0.5098,0.7141,1.1063,1.0878,1.0888,1.1052,1.1152,0.9932,0.7817,0.7612,0.708,0.6426,0.6618,0.7031,0.7432,0.6689,0.6706,0.7067,0.657,0.6531,0.6758,0.7012,0.7369,0.7695,0.7695,0.0,0.0,0.0,0.0,0.0,0.8611,0.0,0.0,0.0,0.0,0.0,0.0,0.0,1.477,1.5598,1.5784,1.5784,1.5784,1.5784,1.5784,1.5784,1.5784,1.5784,1.5784,1.5784,1.5784,1.5784,1.5784,1.5784,1.5784,1.5784,1.5784,1.5784,1.5784,1.5784,1.5784,1.5784,1.5784,1.5784,1.5784,1.5784,1.5784,1.5784,1.5784,1.5784,1.5784,1.5784,1.5784,1.5784,1.5784,1.5784,1.5784,1.5784,1.5784,1.5784,1.5784,1.5784,1.5784,1.5784,1.5784,1.5784,1.5784,1.5784,0.0,0.0,0.0,0.0,0.0,0.0,0.0,0.0,0.0,0.0,0.0,0.0,0.3319,0.0,0.0,0.0,0.0,0.0,0.3848,0.0,0.0,0.0,0.5562,0.567,0.5396,0.5396,0.5301,0.5098,0.5098,0.7365,1.1726,1.2164,1.2603,1.3012,1.293,1.1594,0.9316,0.8669,0.8072,0.7525,0.7432,0.7852,0.8453,0.7559,0.7622,0.8046,0.7086,0.6807,0.6924,0.7061,0.7369,0.7676,0.7569,0.0,0.0,0.0,0.0,0.0,0.0,0.0,0.0,0.0,0.0,0.0,0.0,0.0,1.4349,0.0,1.5671,1.5784,1.5784,1.5784,1.5784,1.5784,1.5784,1.5784,1.5784,1.5784,1.5784,1.5784,1.5784,1.5784,1.5784,1.5784,1.5784,1.5784,1.5784,1.5784,1.5784,1.5784,1.5784,1.5784,1.5784,1.5784,1.5784,1.5784,1.5784,1.5784,1.5784,1.5784,1.5784,1.5784,1.5784,1.5784,1.5784,1.5784,1.5784,1.5784,1.5784,1.5784,1.5784,1.5784,1.5784,1.5784,1.5784,1.5784,0.0,0.0,0.0,0.0,0.0,0.0,0.0,0.0,0.0,0.0,0.0,0.0,0.3352,0.3759,0.3799,0.317,0.0,0.0,0.0,0.0,0.0,0.0,0.0,0.0,0.5127,0.5117,0.5108,0.5098,0.5098,0.692,1.044,1.2093,1.3701,1.5176,1.3584,1.2568,1.1843,0.9414,0.9268,1.0635,1.0263,0.9647,0.9014,0.9318,0.9456,0.933,0.8075,0.792,0.817,0.0,0.7369,0.7627,0.7242,0.6797,0.6328,0.0,0.0,0.0,0.0,0.0,0.0,0.0,0.0,0.0,0.0,0.0,0.0,1.4349,1.5205,1.5784,1.5784,1.5784,1.5784,1.5784,1.5784,1.5784,1.5784,1.5784,1.5784,1.5784,1.5784,1.5784,1.5784,1.5784,1.5784,1.5784,1.5784,1.5784,1.5784,1.5784,1.5784,1.5784,1.5784,1.5784,1.5784,1.5784,1.5784,1.5784,1.5784,1.5784,1.5784,1.5784,1.5784,1.5784,1.5784,1.5784,1.5784,1.5784,1.5784,1.5784,1.5784,1.5784,1.5784,1.5784,1.5784,1.5784,0.0,0.0,0.0,0.0,0.0,0.0,0.0,0.0,0.0,0.0,0.0,0.0,0.0,0.3817,0.368,0.3444,0.3106,0.0,0.0,0.0,0.0,0.0,0.0,0.0,0.5098,0.5098,0.5098,0.5098,0.5098,0.6599,0.9482,1.0381,1.1697,1.3412,1.5049,1.4324,1.18,1.1438,1.0342,0.9026,1.1134,1.1115,0.9932,1.0897,1.1453,1.1475,0.9601,0.0,0.0,0.0,0.0,0.8018,0.7324,0.6787,0.6258,0.5556,0.5491,0.0,0.0,0.0,0.0,0.0,0.0,0.9801,0.0,1.2192,1.2645,1.3293,1.4536,1.5431,1.5057,1.5405,1.5784,1.5784,1.5784,1.5784,1.5784,1.5784,1.5784,1.5784,1.5784,1.5784,1.5784,1.5784,1.5784,1.5784,1.5258,1.5192,1.5751,1.5251,1.5198,1.5764,1.5784,1.5784,1.5784,1.5784,1.5784,1.5784,1.5784,1.5784,1.5784,1.5784,1.5784,1.5784,1.5784,1.5784,1.5784,1.5784,1.5784,1.5784,1.5784,1.5784,1.5784,1.5784,1.5784,1.5784,0.0,0.0,0.0,0.0,0.0,0.0,0.0,0.0,0.0,0.3697,0.0,0.0,0.0,0.0,0.3997,0.3757,0.3388,0.3227,0.3359,0.3963,0.0,0.0,0.0,0.0,0.0,0.5098,0.5098,0.5098,0.5253,0.6375,0.8379,0.9221,1.0361,1.1872,1.4336,1.4422,1.27,1.3115,1.1955,0.999,1.2125,1.23,1.1465,1.2533,1.3176,1.3344,1.1803,0.0,0.0,0.0,0.0,0.9047,0.8199,0.7135,0.6055,0.5322,0.5368,0.0,0.6913,0.0,0.0,0.0,0.0,0.8741,1.0272,0.0,1.1977,1.2409,1.3983,1.5164,1.487,1.5291,1.5718,1.5764,1.5784,1.5784,1.5784,1.5784,1.5784,1.5784,1.5784,1.5784,1.5784,1.5784,1.5784,1.5784,1.5238,1.5172,1.5751,1.5232,1.5178,1.5764,1.5784,1.5784,1.5784,1.5784,1.5784,1.5784,1.5784,1.5784,1.5784,1.5784,1.5784,1.5784,1.5784,1.5784,1.5784,1.5784,1.5784,1.5784,1.5784,1.5784,1.5784,1.5784,1.5784,1.5784,0.0,0.0,0.0,0.0,0.0,0.0,0.0,0.0,0.3765,0.3649,0.0,0.0,0.0,0.0,0.0,0.4078,0.3953,0.4088,0.4473,0.4874,0.0,0.0,0.0,0.0,0.5127,0.5117,0.5117,0.5117,0.5586,0.6252,0.7119,0.8763,0.9991,1.084,1.133,1.2709,1.4629,1.4211,1.3988,1.382,0.0,1.3238,1.342,1.4214,1.4637,1.4799,1.4656,1.4189,0.0,1.2369,0.0,0.0,0.9829,0.7827,0.5724,0.5273,0.5282,0.0,0.0,0.0,0.0,0.0,0.0,0.0,0.8543,0.0,1.1082,1.1718,1.3487,1.5028,1.5284,1.5364,1.5478,1.5718,1.5771,1.5784,1.5784,1.5784,1.5784,1.5784,1.5784,1.5784,1.5784,1.5784,1.5784,1.5784,1.5758,1.5751,1.5784,1.5784,1.5784,1.5784,1.5784,1.5784,1.5784,1.5784,1.5784,1.5784,1.5784,1.5784,1.5784,1.5784,1.5784,1.5784,1.5784,1.5784,1.5784,1.5784,1.5784,1.5784,1.5784,1.5784,1.5784,1.5784,1.5784,1.5784,0.0,0.0,0.0,0.0,0.0,0.4164,0.4118,0.402,0.4051,0.0,0.0,0.0,0.4835,0.4992,0.4902,0.4406,0.4342,0.4375,0.4492,0.4874,0.5253,0.5596,0.5724,0.5733,0.5616,0.5606,0.5606,0.5606,0.6025,0.6357,0.6611,0.7422,0.8071,0.8646,1.0029,1.0987,1.1604,1.2389,0.0,1.1082,1.4066,1.4016,0.0,0.0,0.0,0.0,0.0,1.6738,1.618,0.0,1.3779,1.1852,0.0,0.731,0.6211,0.6072,0.6329,0.0,0.6849,0.0,0.0,0.0,0.0,0.0,0.0,0.0,0.0,1.0157,1.1757,1.326,1.3953,1.4649,1.5177,1.5471,1.5691,1.5784,1.5784,1.5784,1.5784,1.5784,1.5784,1.5784,1.5784,1.5784,1.5784,0.0,1.5237,1.5112,1.5751,1.5784,1.5784,1.5784,1.5784,1.5784,1.5784,1.5784,1.5784,1.5784,1.5784,1.5784,1.5784,1.5784,1.5784,1.5784,1.5784,1.5784,1.5784,1.5784,1.5784,1.5784,1.5784,1.5784,1.5784,1.5784,1.5784,1.5784,0.0,0.0,0.0,0.0,0.4858,0.4803,0.475,0.4631,0.4617,0.0,0.0,0.0,0.5341,0.5722,0.5692,0.5097,0.5049,0.5107,0.5283,0.5517,0.5848,0.632,0.6154,0.5968,0.5803,0.5803,0.5803,0.5803,0.6396,0.6699,0.6699,0.6973,0.7223,0.7496,0.8506,0.8878,0.8791,1.0068,1.0532,0.0,1.3304,0.0,0.0,1.6062,1.6555,0.0,0.0,0.0,1.7513,1.6386,1.4764,0.0,0.0,0.0,0.0,0.7096,0.0,0.0,0.0,0.0,0.0,0.0,0.0,0.0,0.7342,0.8099,0.0,0.0,1.1216,1.2572,1.2852,1.352,1.4177,1.4436,1.473,1.5085,1.5691,1.5784,1.5784,1.5784,1.5784,1.5784,1.5784,1.5784,1.5784,1.5784,1.5311,1.5245,1.5751,1.5784,1.5784,1.5784,1.5784,1.5784,1.5784,1.5784,1.5784,1.5784,1.5784,1.5784,1.5784,1.5784,1.5784,1.5784,1.5784,1.5784,1.5784,1.5784,1.5784,1.5784,1.5784,1.5784,1.5784,1.5784,1.5784,1.5784,0.0,0.0,0.613,0.5923,0.5792,0.5701,0.5681,0.5532,0.5413,0.0,0.5438,0.5663,0.6164,0.6839,0.6937,0.6156,0.596,0.6047,0.6455,0.6423,0.6628,0.7148,0.668,0.625,0.5949,0.5852,0.5852,0.5939,0.6719,0.7129,0.7168,0.7168,0.7168,0.7168,0.7168,0.6945,0.6638,0.7756,0.9363,1.1213,1.1817,1.3103,0.0,0.0,1.6121,1.6269,1.7303,1.7924,1.8031,1.6765,1.5277,0.0,0.0,0.0,0.0,0.0,0.848,0.0,0.0,0.0,0.0,0.0,0.0,0.0,0.786,0.8562,0.9291,0.0,1.1019,1.2159,1.1795,1.215,1.2583,1.2819,1.3127,1.3866,1.5338,1.5671,1.5712,1.5598,1.5718,1.5792,1.5778,1.5784,1.5784,1.5784,1.5784,1.5784,1.5784,1.5784,1.5784,1.5784,1.5784,1.5784,1.5784,1.5784,1.5784,1.5784,1.5784,1.5784,1.5784,1.5784,1.5784,1.5784,1.5784,1.5784,1.5784,1.5784,1.5784,1.5784,1.5784,1.5784,1.5784,1.5784,1.5784,1.5784,0.0,0.65,0.6118,0.5867,0.5803,0.6011,0.6686,0.6445,0.6428,0.7102,0.7529,0.8037,0.8782,0.8428,0.8072,0.7906,0.6908,0.6475,0.6934,0.6611,0.6755,0.7554,0.6823,0.6543,0.6836,0.6154,0.6144,0.6846,0.7012,0.7275,0.7579,0.7579,0.7579,0.7579,0.7579,0.7362,0.6993,0.7134,0.0,0.9276,1.1451,1.2885,1.403,1.6349,1.6445,1.5725,1.923,1.9936,1.9147,1.9141,1.7805,1.5819,0.0,0.0,0.0,0.9815,0.9535,0.9313,0.9694,0.0,0.0,0.0,0.0,0.0,0.7172,0.7474,0.8258,0.0,0.8951,0.9358,1.0425,1.0636,1.0648,1.0708,1.1329,1.2334,1.382,1.4683,1.4957,1.4482,1.505,1.5571,1.5758,1.5784,1.5784,1.5784,1.5784,1.5784,1.5784,1.5784,1.5784,1.5784,1.5784,1.5784,1.5784,1.5784,1.5784,1.5784,1.5784,1.5784,1.5784,1.5784,1.5784,1.5784,1.5784,1.5784,1.5784,1.5784,1.5784,1.5784,1.5784,1.5784,1.5784,1.5784,1.5784,1.5784,0.7034,0.6381,0.5838,0.5807,0.5958,0.6396,0.7262,0.7203,0.7369,0.8236,0.8926,0.9344,0.9299,0.9114,0.875,0.8105,0.7041,0.6602,0.707,0.667,0.6794,0.7656,0.7086,0.6758,0.6758,0.6553,0.6543,0.6758,0.7184,0.7505,0.7695,0.7695,0.7827,0.8037,0.7807,0.7571,0.7352,0.7352,0.7671,0.8407,1.0763,0.0,1.3593,1.5832,1.6177,1.5675,1.7816,1.8143,1.7763,1.8674,1.7929,0.0,1.54,1.3998,1.2503,0.0,1.119,1.1013,1.069,0.0,0.0,0.9858,0.0,0.0,0.0,0.8232,0.8641,0.9302,0.9136,0.9068,0.9771,0.9698,0.9542,0.9542,0.9971,1.0563,1.1309,1.31,1.4355,1.4553,1.491,1.5237,1.5384,1.5398,1.5398,1.5398,1.5531,1.5611,1.5611,1.5752,1.5784,1.5784,1.5784,1.5784,1.5784,1.5784,1.5784,1.5784,1.5784,1.5784,1.5784,1.5784,1.5784,1.5784,1.5784,1.5784,1.5784,1.5784,1.5784,1.5784,1.5784,1.5784,1.5784,1.5784,1.5784,1.5784,0.7052,0.6366,0.5857,0.6022,0.6318,0.6823,0.77,0.7754,0.8119,0.925,1.002,1.0391,1.0254,1.0127,0.9767,0.8989,0.7915,0.7295,0.7344,0.7148,0.7184,0.7559,0.7271,0.6963,0.6657,0.6865,0.6865,0.6648,0.7281,0.7618,0.7695,0.7695,0.7944,0.8385,0.7877,0.7752,0.0,0.0,0.0,0.8758,0.0,1.207,1.2993,1.493,1.5591,1.5518,1.5981,1.6339,1.6703,1.7831,1.7424,1.645,1.6734,1.5994,0.0,0.0,0.0,0.0,0.0,0.0,0.0,0.0,0.0,1.0553,0.0,0.0,0.0,0.9885,0.9659,0.0,0.0,0.0,0.0,0.0,0.0,0.0,0.0,1.1069,0.0,1.3889,1.4184,1.4345,1.4405,1.4459,1.464,1.4981,1.5023,1.513,1.5304,1.5585,1.5698,1.5698,1.5751,1.5784,1.5784,1.5784,1.5784,1.5784,1.5784,1.5784,1.5784,1.5784,1.5784,1.5784,1.5784,1.5784,1.5784,1.5784,1.5784,1.5784,1.5784,1.5784,1.5784,1.5784,1.5784,1.5784,0.7088,0.6996,0.6921,0.6943,0.6992,0.7314,0.8189,0.7963,0.8454,1.0575,1.0956,1.194,1.4424,1.292,1.2164,1.3285,1.1541,0.9785,0.8346,0.886,0.8626,0.7236,0.7129,0.7232,0.754,0.6852,0.6833,0.7549,0.7291,0.7349,0.7695,0.7695,0.7944,0.8379,0.7794,0.0,0.0,0.0,0.9193,0.0,1.3027,1.2752,0.0,1.413,1.4743,1.4588,1.6733,1.818,1.9032,0.0,1.782,1.689,0.0,1.5556,1.3585,1.4298,0.0,0.0,0.0,0.0,0.0,0.0,1.1758,0.0,0.0,0.0,0.9973,0.9267,0.0,0.0,0.0,0.0,0.0,0.0,0.0,0.0,0.7651,0.8644,0.9586,1.0238,1.1196,1.1931,1.2234,1.2452,1.326,1.4888,1.4269,1.4188,1.5015,1.5291,1.5444,1.5444,1.5698,1.5784,1.5784,1.5784,1.5784,1.5784,1.5784,1.5784,1.5784,1.5784,1.5784,1.5784,1.5784,1.5784,1.5784,1.5784,1.5784,1.5784,1.5784,1.5784,1.5784,1.5784,1.5784,1.5784,0.7148,0.6885,0.6787,0.7051,0.6875,0.7158,0.8535,0.9434,1.0391,1.1589,1.2184,1.3227,1.5195,1.4346,1.4062,1.5156,1.3965,1.2744,0.0,1.0849,1.003,0.9336,0.811,0.7535,0.7695,0.7335,0.7223,0.7349,0.7418,0.7544,0.7695,0.7695,0.8071,0.874,0.8482,0.0,1.1235,0.0,1.1248,0.0,0.0,1.2582,0.0,1.6031,1.7445,1.7282,1.7794,1.8657,1.9321,0.0,1.8099,0.0,0.0,0.0,0.0,1.6459,0.0,0.0,0.0,0.0,0.0,0.0,0.0,0.0,1.1277,0.0,0.9923,0.0,0.0,0.0,0.0,0.0,0.0,0.0,0.6985,0.0,0.0,0.0,0.7893,0.0,0.0,0.0,1.1536,1.1416,1.1852,1.3112,1.2979,1.31,1.3688,1.4653,1.5224,1.5391,1.5518,1.5658,1.5784,1.5784,1.5784,1.5784,1.5784,1.5784,1.5784,1.5784,1.5784,1.5784,1.5784,1.5784,1.5784,1.5784,1.5784,1.5784,1.5784,1.5784,1.5784,1.5784,1.5784,1.5784,0.732,0.0,0.0,0.7203,0.6979,0.734,0.9092,1.0733,1.2152,1.3203,1.3451,1.4241,1.6063,1.5352,1.5351,1.6848,1.6085,1.5312,0.0,1.3022,1.1924,1.1775,0.9387,0.8227,0.8577,0.8129,0.7681,0.7262,0.7549,0.7768,0.7885,0.7768,0.8168,0.8997,0.8966,1.0135,1.2166,0.0,1.2877,1.351,1.4429,1.4816,1.5143,1.7225,1.8438,1.8897,1.8308,1.8696,1.9296,1.7811,1.8341,1.9521,1.8778,1.8164,1.7832,0.0,0.0,0.0,1.5303,0.0,0.0,0.0,0.0,0.0,0.0,0.0,0.0,0.0,0.0,0.0,0.0,0.0,0.0,0.0,0.0,0.6768,0.0,0.6021,0.0,0.0,0.0,0.0,0.0,1.0134,1.0332,1.1457,1.163,1.2011,1.275,1.4043,1.4901,1.515,1.5311,1.5498,1.5712,1.5744,1.5784,1.5784,1.5784,1.5784,1.5784,1.5784,1.5784,1.5784,1.5784,1.5784,1.5784,1.5784,1.5784,1.5784,1.5784,1.5784,1.5784,1.5784,1.5784,1.5784,0.7686,0.7666,0.0,0.7676,0.7666,0.8246,0.9999,1.1357,1.3129,1.5811,1.4708,1.4923,1.8149,1.6162,1.584,1.8916,1.8027,1.7119,1.6648,1.54,1.4473,1.4026,1.0751,0.9541,1.0761,0.9199,0.8145,0.7676,0.7695,0.7934,0.8365,0.7905,0.8168,0.8989,0.8857,0.9536,1.0883,1.2626,1.365,1.4393,1.822,2.0953,2.2102,0.0,1.5715,1.7731,1.7747,1.8472,1.9401,1.8836,1.8674,1.8863,1.9611,0.0,0.0,0.0,0.0,0.0,0.0,0.0,0.0,1.3959,0.0,0.0,0.0,0.0,1.1408,0.0,0.0,0.0,0.0,0.0,0.0,0.0,0.0,0.0,0.0,0.0,0.0,0.0,0.0,0.0,0.0,0.8196,0.8731,1.0506,1.0347,1.0935,1.269,1.3655,1.4249,1.4536,1.5104,1.5398,1.5411,1.5691,1.5784,1.5784,1.5784,1.5784,1.5784,1.5784,1.5784,1.5784,1.5784,1.5784,1.5784,1.5784,1.5784,1.5784,1.5784,1.5784,1.5784,1.5784,1.5784,1.5784,0.0,0.0,0.0,0.7793,0.7695,0.8285,1.0038,1.1375,1.2769,1.4358,1.4065,1.5001,1.8428,1.7978,1.8423,2.0791,2.1641,2.125,1.9394,1.8584,1.7988,1.7559,1.4785,1.292,1.2227,1.1367,1.0137,0.8558,0.8291,0.8379,0.8779,0.8041,0.8299,0.9398,0.9676,1.1131,0.0,0.0,0.0,0.0,0.0,1.8455,1.9869,0.0,2.0535,2.1275,2.1275,2.1543,2.1607,1.9787,2.0067,2.0999,1.9928,1.9505,1.9728,2.1211,1.9707,1.7808,1.8799,1.9099,1.8688,1.6925,0.0,0.0,0.0,0.0,0.0,0.0,0.0,0.0,0.0,0.0,0.0,0.0,0.0,0.0,0.0,0.0,0.0,0.0,0.0,0.0,0.0,0.0,0.7335,0.8717,0.8698,0.9071,1.0087,1.1897,1.3039,1.3373,1.4539,1.5204,1.5391,1.5685,1.5784,1.5784,1.5784,1.5784,1.5784,1.5784,1.5784,1.5784,1.5784,1.5784,1.5784,1.5784,1.5784,1.5784,1.5784,1.5784,1.5784,1.5784,1.5784,1.5784,0.8799,0.8818,0.8828,0.8266,0.8538,0.9425,1.1162,1.2529,1.3938,1.5615,1.5293,1.6424,2.042,2.0586,2.0928,2.2217,2.2773,2.2793,2.2249,1.9893,1.918,2.0596,1.7148,1.5176,1.5195,1.351,1.1979,1.0605,0.9414,0.9121,0.9658,0.8636,0.8685,0.9631,0.0,1.1759,1.3632,1.6272,1.7703,0.0,0.0,1.8368,0.0,0.0,2.2423,2.2403,2.1952,2.2359,2.2877,2.1254,2.1613,2.2465,2.1161,2.0873,2.1239,2.236,2.1015,1.9421,2.0527,2.0747,2.0308,1.8818,1.7729,0.0,1.4935,0.0,1.2764,0.0,0.0,0.0,0.0,0.0,0.0,0.0,0.0,0.0,0.0,0.6659,0.0,0.0,0.0,0.0,0.0,0.0,0.6446,0.7506,0.7686,0.0,0.0,1.1142,1.2438,1.277,1.4231,1.5102,1.5244,1.5631,1.5784,1.5784,1.5784,1.5784,1.5784,1.5784,1.5784,1.5784,1.5784,1.5784,1.5784,1.5784,1.5784,1.5784,1.5784,1.5784,1.5784,1.5784,1.5784,1.5784,0.9316,0.9121,0.917,0.917,1.0147,1.1572,1.3359,1.4717,1.6473,1.9173,1.8208,1.9056,2.3779,2.3769,2.335,2.3149,2.168,2.1965,2.4773,1.9617,0.0,0.0,1.8125,1.6543,1.9287,1.5703,1.374,1.3633,1.0985,1.0137,1.0947,0.9619,0.9211,0.9651,1.0978,0.0,1.1429,1.6427,1.7752,1.6648,1.8598,2.0843,2.2906,2.1564,2.1207,2.1248,2.0079,2.1132,2.3091,2.3047,2.3047,2.3091,2.3047,2.3047,2.3091,2.3091,2.2306,2.1585,2.2337,2.1687,2.0598,1.9687,1.8471,1.7171,1.5825,0.0,1.5171,0.0,0.0,0.0,0.0,0.0,0.0,0.0,0.0,0.0,0.0,0.0,0.0,0.0,0.0,0.0,0.0,0.0,0.6041,0.6873,0.7256,0.0,0.0,1.1216,1.2305,1.273,1.4117,1.4901,1.5008,1.5484,1.5724,1.5784,1.5784,1.5784,1.5784,1.5784,1.5784,1.5784,1.5784,1.5784,1.5784,1.5784,1.5784,1.5784,1.5784,1.5784,1.5784,1.5784,1.5784,1.5784,1.0166,1.0732,1.1375,1.1375,1.1648,1.2662,1.5077,1.6504,1.7305,1.7187,1.8643,2.041,2.2324,2.5195,2.6113,2.3975,2.3389,2.3008,2.2715,0.0,0.0,2.4914,2.3023,2.1406,2.0302,1.8633,1.7021,1.5439,1.2514,1.1348,1.1823,0.9893,0.9211,0.9631,0.0,0.0,1.267,1.6517,1.9043,2.036,1.9298,2.0217,2.199,2.0144,2.075,2.2589,2.2271,2.2589,2.296,2.2076,2.2359,2.295,2.2031,2.2403,2.3091,2.3091,2.2862,2.2702,2.2877,2.2708,2.2356,2.1812,1.9778,1.7785,1.7108,1.6375,1.5838,0.0,0.0,0.0,0.0,0.0,0.0,0.0,0.0,0.0,0.0,0.0,0.0,0.0,0.0,0.0,0.0,0.0,0.5788,0.6014,0.6345,0.0,0.8657,0.9345,1.0441,1.208,1.2502,1.3447,1.4995,1.4676,1.497,1.5784,1.5784,1.5784,1.5784,1.5784,1.5784,1.5784,1.5784,1.5784,1.5784,1.5784,1.5784,1.5784,1.5784,1.5784,1.5784,1.5784,1.5784,1.5784,1.1299,1.1658,1.2311,1.2925,1.3977,1.5371,1.723,1.8096,1.8926,1.9922,2.039,2.1662,2.4385,2.6846,2.7646,2.6025,2.4336,2.3574,2.4092,0.0,0.0,2.5567,2.4485,2.3086,2.1455,2.0576,0.0,1.6914,1.4072,1.2627,1.2447,1.0488,0.9492,0.9406,0.0,1.1904,1.2861,1.6875,1.9853,2.1775,2.0585,2.124,0.0,2.1081,2.1758,2.3656,2.3656,2.3413,2.3003,2.2306,2.2536,2.3003,2.2306,2.2536,2.3091,2.3091,2.3091,2.3091,2.3091,2.3091,2.3042,2.2799,2.1142,1.9498,1.9432,1.8228,1.7294,1.8118,1.849,1.8598,1.8362,1.6533,0.0,0.0,0.0,0.0,0.0,0.0,0.0,0.0,0.0,0.0,0.0,0.0,0.5475,0.5878,0.6095,0.0,0.0,0.8925,0.9987,1.0921,1.1819,1.279,1.3788,1.3614,1.4102,1.5212,1.5212,1.5411,1.5784,1.5784,1.5784,1.5784,1.5784,1.5784,1.5784,1.5784,1.5784,1.5784,1.5784,1.5784,1.5784,1.5784,1.5784,1.5784,1.2476,1.2272,1.2691,1.4036,1.6141,1.8115,1.9424,1.9912,2.126,2.4414,2.2836,2.3051,2.7373,2.8115,2.8174,2.7871,2.4629,2.3769,2.6553,2.2519,2.1826,2.5849,2.4417,2.3325,2.2949,2.1941,2.044,0.0,1.5634,1.3809,1.2866,1.1056,0.0,0.0,0.0,0.0,0.0,1.7314,2.0166,2.1963,2.1963,2.2881,2.4141,2.3203,2.3496,2.4414,2.4414,2.3896,2.3179,2.3179,2.314,2.3091,2.3091,2.3091,2.3091,2.3091,2.3091,2.3091,2.3091,2.3091,2.3091,2.3091,2.2164,2.1386,2.1725,2.0164,1.9213,2.1394,2.046,1.969,2.0941,1.8052,0.0,0.0,0.0,0.0,0.0,0.0,0.0,0.0,0.0,0.0,0.0,0.0,0.0,0.0,0.0,0.0,0.0,0.0,1.0037,0.9836,1.1524,1.2462,1.2478,1.2632,1.338,1.4689,1.4532,1.4977,1.5784,1.5784,1.5784,1.5784,1.5784,1.5784,1.5784,1.5784,1.5784,1.5784,1.5784,1.5784,1.5784,1.5784,1.5784,1.5784,1.3076,1.3276,0.0,1.4991,1.5537,1.7119,2.0859,2.3242,2.458,2.4512,2.5088,2.5556,2.5488,2.7168,2.7539,2.5654,2.3975,2.3617,2.5166,2.4404,0.0,2.7734,2.6543,2.5615,2.5138,2.3578,2.2068,2.0635,1.696,1.4394,1.2856,1.0732,0.0,0.0,0.0,0.0,1.7031,1.751,0.0,2.2402,2.2402,2.2783,2.3413,2.4297,2.4531,2.4414,2.4414,2.4092,2.3682,2.3682,2.3437,2.3091,2.3091,2.3091,2.3091,2.3091,2.3091,2.3091,2.3091,2.3091,2.3091,2.3091,2.2164,2.1301,2.1396,2.105,2.0864,2.1324,2.1889,2.2086,2.1335,1.834,0.0,0.0,0.0,0.0,0.0,0.0,0.0,0.0,0.0,0.0,0.0,0.0,0.0,0.0,0.0,0.0,0.0,0.0,0.849,1.0378,1.0514,1.1455,1.3347,1.2726,1.3467,1.5545,1.4819,1.4977,1.5784,1.5784,1.5784,1.5784,1.5784,1.5784,1.5784,1.5784,1.5784,1.5784,1.5784,1.5784,1.5784,1.5784,1.5784,1.5784,1.5703,0.0,0.0,0.0,1.7275,1.8867,1.917,2.3682,2.6914,2.6484,2.626,2.5928,2.5391,2.71,2.7851,2.6748,2.6143,2.6055,2.6621,2.498,2.5273,2.8164,2.7705,2.6543,2.4766,2.4336,2.2959,2.0518,1.7525,1.5186,1.3477,1.1084,0.0,0.0,0.0,1.457,0.0,0.0,2.0801,2.2588,2.3477,2.4092,2.4504,2.5176,2.5283,2.505,2.505,2.4824,2.4414,2.4189,2.3975,2.376,2.3545,2.3477,2.3437,2.3159,2.3091,2.3091,2.3091,2.3091,2.3091,2.3091,2.2677,2.2217,2.2217,2.1756,2.148,2.212,2.2217,2.184,2.0741,1.8643,1.6514,0.0,0.0,0.0,0.0,0.0,0.0,0.0,0.0,0.0,0.0,0.0,0.0,0.0,0.0,0.0,0.6961,0.7293,0.8205,0.9826,1.018,1.1182,1.2933,1.2518,1.326,1.5098,1.4679,1.4977,1.5784,1.5784,1.5784,1.5784,1.5784,1.5784,1.5784,1.5784,1.5784,1.5784,1.5784,1.5784,1.5784,1.5784,1.5784,1.5784,1.8997,1.8887,1.835,1.7246,2.0185,2.2031,2.0001,2.4922,2.8711,2.834,2.7275,2.6553,2.6553,2.7598,2.8291,2.8291,2.8291,2.8291,2.8291,2.5762,2.5517,2.8174,2.8203,2.7051,2.4668,2.5,2.3691,2.0596,1.8422,1.6297,1.4202,1.2002,0.0,0.0,0.0,0.0,0.0,2.0693,2.2344,2.3174,2.4568,2.5332,2.5693,2.5693,2.5693,2.5693,2.5693,2.5508,2.5156,2.4814,2.457,2.4355,2.4033,2.3926,2.3838,2.3364,2.3227,2.3218,2.312,2.3091,2.3091,2.3091,2.3091,2.3091,2.3091,2.2359,2.1943,2.2906,2.235,2.1367,2.0352,1.9297,1.8008,0.0,0.0,0.0,0.0,0.0,0.0,0.0,0.0,0.0,0.0,0.0,0.0,0.0,0.0,0.0,0.6445,0.7201,0.8079,0.9091,0.9947,1.1002,1.2198,1.2271,1.314,1.4752,1.4609,1.4977,1.5784,1.5784,1.5784,1.5784,1.5784,1.5784,1.5784,1.5784,1.5784,1.5784,1.5784,1.5784,1.5784,1.5784,1.5784,1.5784,2.2311,2.6318,2.7959,2.3306,2.4062,2.6328,2.9141,3.0185,3.0078,2.8506,2.8828,2.9209,2.9209,2.8662,2.8291,2.8291,2.8291,2.8291,2.8291,2.7988,2.7959,2.8281,2.793,2.764,2.7356,2.623,2.469,0.0,2.0635,1.7939,1.4697,1.3682,1.3594,0.0,0.0,1.8506,2.082,2.1582,2.3027,2.4891,2.5047,2.5332,2.5693,2.5693,2.5693,2.5693,2.5693,2.5664,2.5625,2.5577,2.5031,2.4414,2.4375,2.4355,2.4277,2.3848,2.373,2.3643,2.3198,2.3091,2.3091,2.3091,2.3091,2.3091,2.3091,2.3003,2.296,2.3091,2.3003,2.2543,2.1317,2.0684,1.9431,1.6564,0.0,0.0,0.0,0.0,0.0,0.0,0.0,0.0,0.0,0.7694,0.0,0.0,0.555,0.0,0.7311,0.6961,0.7368,0.8804,0.9446,1.0486,1.1933,1.2171,1.3447,1.5651,1.4903,1.4977,1.5784,1.5784,1.5784,1.5784,1.5784,1.5784,1.5784,1.5784,1.5784,1.5784,1.5784,1.5784,1.5784,1.5784,1.5784,1.5784,2.6094,2.708,2.7793,2.7803,2.666,2.6904,3.0361,3.0889,3.0644,2.9941,3.0146,3.0361,3.0361,3.0059,2.9853,2.9853,2.5117,2.3877,2.8018,2.8291,2.8291,2.8291,2.8135,2.792,2.7728,2.6904,2.5781,2.4297,2.1357,1.8955,1.7103,1.542,1.5498,1.7168,1.888,2.0557,2.2038,2.3281,2.4333,2.5135,2.5361,2.5576,2.5693,2.5693,2.5693,2.5693,2.5693,2.5693,2.5693,2.5693,2.545,2.5118,2.4893,2.4805,2.4727,2.4297,2.3984,2.375,2.3574,2.3296,2.3091,2.3091,2.3091,2.3091,2.3091,2.3091,2.3091,2.3091,2.3091,2.2935,2.2428,2.1387,2.0126,1.8613,0.0,0.0,0.0,0.0,0.0,0.0,0.0,0.0,0.0,0.0,0.0,0.0,0.0,0.0,0.6366,0.6881,0.7715,0.8998,0.9813,1.1209,1.318,1.314,1.3979,1.5778,1.5471,1.5445,1.5784,1.5784,1.5784,1.5784,1.5784,1.5784,1.5784,1.5784,1.5784,1.5784,1.5784,1.5784,1.5784,1.5784,1.5784,1.5784,2.8955,2.8086,2.8027,3.0459,2.8877,2.7949,3.0,3.0644,3.0889,3.0889,3.0889,3.0889,3.0889,3.0889,3.0889,3.0889,2.5322,2.3857,2.874,2.8809,2.8555,2.8301,2.8408,2.8281,2.7914,2.7432,2.6689,2.5644,2.2812,2.0869,1.9793,1.7959,1.8042,1.9806,2.1414,2.2613,2.3545,2.4893,2.5527,2.5664,2.5986,2.6064,2.6064,2.6064,2.5986,2.5928,2.5928,2.5801,2.5693,2.5693,2.5693,2.5635,2.5361,2.5264,2.5176,2.4736,2.4394,2.4111,2.3857,2.3564,2.3257,2.312,2.3091,2.3091,2.3091,2.3091,2.3091,2.3091,2.3091,2.3091,2.3091,2.1943,2.0723,1.9863,0.0,0.0,0.0,1.6007,0.0,0.0,1.3535,1.2372,1.1958,1.019,0.0,0.0,0.0,0.0,0.6479,0.6968,0.7836,0.9171,0.976,1.1169,1.3414,1.3394,1.4159,1.5784,1.5784,1.5784,1.5784,1.5784,1.5784,1.5784,1.5784,1.5784,1.5784,1.5784,1.5784,1.5784,1.5784,1.5784,1.5784,1.5784,1.5784,1.5784,3.0518,3.084,3.084,3.0889,3.0859,3.04,2.9131,3.0049,3.0889,3.0889,3.0889,3.0889,3.0889,3.0889,3.0889,3.0889,3.0791,3.0771,3.0859,3.0039,2.918,2.833,2.8691,2.8711,2.8291,2.7924,2.7441,2.6992,2.5654,2.4131,2.2451,2.1531,2.159,2.2519,2.3809,2.4873,2.5674,2.6182,2.6611,2.6992,2.6992,2.6992,2.6992,2.6992,2.6738,2.6387,2.6387,2.6103,2.5693,2.5693,2.5693,2.5693,2.5684,2.5684,2.5596,2.5195,2.5106,2.492,2.4023,2.3789,2.3682,2.3198,2.3091,2.3091,2.3091,2.3091,2.3091,2.3091,2.3091,2.3091,2.3091,2.2441,2.1309,1.958,1.9277,0.0,0.0,1.5821,0.0,0.0,1.2651,1.1463,1.1056,0.9907,0.0,0.0,0.0,0.0,0.0,0.7256,0.7408,0.9158,0.8944,0.982,1.1913,1.2502,1.3836,1.5784,1.5784,1.5784,1.5784,1.5784,1.5784,1.5784,1.5784,1.5784,1.5784,1.5784,1.5784,1.5784,1.5784,1.5784,1.5784,1.5784,1.5784,1.5784,2.75,2.9277,3.0605,2.9707,3.0293,3.0752,3.0332,3.0625,3.0889,3.0889,3.0889,3.0889,3.0889,3.0889,3.0889,3.0889,3.0889,3.0889,3.0889,3.0625,3.0351,3.0078,2.8779,2.7861,2.7432,2.7295,2.6865,2.6093,2.5723,2.4932,2.3809,2.3535,2.4033,2.5176,2.5576,2.6074,2.6621,2.6758,2.6894,2.7012,2.7012,2.7012,2.7012,2.7012,2.6934,2.6816,2.6816,2.6543,2.6182,2.6182,2.5986,2.5693,2.5693,2.5693,2.5664,2.5566,2.5303,2.5057,2.4783,2.4238,2.375,2.3613,2.3359,2.3091,2.3091,2.3091,2.3091,2.3091,2.3091,2.3091,2.3091,2.2451,2.1406,1.9951,1.9961,0.0,1.708,0.0,1.6623,0.0,1.3936,1.2949,1.3105,1.2281,0.0,0.0,0.0,0.0,0.0,0.8657,0.9345,1.0114,1.1055,1.2141,1.3407,1.3608,1.4389,1.5784,1.5784,1.5784,1.5784,1.5784,1.5784,1.5784,1.5784,1.5784,1.5784,1.5784,1.5784,1.5784,1.5784,1.5784,1.5784,1.5784,1.5784,1.5784,2.7881,2.9414,3.0635,2.9805,3.0342,3.0723,3.0225,3.0576,3.0713,3.0215,3.0586,3.0889,3.0889,3.0889,3.0889,3.0889,3.0889,3.0068,2.8105,2.9805,3.0889,3.0889,2.96,2.8594,2.7988,2.7978,2.7637,2.6883,2.6621,2.6094,2.5391,2.5391,2.583,2.6631,2.6797,2.7012,2.7266,2.7432,2.75,2.75,2.75,2.75,2.75,2.75,2.7393,2.7256,2.7256,2.6982,2.6621,2.6621,2.6445,2.6142,2.6035,2.5977,2.5947,2.5732,2.5537,2.5283,2.5165,2.4678,2.4189,2.3867,2.3584,2.334,2.313,2.3091,2.3091,2.3091,2.3091,2.3091,2.3091,2.2578,2.1797,2.081,2.0742,2.0185,1.835,0.0,1.7269,0.0,0.0,1.4258,0.0,1.4346,1.3811,0.0,0.0,0.0,1.0208,0.9994,1.0216,1.0894,1.202,1.3105,1.4075,1.4195,1.4776,1.5784,1.5784,1.5784,1.5784,1.5784,1.5784,1.5784,1.5784,1.5784,1.5784,1.5784,1.5784,1.5784,1.5784,1.5784,1.5784,1.5784,1.5784,1.5784,3.0635,3.0771,3.0859,3.0771,3.083,3.0478,2.9248,3.0098,3.0449,2.9219,3.0127,3.0889,3.0889,3.0889,3.0889,3.0889,3.0889,2.8838,2.3949,2.8203,3.0889,3.0889,3.0889,3.0449,2.9558,2.9482,2.9316,2.8965,2.8154,2.7549,2.7148,2.7119,2.71,2.7119,2.7529,2.7767,2.7787,2.8125,2.8291,2.8291,2.8291,2.8291,2.8291,2.8291,2.8047,2.7767,2.7767,2.7432,2.706,2.706,2.7041,2.6943,2.6553,2.6435,2.6338,2.583,2.5693,2.5596,2.5225,2.5135,2.492,2.4082,2.3838,2.3682,2.3198,2.3091,2.3091,2.3091,2.3091,2.3091,2.3091,2.275,2.2373,2.1953,2.1494,2.0683,1.9385,1.8516,1.7529,0.0,0.0,1.543,1.5028,1.6143,1.6427,0.0,0.0,0.0,1.4063,1.1458,1.0479,1.1557,1.2198,1.3053,1.4168,1.4469,1.5023,1.5784,1.5784,1.5784,1.5784,1.5784,1.5784,1.5784,1.5784,1.5784,1.5784,1.5784,1.5784,1.5784,1.5784,1.5784,1.5784,1.5784,1.5784,1.5784,2.8125,2.9531,3.0576,2.956,3.0215,3.0781,3.0478,3.0693,3.0781,3.0469,3.0693,3.0889,3.0889,3.0889,3.0889,3.0889,3.0889,3.0371,2.9141,3.0205,3.0889,3.0889,3.0889,3.0166,2.8633,2.8594,2.8867,2.9414,2.8887,2.8574,2.8457,2.8144,2.7988,2.7998,2.8096,2.8144,2.8144,2.8252,2.8291,2.8291,2.8291,2.8291,2.8291,2.8291,2.8232,2.8144,2.8144,2.7871,2.751,2.751,2.7295,2.6992,2.6894,2.6865,2.6719,2.5908,2.5693,2.5664,2.5557,2.5332,2.5067,2.4814,2.4268,2.3682,2.3198,2.3091,2.3091,2.3091,2.3091,2.3091,2.3091,2.275,2.2373,2.1953,2.123,2.0156,1.8535,1.8135,1.7529,0.0,1.6846,1.7227,1.6807,1.793,1.8027,1.6449,0.0,1.6314,1.547,1.4439,1.3745,1.346,1.4242,1.4796,1.5084,1.5378,1.5625,1.5784,1.5784,1.5784,1.5784,1.5784,1.5784,1.5784,1.5784,1.5784,1.5784,1.5784,1.5784,1.5784,1.5784,1.5784,1.5784,1.5784,1.5784,1.5784,2.8926,2.9922,3.0664,2.9941,3.042,3.0889,3.0889,3.0889,3.0889,3.0889,3.0889,3.0889,3.0889,3.0889,3.0889,3.0889,3.0889,3.0889,3.0889,3.0889,3.0889,3.0889,3.0889,3.0449,2.9502,2.9482,2.9609,2.9853,2.9424,2.9219,2.9209,2.8984,2.8877,2.8877,2.8877,2.8877,2.8877,2.8877,2.876,2.8574,2.8574,2.8467,2.8291,2.8291,2.8291,2.8291,2.8291,2.8144,2.7949,2.7949,2.7793,2.7568,2.7373,2.7314,2.7178,2.6514,2.6132,2.5986,2.5742,2.5557,2.5322,2.5165,2.4424,2.373,2.3486,2.3237,2.3091,2.3091,2.3091,2.3091,2.3091,2.275,2.2373,2.1953,2.0977,1.9805,1.8442,1.7969,1.7607,1.7275,1.8037,1.8652,1.8864,1.9834,2.001,1.8841,1.8633,1.8342,1.7876,1.7173,1.6522,1.592,1.558,1.5735,1.6462,1.6028,1.5784,1.5784,1.5784,1.5784,1.5784,1.5784,1.5784,1.5784,1.5784,1.5784,1.5784,1.5784,1.5784,1.5784,1.5784,1.5784,1.5784,1.5784,1.5784,1.5784,3.0889,3.0889,3.0889,3.0889,3.0889,3.0889,3.0889,3.0889,3.0889,3.0889,3.0889,3.0889,3.0889,3.0889,3.0889,3.0889,3.0889,3.0889,3.0889,3.0889,3.0889,3.0889,3.0889,3.0889,3.0889,3.0889,3.0703,3.0303,2.9873,2.9668,2.9658,2.9655,2.9626,2.9626,2.9626,2.9626,2.9626,2.9626,2.9355,2.9023,2.9023,2.8799,2.8476,2.8418,2.8389,2.8379,2.831,2.8291,2.8291,2.8291,2.8291,2.8232,2.7924,2.7816,2.7676,2.7236,2.6855,2.6475,2.5977,2.5732,2.5586,2.5176,2.4521,2.3945,2.3818,2.3506,2.3169,2.311,2.3091,2.3091,2.3091,2.2808,2.2383,2.1699,2.0644,1.9514,1.8461,1.7959,1.793,1.8617,1.9297,1.9961,2.0732,2.1486,2.1758,2.1405,2.0635,2.0311,2.0536,1.957,1.8915,1.8674,1.6937,1.654,1.7684,1.6433,1.5784,1.5784,1.5784,1.5784,1.5784,1.5784,1.5784,1.5784,1.5784,1.5784,1.5784,1.5784,1.5784,1.5784,1.5784,1.5784,1.5784,1.5784,1.5784,1.5784,3.0889,3.0889,3.0889,3.0889,3.0889,3.0889,3.0889,3.0889,3.0889,3.0889,3.0889,3.0889,3.0889,3.0889,3.0889,3.0889,3.0889,3.0889,3.0889,3.0889,3.0889,3.0889,3.0889,3.0889,3.0889,3.0889,3.0859,3.0781,3.0322,3.0098,3.0098,2.9736,2.9626,2.9626,2.9626,2.9626,2.9626,2.9626,2.9587,2.9473,2.9473,2.9434,2.9326,2.8965,2.8818,2.8779,2.8418,2.8291,2.8291,2.8291,2.8291,2.8281,2.8223,2.8193,2.8115,2.7695,2.7571,2.7346,2.6504,2.6016,2.5586,2.5176,2.5018,2.4724,2.3955,2.374,2.3584,2.3169,2.3091,2.3091,2.3091,2.3042,2.2379,2.0527,2.0049,1.9238,1.7262,1.8164,1.9043,1.917,2.0547,2.1533,2.1711,2.1807,2.2002,2.2295,2.1855,2.1734,2.2109,2.104,2.0824,2.1778,1.9906,1.8487,1.7684,1.6433,1.5784,1.5784,1.5784,1.5784,1.5784,1.5784,1.5784,1.5784,1.5784,1.5784,1.5784,1.5784,1.5784,1.5784,1.5784,1.5784,1.5784,1.5784,1.5784,1.5784,3.0889,3.0889,3.0889,3.0889,3.0889,3.0889,3.0889,3.0889,3.0889,3.0889,3.0889,3.0889,3.0889,3.0889,3.0889,3.0889,3.0889,3.0889,3.0889,3.0889,3.0889,3.0889,3.0889,3.0889,3.0889,3.0889,3.0889,3.0889,3.0674,3.0576,3.0566,3.0371,3.0283,3.0283,3.0283,3.0283,3.0283,3.0283,3.0137,2.9902,2.9902,2.9766,2.9607,2.9346,2.9268,2.9219,2.8789,2.8633,2.8594,2.8369,2.8291,2.8291,2.8291,2.8291,2.8252,2.8057,2.7519,2.6894,2.6494,2.6074,2.5635,2.5478,2.5244,2.5008,2.457,2.4121,2.373,2.3525,2.3257,2.3091,2.3091,2.2916,2.2428,2.1475,2.0527,1.9648,1.8906,1.9277,1.9805,2.0283,2.1455,2.2314,2.2539,2.2559,2.2604,2.2789,2.2676,2.2646,2.2789,2.2303,2.2259,2.2808,2.0676,1.891,1.7684,1.6433,1.5784,1.5784,1.5784,1.5784,1.5784,1.5784,1.5784,1.5784,1.5784,1.5784,1.5784,1.5784,1.5784,1.5784,1.5784,1.5784,1.5784,1.5784,1.5784,1.5784,3.0889,3.0889,3.0889,3.0889,3.0889,3.0889,3.0889,3.0889,3.0889,3.0889,3.0889,3.0889,3.0889,3.0889,3.0889,3.0889,3.0889,3.0889,3.0889,3.0889,3.0889,3.0889,3.0889,3.0889,3.0889,3.0889,3.0889,3.0889,3.0889,3.0889,3.0889,3.0889,3.0889,3.0889,3.0889,3.0889,3.0889,3.0889,3.0684,3.0361,3.0361,3.0166,2.9863,2.9756,2.9717,2.9658,2.9228,2.9072,2.9004,2.8584,2.8437,2.8418,2.832,2.8291,2.8291,2.8291,2.7529,2.6641,2.6445,2.6143,2.5859,2.5713,2.5478,2.5195,2.5135,2.4607,2.4023,2.3828,2.3525,2.3218,2.311,2.2838,2.2529,2.2119,2.1025,2.0264,2.0439,2.0303,2.0547,2.1385,2.2197,2.274,2.3062,2.3091,2.3091,2.3091,2.3091,2.3091,2.3091,2.3091,2.3091,2.3091,2.1033,1.9488,1.8549,1.7304,1.6655,1.6655,1.6655,1.652,1.6244,1.6244,1.6062,1.5784,1.5784,1.5784,1.5784,1.5784,1.5784,1.5784,1.5784,1.5784,1.5825,1.6109,1.6244,1.6292,3.0889,3.0889,3.0889,3.0889,3.0889,3.0889,3.0889,3.0889,3.0889,3.0889,3.0889,3.0889,3.0889,3.0889,3.0889,3.0889,3.0889,3.0889,3.0889,3.0889,3.0889,3.0889,3.0889,3.0889,3.0889,3.0889,3.0889,3.0889,3.0889,3.0889,3.0889,3.0889,3.0889,3.0889,3.0889,3.0889,3.0889,3.0889,3.0869,3.084,3.084,3.082,3.0752,3.0312,3.0156,3.0098,2.9668,2.9521,2.9453,2.9023,2.8877,2.8809,2.8418,2.8291,2.8291,2.8291,2.7949,2.7454,2.6602,2.6367,2.624,2.5791,2.5664,2.5586,2.5166,2.5067,2.4793,2.3955,2.3769,2.3623,2.3169,2.3071,2.2568,2.1006,2.0947,2.082,2.0068,2.0596,2.1414,2.2314,2.2779,2.3062,2.3091,2.3091,2.3091,2.3091,2.3091,2.3091,2.3091,2.3091,2.3091,2.3091,2.1845,2.1114,2.1025,1.9852,1.9222,1.9222,1.9222,1.8634,1.7552,1.7552,1.6897,1.5784,1.5784,1.5784,1.5784,1.5784,1.5784,1.5784,1.5784,1.5784,1.592,1.7131,1.7552,1.7731,3.0889,3.0889,3.0889,3.0889,3.0889,3.0889,3.0889,3.0889,3.0889,3.0889,3.0889,3.0889,3.0889,3.0889,3.0889,3.0889,3.0889,3.0889,3.0889,3.0889,3.0889,3.0889,3.0889,3.0889,3.0889,3.0889,3.0889,3.0889,3.0889,3.0889,3.0889,3.0889,3.0889,3.0889,3.0889,3.0889,3.0889,3.0889,3.0889,3.0889,3.0889,3.0889,3.0869,3.0693,3.0625,3.0566,3.0117,2.9961,2.9893,2.9463,2.9141,2.8887,2.873,2.8506,2.8291,2.8291,2.8174,2.793,2.7334,2.6797,2.6279,2.5801,2.5693,2.5645,2.5518,2.5273,2.5028,2.4648,2.416,2.374,2.3574,2.3276,2.2877,2.2266,2.208,2.196,2.1882,2.1931,2.2204,2.2789,2.3003,2.3091,2.3091,2.3091,2.3091,2.3091,2.3091,2.3091,2.3091,2.3091,2.3091,2.3091,2.2677,2.2076,2.1293,2.0079,1.9497,1.9497,1.9497,1.9268,1.8818,1.8818,1.8542,1.8079,1.8079,1.8079,1.8079,1.8079,1.8079,1.8079,1.8079,1.8079,1.8164,1.8634,1.8818,1.8864,3.0889,3.0889,3.0889,3.0889,3.0889,3.0889,3.0889,3.0889,3.0889,3.0889,3.0889,3.0889,3.0889,3.0889,3.0889,3.0889,3.0889,3.0889,3.0889,3.0889,3.0889,3.0889,3.0889,3.0889,3.0889,3.0889,3.0889,3.0889,3.0889,3.0889,3.0889,3.0889,3.0889,3.0889,3.0889,3.0889,3.0889,3.0889,3.0889,3.0889,3.0889,3.0889,3.0889,3.0889,3.0889,3.085,3.0527,3.042,3.0351,2.9912,2.957,2.9297,2.917,2.8828,2.8467,2.833,2.8291,2.8203,2.7836,2.7236,2.666,2.6084,2.5791,2.5693,2.5693,2.5498,2.5244,2.5145,2.46,2.415,2.4014,2.3633,2.3305,2.3305,2.2945,2.2769,2.3052,2.2847,2.2769,2.3062,2.3091,2.3091,2.3091,2.3091,2.3091,2.3091,2.3091,2.3091,2.3091,2.3091,2.3091,2.3091,2.3091,2.2677,2.1845,2.1033,2.0629,2.0629,2.0629,2.044,2.0079,2.0079,1.9852,1.9497,1.9497,1.9497,1.9497,1.9497,1.9497,1.9497,1.9497,1.9497,1.9542,1.9943,2.0079,2.0124,3.0889,3.0889,3.0889,3.0889,3.0889,3.0889,3.0889,3.0889,3.0889,3.0889,3.0889,3.0889,3.0889,3.0889,3.0889,3.0889,3.0889,3.0889,3.0889,3.0889,3.0889,3.0889,3.0889,3.0889,3.0889,3.0889,3.0889,3.0889,3.0889,3.0889,3.0889,3.0889,3.0889,3.0889,3.0889,3.0889,3.0889,3.0889,3.0889,3.0889,3.0889,3.0889,3.0889,3.0889,3.0889,3.0889,3.0889,3.0889,3.082,3.0361,3.0205,3.0127,2.9707,2.9268,2.8838,2.8418,2.8291,2.8203,2.7783,2.7718,2.7513,2.6602,2.6064,2.5693,2.5693,2.5693,2.5605,2.5213,2.5116,2.4941,2.4502,2.4082,2.3799,2.3789,2.3428,2.3101,2.3091,2.3091,2.3091,2.3091,2.3091,2.3091,2.3091,2.3091,2.3091,2.3091,2.3091,2.3091,2.3091,2.3091,2.3091,2.3091,2.3091,2.3091,2.3091,2.3091,2.3091,2.3091,2.3091,2.2492,2.1293,2.1293,2.0666,1.9542,1.9542,1.9542,1.9542,1.9542,1.9542,1.9542,1.9542,1.9542,1.967,2.089,2.1293,2.148,3.0889,3.0889,3.0889,3.0889,3.0889,3.0889,3.0889,3.0889,3.0889,3.0889,3.0889,3.0889,3.0889,3.0889,3.0889,3.0889,3.0889,3.0889,3.0889,3.0889,3.0889,3.0889,3.0889,3.0889,3.0889,3.0889,3.0889,3.0889,3.0889,3.0889,3.0889,3.0889,3.0889,3.0889,3.0889,3.0889,3.0889,3.0889,3.0889,3.0889,3.0889,3.0889,3.0889,3.0889,3.0889,3.0889,3.0889,3.0889,3.0869,3.0732,3.0469,3.0127,2.9707,2.9268,2.8896,2.8769,2.8525,2.8262,2.8135,2.7891,2.7513,2.6602,2.6289,2.6113,2.5762,2.5693,2.5654,2.5566,2.5283,2.5077,2.4893,2.4521,2.4131,2.3838,2.3682,2.3486,2.314,2.3091,2.3091,2.3091,2.3091,2.3091,2.3091,2.3091,2.3091,2.3091,2.3091,2.3091,2.3091,2.3091,2.3091,2.3091,2.3091,2.3091,2.3091,2.3091,2.3091,2.3091,2.3091,2.2906,2.2536,2.2536,2.2359,2.2041,2.2041,2.2041,2.2041,2.2041,2.2041,2.2041,2.2041,2.2041,2.2094,2.2448,2.2536,2.2633,3.0889,3.0889,3.0889,3.0889,3.0889,3.0889,3.0889,3.0889,3.0889,3.0889,3.0889,3.0889,3.0889,3.0889,3.0889,3.0889,3.0889,3.0889,3.0889,3.0889,3.0889,3.0889,3.0889,3.0889,3.0889,3.0889,3.0889,3.0889,3.0889,3.0889,3.0889,3.0889,3.0889,3.0889,3.0889,3.0889,3.0889,3.0889,3.0889,3.0889,3.0889,3.0889,3.0889,3.0889,3.0889,3.0889,3.0889,3.0889,3.0889,3.0889,3.0703,3.0391,2.9961,2.9639,2.9365,2.9014,2.874,2.8506,2.834,2.8105,2.7744,2.707,2.6758,2.6523,2.6094,2.5996,2.5947,2.5723,2.5518,2.5332,2.5332,2.4971,2.459,2.4336,2.4014,2.3691,2.3437,2.3198,2.3091,2.3091,2.3091,2.3091,2.3091,2.3091,2.3091,2.3091,2.3091,2.3091,2.3091,2.3091,2.3091,2.3091,2.3091,2.3091,2.3091,2.3091,2.3091,2.3091,2.3091,2.3091,2.3091,2.3091,2.3091,2.3091,2.3091,2.3091,2.3091,2.3091,2.3091,2.3091,2.3091,2.3091,2.3091,2.3091,2.3091,2.3091,3.0889,3.0889,3.0889,3.0889,3.0889,3.0889,3.0889,3.0889,3.0889,3.0889,3.0889,3.0889,3.0889,3.0889,3.0889,3.0889,3.0889,3.0889,3.0889,3.0889,3.0889,3.0889,3.0889,3.0889,3.0889,3.0889,3.0889,3.0889,3.0889,3.0889,3.0889,3.0889,3.0889,3.0889,3.0889,3.0889,3.0889,3.0889,3.0889,3.0889,3.0889,3.0889,3.0889,3.0889,3.0889,3.0889,3.0889,3.0889,3.0889,3.0889,3.0889,3.082,3.0391,3.0234,3.0049,2.9258,2.8975,2.8838,2.8447,2.832,2.8203,2.7875,2.7422,2.7012,2.6543,2.6416,2.6279,2.583,2.5713,2.5693,2.5693,2.54,2.5165,2.5125,2.4414,2.3887,2.3857,2.3506,2.3198,2.3159,2.3149,2.314,2.3101,2.3091,2.3091,2.3091,2.3091,2.3091,2.3091,2.3091,2.3091,2.3091,2.3091,2.3091,2.3091,2.3091,2.3091,2.3091,2.3091,2.3091,2.3091,2.3091,2.3091,2.3091,2.3091,2.3091,2.3091,2.3091,2.3091,2.3091,2.3091,2.3091,2.3091,2.3091,2.3091,2.3091,3.0889,3.0889,3.0889,3.0889,3.0889,3.0889,3.0889,3.0889,3.0889,3.0889,3.0889,3.0889,3.0889,3.0889,3.0889,3.0889,3.0889,3.0889,3.0889,3.0889,3.0889,3.0889,3.0889,3.0889,3.0889,3.0889,3.0889,3.0889,3.0889,3.0889,3.0889,3.0889,3.0889,3.0889,3.0889,3.0889,3.0889,3.0889,3.0889,3.0889,3.0889,3.0889,3.0889,3.0889,3.0889,3.0889,3.0889,3.0889,3.0889,3.0889,3.0889,3.0869,3.0771,3.0488,3.0156,2.9971,2.9443,2.8896,2.8809,2.8545,2.8271,2.8174,2.8086,2.7822,2.7051,2.6621,2.6357,2.6269,2.5977,2.5693,2.5693,2.5615,2.5478,2.5174,2.4959,2.4668,2.4326,2.4199,2.4014,2.3691,2.3652,2.3516,2.313,2.3091,2.3091,2.3091,2.3091,2.3091,2.3091,2.3091,2.3091,2.3091,2.3091,2.3091,2.3091,2.3091,2.3091,2.3091,2.3091,2.3091,2.3091,2.3091,2.3091,2.3091,2.3091,2.3091,2.3091,2.3091,2.3091,2.3091,2.3091,2.3091,2.3091,2.3091,2.3091,2.3091,3.0889,3.0889,3.0889,3.0889,3.0889,3.0889,3.0889,3.0889,3.0889,3.0889,3.0889,3.0889,3.0889,3.0889,3.0889,3.0889,3.0889,3.0889,3.0889,3.0889,3.0889,3.0889,3.0889,3.0889,3.0889,3.0889,3.0889,3.0889,3.0889,3.0889,3.0889,3.0889,3.0889,3.0889,3.0889,3.0889,3.0889,3.0889,3.0889,3.0889,3.0889,3.0889,3.0889,3.0889,3.0889,3.0889,3.0889,3.0889,3.0889,3.0889,3.0889,3.0889,3.0889,3.0723,3.0488,3.0264,2.9883,2.9443,2.9033,2.876,2.8545,2.834,2.8291,2.8125,2.7471,2.6992,2.6631,2.6426,2.6045,2.5693,2.5693,2.5693,2.5615,2.543,2.5205,2.499,2.4756,2.4551,2.4336,2.4111,2.4092,2.3994,2.3725,2.3564,2.3447,2.3447,2.3447,2.3447,2.3447,2.3643,2.3608,2.3457,2.3598,2.3608,2.3457,2.3598,2.3598,2.3447,2.3198,2.3091,2.3091,2.3091,2.3091,2.3091,2.3091,2.3091,2.3091,2.3091,2.3091,2.3091,2.3091,2.3091,2.3091,2.3091,2.3091,2.3091,3.0889,3.0889,3.0889,3.0889,3.0889,3.0889,3.0889,3.0889,3.0889,3.0889,3.0889,3.0889,3.0889,3.0889,3.0889,3.0889,3.0889,3.0889,3.0889,3.0889,3.0889,3.0889,3.0889,3.0889,3.0889,3.0889,3.0889,3.0889,3.0889,3.0889,3.0889,3.0889,3.0889,3.0889,3.0889,3.0889,3.0889,3.0889,3.0889,3.0889,3.0889,3.0889,3.0889,3.0889,3.0889,3.0889,3.0889,3.0889,3.0889,3.0889,3.0889,3.0889,3.0889,3.0889,3.081,3.043,3.0264,3.0029,2.9238,2.8975,2.8818,2.8398,2.8291,2.8203,2.7851,2.7441,2.7031,2.668,2.6201,2.5801,2.5801,2.5732,2.5693,2.5693,2.543,2.5185,2.5185,2.4873,2.4609,2.4531,2.4463,2.4414,2.4414,2.4102,2.3896,2.3896,2.3896,2.3896,2.3896,2.4228,2.4258,2.3906,2.4238,2.4248,2.3896,2.4238,2.4238,2.3896,2.3535,2.3276,2.3208,2.3208,2.3208,2.3198,2.312,2.3091,2.3091,2.3091,2.3091,2.3091,2.3091,2.3091,2.3091,2.3091,2.3091,2.3091,3.0889,3.0889,3.0889,3.0889,3.0889,3.0889,3.0889,3.0889,3.0889,3.0889,3.0889,3.0889,3.0889,3.0889,3.0889,3.0889,3.0889,3.0889,3.0889,3.0889,3.0889,3.0889,3.0889,3.0889,3.0889,3.0889,3.0889,3.0889,3.0889,3.0889,3.0889,3.0889,3.0889,3.0889,3.0889,3.0889,3.0889,3.0889,3.0889,3.0889,3.0889,3.0889,3.0889,3.0889,3.0889,3.0889,3.0889,3.0889,3.0889,3.0889,3.0889,3.0889,3.0889,3.0889,3.0879,3.081,3.0518,3.0098,2.9609,2.9209,2.8818,2.8398,2.8291,2.8281,2.8223,2.7881,2.7611,2.7562,2.6855,2.6299,2.6299,2.5986,2.5693,2.5693,2.5635,2.5596,2.5596,2.5547,2.542,2.5077,2.4648,2.4414,2.4414,2.4365,2.4336,2.4336,2.4336,2.4336,2.4336,2.4385,2.4394,2.4336,2.4385,2.4385,2.4336,2.4385,2.4385,2.4336,2.4268,2.4053,2.3701,2.3701,2.3701,2.3682,2.3257,2.3091,2.3091,2.3091,2.3091,2.3091,2.3091,2.3091,2.3091,2.3091,2.3091,2.3091,3.0889,3.0889,3.0889,3.0889,3.0889,3.0889,3.0889,3.0889,3.0889,3.0889,3.0889,3.0889,3.0889,3.0889,3.0889,3.0889,3.0889,3.0889,3.0889,3.0889,3.0889,3.0889,3.0889,3.0889,3.0889,3.0889,3.0889,3.0889,3.0889,3.0889,3.0889,3.0889,3.0889,3.0889,3.0889,3.0889,3.0889,3.0889,3.0889,3.0889,3.0889,3.0889,3.0889,3.0889,3.0889,3.0889,3.0889,3.0889,3.0889,3.0889,3.0889,3.0889,3.0889,3.0889,3.0889,3.0889,3.0742,3.0488,3.0039,2.9609,2.918,2.875,2.8467,2.8291,2.8291,2.8144,2.7949,2.7767,2.7168,2.667,2.6435,2.623,2.6025,2.5732,2.5693,2.5693,2.5693,2.5693,2.5615,2.5469,2.5273,2.5156,2.5156,2.4932,2.4775,2.4775,2.4775,2.4775,2.4775,2.5019,2.5039,2.4785,2.5019,2.5039,2.4785,2.5029,2.5029,2.4785,2.5039,2.4795,2.4141,2.4141,2.4141,2.4111,2.3682,2.3496,2.3486,2.3198,2.3091,2.3091,2.3091,2.3091,2.3091,2.3091,2.3091,2.3091]}]]